[[{"header":{"parameterUnit":"m.s-1","parameterCategory":1,"la1":31.0,"la2":29.5877,"lo1":-88.7671,"lo2":-86.6584,"dy":0.0162,"dx":0.0185,"nx":115,"ny":88,"refTime":"2025-04-13T12:00:00:Z","depth":0,"parameterNumber":2,"parameterNumberName":"U-component_of_WINDS"},"data":[0.0,0.0,0.0,0.0,0.0,0.0,0.0,0.0,0.0,0.0,0.0,0.0,0.0,0.0,0.0,0.0,0.0,0.0,0.0,0.0,0.0,0.0,0.0,0.0,0.0,0.0,0.0,0.0,0.0,0.0,0.0,0.0,0.0,0.0,0.0,0.0,0.0,0.0,0.0,0.0,0.0,0.0,0.0,0.0,0.0,0.0,0.0,0.0,0.0,0.0,0.0,0.0,0.0,0.0,0.0,0.0,0.0,0.0,0.0,0.0,0.0,0.0,0.0,0.0,0.0,0.0,0.0,0.0,0.0,0.0,0.0,0.0,0.0,0.0,0.0,0.0,0.0,0.0,0.0,0.0,0.0,0.0,0.0,0.0,0.0,0.0,0.0,0.0,0.0,0.0,0.0,0.0,0.0,0.0,0.0,0.0,0.0,0.0,0.0,0.0,0.0,0.0,0.0,0.0,0.0,0.0,0.0,0.0,0.0,0.0,0.0,0.0,0.0,0.0,0.0,0.0,0.0,0.0,0.0,0.0,0.0,0.0,0.0,0.0,0.0,0.0,0.0,0.0,0.0,0.0,0.0,0.0,0.0,0.0,0.0,0.0,0.0,0.0,0.0,0.0,0.0,0.0,0.0,0.0,0.0,0.0,0.0,0.0,0.0,0.0,0.0,0.0,0.0,0.0,0.0,0.0,0.0,0.0,0.0,0.0,0.0,0.0,0.0,0.0,0.0,0.0,0.0,0.0,0.0,0.0,0.0,0.0,0.0,0.0,0.0,0.0,0.0,0.0,0.0,0.0,0.0,0.0,0.0,0.0,0.0,0.0,0.0,0.0,0.0,0.0,0.0,0.0,0.0,0.0,0.0,0.0,0.0,0.0,0.0,0.0,0.0,0.0,0.0,0.0,0.0,0.0,0.0,0.0,0.0,0.0,0.0,0.0,0.0,0.0,0.0,0.0,0.0,0.0,0.0,0.0,0.0,0.0,0.0,0.0,0.0,0.0,0.0,0.0,0.0,0.0,0.0,0.0,0.0,0.0,0.0,0.0,0.0,0.0,0.0,0.0,0.0,0.0,0.0,0.0,0.0,0.0,0.0,0.0,0.0,0.0,0.0,0.0,0.0,0.0,0.0,0.0,0.0,0.0,0.0,0.0,0.0,0.0,0.0,0.0,0.0,0.0,0.0,0.0,0.0,0.0,0.0,0.0,0.0,0.0,0.0,0.0,0.0,0.0,0.0,0.0,0.0,0.0,0.0,0.0,0.0,0.0,0.0,0.0,0.0,0.0,0.0,0.0,0.0,0.0,0.0,0.0,0.0,0.0,0.0,0.0,0.0,0.0,0.0,0.0,0.0,0.0,0.0,0.0,0.0,0.0,0.0,0.0,0.0,0.0,0.0,0.0,0.0,0.0,0.0,0.0,0.0,0.0,0.0,0.0,0.0,0.0,0.0,0.0,0.0,0.0,0.0,0.0,0.0,0.0,0.0,0.0,0.0,0.0,0.0,0.0,0.0,0.0,0.0,0.0,0.0,0.0,0.0,0.0,0.0,0.0,0.0,0.0,0.0,0.0,0.0,0.0,0.0,0.0,0.0,0.0,0.0,0.0,0.0,0.0,0.0,0.0,0.0,0.0,0.0,0.0,0.0,0.0,0.0,0.0,0.0,0.0,0.0,0.0,0.0,0.0,0.0,0.0,0.0,0.0,0.0,0.0,0.0,0.0,0.0,0.0,0.0,0.0,0.0,0.0,0.0,0.0,0.0,0.0,0.0,0.0,0.0,0.0,0.0,0.0,0.0,0.0,0.0,0.0,0.0,0.0,0.0,0.0,0.0,0.0,0.0,0.0,0.0,0.0,0.0,0.0,0.0,0.0,0.0,0.0,0.0,0.0,0.0,0.0,0.0,0.0,0.0,0.0,0.0,0.0,0.0,0.0,0.0,0.0,0.0,0.0,0.0,0.0,0.0,0.0,0.0,0.0,0.0,0.0,0.0,0.0,0.0,0.0,0.0,0.0,0.0,0.0,0.0,0.0,0.0,0.0,0.0,0.0,0.0,0.0,0.0,0.0,0.0,0.0,0.0,0.0,0.0,0.0,0.0,0.0,0.0,0.0,0.0,0.0,0.0,0.0,0.0,0.0,0.0,0.0,0.0,0.0,0.0,0.0,0.0,0.0,0.0,0.0,0.0,0.0,0.0,0.0,0.0,0.0,0.0,0.0,0.0,0.0,0.0,0.0,0.0,0.0,0.0,0.0,0.0,0.0,0.0,0.0,0.0,0.0,0.0,0.0,0.0,0.0,0.0,0.0,0.0,0.0,0.0,0.0,0.0,0.0,0.0,0.0,0.0,0.0,0.0,0.0,0.0,0.0,0.0,0.0,0.0,0.0,0.0,0.0,0.0,0.0,0.0,0.0,0.0,0.0,0.0,0.0,0.0,0.0,0.0,0.0,0.0,0.0,0.0,0.0,0.0,0.0,0.0,0.0,0.0,0.0,0.0,0.0,0.0,0.0,0.0,0.0,0.0,0.0,0.0,0.0,0.0,0.0,0.0,0.0,0.0,0.0,0.0,0.0,0.0,0.0,0.0,0.0,0.0,0.0,0.0,0.0,0.0,0.0,0.0,0.0,0.0,0.0,0.0,0.0,0.0,0.0,0.0,0.0,0.0,0.0,0.0,0.0,0.0,0.0,0.0,0.0,0.0,0.0,0.0,0.0,0.0,0.0,0.0,0.0,0.0,0.0,0.0,0.0,0.0,0.0,0.0,0.0,0.0,0.0,0.0,0.0,0.0,0.0,0.0,0.0,0.0,0.0,0.0,0.0,0.0,0.0,0.0,0.0,0.0,0.0,0.0,0.0,0.0,0.0,0.0,0.0,0.0,0.0,0.0,0.0,0.0,0.0,0.0,0.0,0.0,0.0,0.0,0.0,0.0,0.0,0.0,0.0,0.0,0.0,0.0,0.0,0.0,0.0,0.0,0.0,0.0,0.0,0.0,0.0,0.0,0.0,0.0,0.0,0.0,0.0,0.0,0.0,0.0,0.0,0.0,0.0,0.0,0.0,0.0,0.0,0.0,0.0,0.0,0.0,0.0,0.0,0.0,0.0,0.0,0.0,0.0,0.0,0.0,0.0,0.0,0.0,0.0,0.0,0.0,0.0,0.0,0.0,0.0,0.0,0.0,0.0,0.0,0.0,0.0,0.0,0.0,0.0,0.0,0.0,0.0,0.0,0.0,0.0,0.0,0.0,0.0,0.0,0.0,0.0,0.0,0.0,0.0,0.0,0.0,0.0,0.0,0.0,0.0,0.0,0.0,0.0,0.0,0.0,0.0,0.0,0.0,0.0,0.0,0.0,0.0,0.0,0.0,0.0,0.0,0.0,0.0,0.0,0.0,0.0,0.0,0.0,0.0,0.0,0.0,0.0,0.0,0.0,0.0,0.0,0.0,0.0,0.0,0.0,0.0,0.0,0.0,0.0,0.0,0.0,0.0,0.0,0.0,0.0,0.0,0.0,0.0,0.0,0.0,0.0,0.0,0.0,0.0,0.0,0.0,0.0,0.0,0.0,0.0,0.0,0.0,0.0,0.0,0.0,0.0,0.0,0.0,0.0,0.0,0.0,0.0,0.0,0.0,0.0,0.0,0.0,0.0,0.0,0.0,0.0,0.0,0.0,0.0,0.0,0.0,0.0,0.0,0.0,0.0,0.0,0.0,0.0,0.0,0.0,0.0,0.0,0.0,0.0,0.0,0.0,0.0,0.0,0.0,0.0,0.0,0.0,0.0,0.0,0.0,0.0,0.0,0.0,0.0,0.0,0.0,0.0,0.0,0.0,0.0,0.0,0.0,0.0,0.0,0.0,0.0,0.0,0.0,0.0,0.0,0.0,0.0,0.0,0.0,0.0,0.0,0.0,0.0,0.0,0.0,0.0,0.0,0.0,0.0,0.0,0.0,0.0,0.0,0.0,0.0,0.0,0.0,0.0,0.0,0.0,0.0,0.0,0.0,0.0,0.0,0.0,0.0,0.0,0.0,0.0,0.0,0.0,0.0,0.0,0.0,0.0,0.0,0.0,0.0,0.0,0.0,0.0,0.0,0.0,0.0,0.0,0.0,0.0,0.0,0.0,0.0,0.0,0.0,0.0,0.0,0.0,0.0,0.0,0.0,0.0,0.0,0.0,0.0,0.0,0.0,0.0,0.0,0.0,0.0,0.0,0.0,0.0,0.0,0.0,0.0,0.0,0.0,0.0,0.0,0.0,0.0,0.0,0.0,0.0,0.0,0.0,0.3506,0.0,0.0,0.0,0.0,0.0,0.0,0.0,0.0,0.0,0.0,0.0,0.0,0.0,0.0,0.0,0.0,0.0,0.0,0.0,0.0,0.0,0.0,0.0,0.0,0.0,0.0,0.0,0.0,0.0,0.0,0.0,0.0,0.0,0.0,0.0,0.0,0.0,0.0,0.0,0.0,0.0,0.0,0.0,0.0,0.0,0.0,0.0,0.0,0.0,0.0,0.0,0.0,0.0,0.0,0.0,0.0,0.0,0.0,0.0,0.0,0.0,0.0,0.0,0.0,0.0,0.0,0.0,0.0,0.0,0.0,0.0,0.0,0.0,0.0,0.0,0.0,0.0,0.0,0.0,0.0,0.0,0.0,0.0,0.0,0.0,0.0,0.0,0.0,0.0,0.0,0.0,0.0,0.0,0.0,0.0,0.0,0.0,0.0,0.0,0.0,0.0,0.0,0.0,0.0,0.0,0.0,0.0,0.0,0.0,0.0,0.3506,0.3506,0.3506,0.3506,0.3506,0.0,0.0,0.0,0.0,0.0,0.0,0.0,0.0,0.0,0.0,0.0,0.0,0.0,0.0,0.0,0.0,0.0,0.0,0.0,0.0,0.0,0.0,0.0,0.0,0.0,0.0,0.0,0.0,0.0,0.0,0.0,0.0,0.0,0.0,0.0,0.0,0.0,0.0,0.0,0.0,0.0,0.0,0.0,0.0,0.0,0.0,0.0,0.0,0.0,0.0,0.0,0.0,0.0,0.0,0.0,0.0,0.0,0.0,0.0,0.0,0.0,0.0,0.0,0.0,0.0,0.0,0.0,0.0,0.0,0.0,0.0,0.0,0.0,0.0,0.0,0.0,0.0,0.0,0.0,0.0,0.0,0.0,0.0,0.0,0.0,0.0,0.0,0.0,0.0,0.0,0.0,0.0,0.0,0.0,0.0,0.0,0.0,0.0,0.0,0.0,0.0,0.0,0.0,0.0,0.0,0.0,0.0,0.0,0.0,0.0,0.0,0.0,0.36,0.3606,0.3616,0.0,0.0,0.0,0.0,0.0,0.0,0.0,0.0,0.0,0.0,0.0,0.0,0.0,0.0,0.0,0.0,0.0,0.0,0.0,0.0,0.0,0.0,0.0,0.0,0.0,0.0,0.0,0.0,0.0,0.0,0.0,0.0,0.0,0.0,0.0,0.0,0.0,0.0,0.0,0.0,0.0,0.0,0.0,0.0,0.0,0.0,0.0,0.0,0.0,0.0,0.0,0.0,0.0,0.0,0.0,0.0,0.0,0.0,0.0,0.0,0.0,0.0,0.0,0.0,0.0,0.0,0.0,0.0,0.0,0.0,0.0,0.0,0.0,0.0,0.0,0.0,0.0,0.0,0.0,0.0,0.0,0.0,0.0,0.0,0.0,0.0,0.0,0.0,0.0,0.0,0.0,0.0,0.0,0.0,0.0,0.0,0.0,0.0,0.0,0.0,0.0,0.0,0.0,0.0,0.0,0.0,0.0,0.0,0.0,0.0,0.365,0.3933,0.3946,0.0,0.3946,0.0,0.0,0.0,0.0,0.0,0.0,0.0,0.0,0.0,0.0,0.0,0.0,0.0,0.0,0.0,0.0,0.0,0.0,0.0,0.0,0.0,0.0,0.0,0.0,0.0,0.0,0.0,0.0,0.0,0.0,0.0,0.0,0.0,0.0,0.0,0.0,0.0,0.0,0.0,0.0,0.0,0.0,0.0,0.0,0.0,0.0,0.0,0.0,0.0,0.0,0.0,0.0,0.0,0.0,0.0,0.0,0.0,0.0,0.0,0.0,0.0,0.0,0.0,0.0,0.0,0.0,0.0,0.0,0.0,0.0,0.0,0.0,0.0,0.0,0.0,0.0,0.0,0.0,0.0,0.0,0.0,0.0,0.0,0.0,0.0,0.0,0.0,0.0,0.0,0.0,0.0,0.0,0.0,0.0,0.0,0.0,0.0,0.0,0.0,0.0,0.0,0.0,0.0,0.0,0.0,0.0,0.0,0.0,0.0,0.0,0.0,0.3998,0.3998,0.3998,0.0,0.0,0.0,0.0,0.0,0.0,0.0,0.0,0.0,0.0,0.0,0.0,0.0,0.0,0.0,0.0,0.0,0.0,0.0,0.0,0.0,0.0,0.0,0.0,0.0,0.0,0.0,0.0,0.0,0.0,0.0,0.0,0.0,0.0,0.0,0.0,0.0,0.0,0.0,0.0,0.0,0.0,0.0,0.0,0.0,0.0,0.0,0.0,0.0,0.0,0.0,0.0,0.0,0.0,0.0,0.0,0.0,0.0,0.0,0.0,0.0,0.0,0.0,0.0,0.0,0.0,0.0,0.0,0.0,0.0,0.0,0.0,0.0,0.0,0.0,0.0,0.0,0.0,0.0,0.0,0.0,0.0,0.0,0.0,0.0,0.0,0.0,0.0,0.0,0.0,0.0,0.0,0.0,0.0,0.0,0.0,0.0,0.0,0.0,0.0,0.0,0.0,0.0,0.0,0.0,0.0,0.0,0.0,0.0,0.0,0.3907,0.0,0.41,0.41,0.4079,0.4004,0.0,0.0,0.0,0.0,0.0,0.0,0.0,0.0,0.0,0.0,0.0,0.0,0.0,0.0,0.0,0.0,0.0,0.0,0.0,0.0,0.0,0.0,0.0,0.0,0.0,0.0,0.0,0.0,0.0,0.0,0.0,0.0,0.0,0.0,0.0,0.0,0.0,0.0,0.0,0.0,0.0,0.0,0.0,0.0,0.0,0.0,0.0,0.0,0.0,0.0,0.0,0.0,0.0,0.0,0.0,0.0,0.0,0.0,0.0,0.0,0.0,0.0,0.0,0.0,0.0,0.0,0.0,0.0,0.0,0.0,0.0,0.0,0.0,0.0,0.0,0.0,0.0,0.0,0.0,0.0,0.0,0.0,0.0,0.0,0.0,0.0,0.0,0.0,0.0,0.0,0.0,0.0,0.0,0.0,0.0,0.0,0.0,0.0,0.0,0.0,0.0,0.0,0.0,0.0,0.0,0.0,0.0,0.0,0.0,0.412,0.4114,0.4369,0.4395,0.4268,0.0,0.0,0.0,0.0,0.0,0.0,0.0,0.0,0.0,0.0,0.0,0.0,0.0,0.0,0.0,0.0,0.0,0.0,0.0,0.0,0.0,0.0,0.0,0.0,0.0,0.0,0.0,0.0,0.0,0.0,0.0,0.0,0.0,0.0,0.0,0.0,0.0,0.0,0.0,0.0,0.0,0.0,0.0,0.0,0.0,0.0,0.0,0.0,0.0,0.0,0.0,0.0,0.0,0.0,0.0,0.0,0.0,0.0,0.0,0.0,0.0,0.0,0.0,0.0,0.0,0.0,0.0,0.0,0.0,0.0,0.0,0.0,0.0,0.0,0.0,0.0,0.0,0.0,0.0,0.0,0.0,0.0,0.0,0.0,0.0,0.0,0.0,0.0,0.0,0.0,0.0,0.0,0.0,0.0,0.0,0.0,0.0,0.0,0.0,0.0,0.0,0.0,0.0,0.0,0.0,0.0,0.0,0.0,0.0,0.3822,0.3945,0.4201,0.4628,0.4335,0.4175,0.0,0.0,0.0,0.0,0.0,0.0,0.0,0.0,0.0,0.0,0.0,0.0,0.0,0.0,0.0,0.0,0.0,0.0,0.0,0.0,0.0,0.0,0.0,0.0,0.0,0.0,0.0,0.0,0.0,0.0,0.0,0.0,0.0,0.0,0.0,0.0,0.0,0.0,0.0,0.0,0.0,0.0,0.0,0.0,0.0,0.0,0.0,0.0,0.0,0.0,0.0,0.0,0.0,0.0,0.0,0.0,0.0,0.0,0.0,0.0,0.0,0.0,0.0,0.0,0.0,0.0,0.0,0.0,0.0,0.0,0.0,0.0,0.0,0.0,0.0,0.0,0.0,0.0,0.0,0.0,0.0,0.0,0.0,0.0,0.0,0.0,0.0,0.0,0.0,0.0,0.0,0.0,0.0,0.0,0.0,0.0,0.0,0.0,0.0,0.0,0.0,0.0,0.0,0.0,0.0,0.0,0.0,0.0,0.0,0.3786,0.0,0.4396,0.0,0.4315,0.4114,0.0,0.0,0.0,0.0,0.0,0.0,0.0,0.0,0.0,0.0,0.0,0.0,0.0,0.0,0.0,0.0,0.0,0.0,0.0,0.0,0.0,0.0,0.0,0.0,0.0,0.0,0.0,0.0,0.0,0.0,0.0,0.0,0.0,0.0,0.0,0.0,0.0,0.0,0.0,0.0,0.0,0.0,0.0,0.0,0.0,0.0,0.0,0.0,0.0,0.0,0.0,0.0,0.0,0.0,0.0,0.0,0.0,0.0,0.0,0.0,0.0,0.0,0.0,0.0,0.0,0.0,0.0,0.0,0.0,0.0,0.0,0.0,0.0,0.0,0.0,0.0,0.0,0.0,0.0,0.0,0.0,0.0,0.0,0.0,0.0,0.0,0.0,0.0,0.0,0.0,0.0,0.0,0.0,0.0,0.0,0.0,0.0,0.0,0.0,0.0,0.0,0.0,0.0,0.0,0.0,0.0,0.0,0.0,0.3791,0.4349,0.4648,0.4668,0.4416,0.4396,0.4109,0.0,0.0,0.0,0.0,0.0,0.0,0.0,0.0,0.0,0.0,0.0,0.0,0.0,0.0,0.0,0.0,0.0,0.0,0.0,0.0,0.0,0.0,0.0,0.0,0.0,0.0,0.0,0.0,0.0,0.0,0.0,0.0,0.0,0.0,0.0,0.0,0.0,0.0,0.0,0.0,0.0,0.0,0.0,0.0,0.0,0.0,0.0,0.0,0.0,0.0,0.0,0.0,0.0,0.0,0.0,0.0,0.0,0.0,0.0,0.0,0.0,0.0,0.0,0.0,0.0,0.0,0.0,0.0,0.0,0.0,0.0,0.0,0.0,0.0,0.0,0.0,0.0,0.0,0.0,0.0,0.0,0.0,0.0,0.0,0.0,0.0,0.0,0.0,0.0,0.0,0.0,0.0,0.0,0.0,0.0,0.0,0.0,0.0,0.0,0.0,0.0,0.0,0.0,0.0,0.0,0.0,0.0,0.0,0.0,0.4127,0.4576,0.4875,0.4998,0.4435,0.4202,0.0,0.0,0.0,0.0,0.0,0.0,0.0,0.0,0.0,0.0,0.0,0.0,0.0,0.0,0.0,0.0,0.0,0.0,0.0,0.0,0.0,0.0,0.0,0.0,0.0,0.0,0.0,0.0,0.0,0.0,0.0,0.0,0.0,0.0,0.0,0.0,0.0,0.0,0.0,0.0,0.0,0.0,0.0,0.0,0.0,0.0,0.0,0.0,0.0,0.0,0.0,0.0,0.0,0.0,0.0,0.0,0.0,0.0,0.0,0.0,0.0,0.0,0.0,0.0,0.0,0.0,0.0,0.0,0.0,0.0,0.0,0.0,0.0,0.0,0.0,0.0,0.0,0.0,0.0,0.0,0.0,0.0,0.0,0.0,0.0,0.0,0.0,0.0,0.0,0.0,0.0,0.0,0.0,0.0,0.0,0.0,0.0,0.0,0.0,0.0,0.0,0.0,0.0,0.0,0.0,0.0,0.0,0.0,0.0,0.4643,0.4962,0.5182,0.5309,0.4664,0.4369,0.4469,0.0,0.0,0.0,0.0,0.0,0.0,0.0,0.0,0.0,0.0,0.0,0.0,0.0,0.0,0.0,0.0,0.0,0.0,0.0,0.0,0.0,0.0,0.0,0.0,0.0,0.0,0.0,0.0,0.0,0.0,0.0,0.0,0.0,0.0,0.0,0.0,0.0,0.0,0.0,0.0,0.0,0.0,0.0,0.0,0.0,0.0,0.0,0.0,0.0,0.0,0.0,0.0,0.0,0.0,0.0,0.0,0.0,0.0,0.0,0.0,0.0,0.0,0.0,0.0,0.0,0.0,0.0,0.0,0.0,0.0,0.0,0.0,0.0,0.0,0.0,0.0,0.0,0.0,0.0,0.0,0.0,0.0,0.0,0.0,0.0,0.0,0.0,0.0,0.0,0.0,0.0,0.0,0.0,0.0,0.0,0.0,0.0,0.0,0.0,0.0,0.0,0.0,0.0,0.0,0.0,0.0,0.0,0.0,0.5734,0.5783,0.5676,0.5414,0.5027,0.4596,0.0,0.0,0.0,0.0,0.0,0.0,0.0,0.0,0.0,0.0,0.0,0.0,0.0,0.0,0.0,0.0,0.0,0.0,0.0,0.0,0.0,0.0,0.0,0.0,0.0,0.0,0.0,0.0,0.0,0.0,0.0,0.0,0.0,0.0,0.0,0.0,0.0,0.0,0.0,0.0,0.0,0.0,0.0,0.0,0.0,0.0,0.0,0.0,0.0,0.0,0.0,0.0,0.0,0.0,0.0,0.0,0.0,0.0,0.0,0.0,0.0,0.0,0.0,0.0,0.0,0.0,0.0,0.0,0.0,0.0,0.0,0.0,0.0,0.0,0.0,0.0,0.0,0.0,0.0,0.0,0.0,0.0,0.0,0.0,0.0,0.0,0.0,0.0,0.0,0.0,0.0,0.0,0.0,0.0,0.0,0.0,0.0,0.0,0.0,0.0,0.0,0.0,0.0,0.0,0.0,0.0,0.0,0.0,0.0,0.6339,0.6801,0.6888,0.655,0.565,0.512,0.0,0.0,0.0,0.0,0.0,0.0,0.0,0.0,0.0,0.0,0.0,0.0,0.0,0.0,0.0,0.0,0.0,0.0,0.0,0.0,0.0,0.0,0.0,0.0,0.0,0.0,0.0,0.0,0.0,0.0,0.0,0.0,0.0,0.0,0.0,0.0,0.0,0.0,0.0,0.0,0.0,0.0,0.0,0.0,0.0,0.0,0.0,0.0,0.0,0.0,0.0,0.0,0.0,0.0,0.0,0.0,0.0,0.0,0.0,0.0,0.0,0.0,0.0,0.0,0.0,0.0,0.0,0.0,0.0,0.0,0.0,0.0,0.0,0.0,0.0,0.0,0.0,0.0,0.0,0.0,0.0,0.0,0.0,0.0,0.0,0.0,0.0,0.0,0.0,0.0,0.0,0.0,0.0,0.0,0.0,0.0,0.0,0.0,0.0,0.0,0.0,0.0,0.0,0.0,0.0,0.0,0.0,0.0,0.6106,0.6972,0.7437,0.7653,0.7589,0.6576,0.5796,0.0,0.0,0.0,0.0,0.0,0.0,0.0,0.0,0.0,0.0,0.0,0.0,0.0,0.0,0.0,0.0,0.0,0.0,0.0,0.0,0.0,0.0,0.0,0.0,0.0,0.0,0.0,0.0,0.0,0.0,0.0,0.0,0.0,0.0,0.0,0.0,0.0,0.0,0.0,0.0,0.0,0.0,0.0,0.0,0.0,0.0,0.0,0.0,0.0,0.0,0.0,0.0,0.0,0.0,0.0,0.0,0.0,0.0,0.0,0.0,0.0,0.0,0.0,0.0,0.0,0.0,0.0,0.0,0.0,0.0,0.0,0.0,0.0,0.0,0.0,0.0,0.0,0.0,0.0,0.0,0.0,0.0,0.0,0.0,0.0,0.0,0.0,0.0,0.0,0.0,0.0,0.0,0.0,0.0,0.0,0.0,0.0,0.0,0.0,0.0,0.0,0.0,0.0,0.0,0.0,0.0,0.0,0.0,0.67,0.7529,0.7831,0.8124,0.8362,0.7495,0.6487,0.0,0.0,0.0,0.0,0.0,0.0,0.0,0.0,0.0,0.0,0.0,0.0,0.0,0.0,0.0,0.0,0.0,0.0,0.0,0.0,0.0,0.0,0.0,0.0,0.0,0.0,0.0,0.0,0.0,0.0,0.0,0.0,0.0,0.0,0.0,0.0,0.0,0.0,0.0,0.0,0.0,0.0,0.0,0.0,0.0,0.0,0.0,0.0,0.0,0.0,0.0,0.0,0.0,0.0,0.0,0.0,0.0,0.0,0.0,0.0,0.0,0.0,0.0,0.0,0.0,0.0,0.0,0.0,0.0,0.0,0.0,0.0,0.0,0.0,0.0,0.0,0.0,0.0,0.0,0.0,0.0,0.0,0.0,0.0,0.0,0.0,0.0,0.0,0.0,0.0,0.0,0.0,0.0,0.0,0.0,0.0,0.0,0.0,0.0,0.0,0.0,0.0,0.0,0.0,0.0,0.0,0.0,0.0,0.7161,0.7799,0.8325,0.8537,0.8402,0.7484,0.6687,0.0,0.0,0.0,0.0,0.0,0.0,0.0,0.0,0.0,0.0,0.0,0.0,0.0,0.0,0.0,0.0,0.0,0.0,0.0,0.0,0.0,0.0,0.0,0.0,0.0,0.0,0.0,0.0,0.0,0.0,0.0,0.0,0.0,0.0,0.0,0.0,0.0,0.0,0.0,0.0,0.0,0.0,0.0,0.0,0.0,0.0,0.0,0.0,0.7099,0.0,0.0,0.0,0.0,0.0,0.0,0.0,0.0,0.0,0.0,0.0,0.0,0.0,0.0,0.0,0.0,0.0,0.0,0.0,0.0,0.0,0.0,0.0,0.0,0.0,0.0,0.0,0.0,0.0,0.0,0.0,0.0,0.0,0.0,0.0,0.0,0.0,0.0,0.0,0.0,0.0,0.0,0.0,0.0,0.0,0.0,0.0,0.0,0.0,0.0,0.0,0.0,0.0,0.0,0.0,0.0,0.0,0.0,0.0,0.7522,0.813,0.8564,0.8731,0.857,0.7819,0.709,0.0,0.0,0.0,0.0,0.0,0.0,0.0,0.0,0.0,0.0,0.0,0.0,0.0,0.0,0.0,0.0,0.0,0.0,0.0,0.0,0.0,0.0,0.0,0.0,0.0,0.0,0.0,0.0,0.0,0.0,0.0,0.0,0.0,0.0,0.0,0.0,0.0,0.0,0.0,0.0,0.0,0.0,0.0,0.0,0.0,0.0,0.0,0.0,0.0,0.0,0.0,0.0,0.0,0.0,0.0,0.0,0.0,0.0,0.0,0.0,0.0,0.0,0.0,0.0,0.0,0.0,0.0,0.0,0.0,0.0,0.0,0.0,0.0,0.0,0.0,0.0,0.0,0.0,0.0,0.0,0.0,0.0,0.0,0.0,0.0,0.0,0.0,0.0,0.0,0.0,0.0,0.0,0.0,0.0,0.0,0.0,0.0,0.0,0.0,0.0,0.0,0.0,0.0,0.0,0.0,0.0,0.0,0.6971,0.7806,0.8442,0.8677,0.8791,0.8784,0.8271,0.7564,0.6697,0.0,0.0,0.0,0.0,0.0,0.0,0.0,0.0,0.0,0.0,0.0,0.0,0.0,0.0,0.0,0.0,0.0,0.0,0.0,0.0,0.0,0.0,0.0,0.0,0.0,0.0,0.0,0.0,0.0,0.0,0.0,0.0,0.0,0.0,0.0,0.0,0.0,0.0,0.6716,0.7937,0.0,0.0,0.0,0.0,0.0,0.0,0.0,0.0,0.7547,0.0,0.0,0.0,0.0,0.0,0.0,0.0,0.0,0.0,0.0,0.0,0.0,0.0,0.0,0.0,0.0,0.0,0.0,0.0,0.0,0.0,0.0,0.0,0.0,0.0,0.0,0.0,0.0,0.0,0.0,0.0,0.0,0.0,0.0,0.0,0.0,0.0,0.0,0.0,0.0,0.0,0.0,0.0,0.0,0.0,0.0,0.0,0.0,0.0,0.0,0.0,0.0,0.0,0.0,0.0,0.0,0.7187,0.7408,0.7911,0.8711,0.8771,0.8791,0.8784,0.8477,0.7876,0.6953,0.0,0.0,0.0,0.0,0.0,0.0,0.0,0.0,0.0,0.0,0.0,0.0,0.0,0.0,0.0,0.0,0.0,0.0,0.0,0.0,0.0,0.0,0.0,0.0,0.0,0.0,0.0,0.0,0.0,0.0,0.0,0.0,0.0,0.0,0.0,0.0,0.0,0.0,0.0,0.9678,1.0391,0.0,0.0,0.0,0.0,0.0,0.0,0.0,0.0,0.7554,0.0,0.0,0.0,0.0,0.0,0.0,0.0,0.0,0.0,0.0,0.0,0.0,0.0,0.0,0.0,0.0,0.0,0.0,0.0,0.0,0.0,0.0,0.0,0.0,0.0,0.0,0.0,0.0,0.0,0.0,0.0,0.0,0.0,0.0,0.0,0.0,0.0,0.0,0.0,0.0,0.0,0.0,0.0,0.0,0.0,0.0,0.0,0.0,0.0,0.0,0.0,0.0,0.0,0.0,0.0,0.6961,0.748,0.8063,0.8764,0.8791,0.8791,0.8778,0.8235,0.7629,0.0,0.0,0.0,0.0,0.0,0.0,0.0,0.0,0.0,0.0,0.0,0.0,0.0,0.0,0.0,0.0,0.0,0.0,0.0,0.0,0.0,0.0,0.0,0.0,0.0,0.0,0.0,0.0,0.0,0.0,0.0,0.0,0.0,0.0,0.0,0.0,0.0,0.0,0.0,0.0,1.0039,1.0576,1.0605,0.0,0.0,0.0,0.0,0.0,0.0,0.8745,0.8301,0.0,0.0,0.0,0.0,0.0,0.0,0.0,0.0,0.0,0.0,0.0,0.0,0.0,0.0,0.0,0.0,0.0,0.0,0.0,0.0,0.0,0.0,0.0,0.0,0.0,0.0,0.0,0.0,0.0,0.0,0.0,0.0,0.0,0.0,0.0,0.0,0.0,0.0,0.0,0.0,0.0,0.0,0.0,0.0,0.0,0.0,0.0,0.0,0.0,0.0,0.0,0.0,0.0,0.0,0.0,0.6667,0.7479,0.8192,0.8764,0.8652,0.8573,0.856,0.7774,0.7152,0.0,0.0,0.0,0.0,0.0,0.0,0.0,0.0,0.0,0.0,0.0,0.0,0.0,0.0,0.0,0.0,0.0,0.0,0.0,0.0,0.0,0.0,0.0,0.0,0.0,0.0,0.0,0.0,0.0,0.0,0.0,0.0,0.0,0.0,0.0,0.0,0.0,0.0,0.0,0.0,0.0,1.088,1.1026,1.0772,0.0,0.0,0.0,0.0,0.9991,0.9659,0.0,0.0,0.0,0.0,0.0,0.0,0.0,0.0,0.0,0.0,0.0,0.0,0.0,0.0,0.0,0.0,0.0,0.0,0.0,0.0,0.0,0.0,0.0,0.0,0.0,0.0,0.0,0.0,0.0,0.0,0.0,0.0,0.0,0.0,0.0,0.0,0.0,0.0,0.0,0.0,0.0,0.0,0.0,0.0,0.0,0.0,0.0,0.0,0.0,0.0,0.0,0.0,0.0,0.0,0.0,0.0,0.693,0.7568,0.8199,0.8745,0.815,0.7817,0.7817,0.7081,0.6523,0.0,0.0,0.0,0.0,0.0,0.0,0.0,0.0,0.0,0.0,0.0,0.0,0.0,0.0,0.0,0.0,0.0,0.0,0.0,0.0,0.0,0.0,0.0,0.0,0.0,0.0,0.0,0.0,0.0,0.0,0.0,0.0,0.0,0.0,0.0,0.0,0.0,0.0,0.0,0.0,0.0,1.2338,1.1615,1.1468,1.1292,0.0,0.0,1.0898,1.1301,1.0987,0.0,0.0,0.0,0.0,0.0,0.0,0.0,0.0,0.0,0.0,0.0,0.0,0.0,0.0,0.0,0.0,0.0,0.0,0.0,0.0,0.0,0.0,0.0,0.0,0.0,0.0,0.0,0.0,0.0,0.0,0.0,0.0,0.0,0.0,0.0,0.0,0.0,0.0,0.0,0.0,0.0,0.0,0.0,0.0,0.0,0.0,0.0,0.0,0.0,0.0,0.0,0.0,0.0,0.0,0.0,0.5832,0.6431,0.7184,0.7575,0.7545,0.7235,0.7074,0.7061,0.6368,0.5983,0.0,0.0,0.0,0.0,0.0,0.0,0.0,0.0,0.0,0.0,0.0,0.0,0.0,0.0,0.0,0.0,0.0,0.0,0.0,0.0,0.0,0.0,0.0,0.0,0.0,0.0,0.0,0.0,0.0,0.0,0.0,0.0,0.0,0.0,0.0,0.0,0.0,0.0,0.0,0.0,0.0,0.0,1.233,1.2111,0.0,0.0,0.0,1.1925,1.1634,0.0,0.0,0.0,0.0,0.0,0.0,0.0,0.0,0.0,0.0,0.0,0.0,0.0,0.0,0.0,0.0,0.0,0.0,0.0,0.0,0.0,0.0,0.0,0.0,0.0,0.0,0.0,0.0,0.0,0.0,0.0,0.0,0.0,0.0,0.0,0.0,0.0,0.0,0.0,0.0,0.0,0.0,0.0,0.0,0.0,0.0,0.0,0.0,0.0,0.0,0.0,0.0,0.0,0.0,0.0,0.0,0.0,0.5835,0.6685,0.6949,0.6605,0.6426,0.6321,0.6303,0.5578,0.0,0.0,0.0,0.0,0.0,0.0,0.0,0.0,0.0,0.0,0.0,0.0,0.0,0.0,0.0,0.0,0.0,0.0,0.0,0.0,0.0,0.0,0.0,0.0,0.0,0.0,0.0,0.0,0.0,0.0,0.0,0.0,0.0,0.0,0.0,0.0,0.0,0.0,0.0,0.0,0.0,0.0,1.1974,1.2627,1.2539,1.2408,0.0,0.0,1.2709,1.2162,1.2543,1.2347,0.0,0.0,0.0,0.0,0.0,0.0,0.0,0.0,0.0,0.0,0.0,0.0,0.0,0.0,0.0,0.0,0.0,0.0,0.0,0.0,0.0,0.0,0.0,0.0,0.0,0.0,0.0,0.0,0.0,0.0,0.0,0.0,0.0,0.0,0.0,0.0,0.0,0.0,0.0,0.0,0.0,0.0,0.0,0.0,0.0,0.0,0.0,0.0,0.0,0.0,0.0,0.0,0.0,0.0,0.0,0.5356,0.621,0.6627,0.6561,0.591,0.5583,0.5565,0.4748,0.4509,0.0,0.0,0.0,0.0,0.0,0.0,0.0,0.0,0.0,0.0,0.0,0.0,0.0,0.0,0.0,0.0,0.0,0.0,0.0,0.0,0.0,0.0,0.0,0.0,0.0,0.0,0.0,0.0,0.0,0.0,0.0,0.0,0.0,0.0,0.0,0.0,0.0,0.0,0.0,0.0,0.0,1.2184,1.2231,1.2598,1.2991,0.0,0.0,1.301,1.333,1.3108,1.2443,1.1084,0.0,0.0,0.0,0.0,0.0,0.0,0.0,0.0,0.0,0.0,0.0,0.0,0.0,0.0,0.0,0.0,0.0,0.0,0.0,0.0,0.0,0.0,0.0,0.0,0.0,0.0,0.0,0.0,0.0,0.0,0.0,0.0,0.0,0.0,0.0,0.0,0.0,0.0,0.0,0.0,0.0,0.0,0.0,0.0,0.0,0.0,0.0,0.0,0.0,0.0,0.0,0.0,0.0,0.461,0.4635,0.5483,0.5728,0.5308,0.5034,0.4893,0.4883,0.436,0.4193,0.0,0.0,0.0,0.0,0.0,0.0,0.0,0.0,0.0,0.0,0.0,0.0,0.0,0.0,0.0,0.0,0.0,0.0,0.0,0.0,0.0,0.0,0.0,0.0,0.0,0.0,0.0,0.0,0.6154,0.6106,0.5596,0.0,0.0,0.0,0.0,0.0,0.0,0.0,0.0,0.0,0.0,1.2703,1.2966,1.3376,0.0,0.0,1.3984,1.3926,1.3555,1.3581,1.3103,1.1573,1.1417,0.0,0.0,0.0,0.0,0.0,0.0,0.0,0.0,0.0,0.0,0.0,0.0,0.0,0.0,0.0,0.0,0.0,0.0,0.0,0.0,0.0,0.0,0.0,0.0,0.0,0.0,0.0,0.0,0.0,0.0,0.0,0.0,0.0,0.0,0.0,0.0,0.0,0.0,0.0,0.0,0.0,0.0,0.0,0.0,0.0,0.0,0.0,0.0,0.0,0.0,0.0,0.0,0.4102,0.4019,0.4804,0.4976,0.4519,0.4491,0.4491,0.4481,0.4219,0.4115,0.0,0.0,0.0,0.0,0.0,0.0,0.0,0.0,0.0,0.0,0.0,0.0,0.0,0.0,0.0,0.0,0.0,0.0,0.0,0.0,0.0,0.0,0.0,0.0,0.0,0.0,0.0,0.0,0.6594,0.6392,0.5573,0.0,0.0,0.0,0.0,0.0,0.0,0.0,0.0,0.0,0.0,1.2516,1.3384,1.3634,1.3874,1.4253,1.4365,1.4238,1.3747,1.3825,1.3422,1.2013,0.0,0.0,0.0,0.0,0.0,0.0,0.0,0.0,0.0,0.0,0.0,0.0,0.0,0.0,0.0,0.0,0.0,0.0,0.0,0.0,0.0,0.0,0.0,0.0,0.0,0.0,0.0,0.0,0.0,0.0,0.2243,0.0,0.0,0.0,0.0,0.0,0.0,0.0,0.0,0.0,0.0,0.0,0.0,0.0,0.0,0.0,0.0,0.0,0.0,0.0,0.0,0.0,0.0,0.3313,0.3618,0.4242,0.4515,0.4491,0.4491,0.4491,0.4487,0.4304,0.4249,0.4381,0.0,0.0,0.0,0.0,0.0,0.0,0.0,0.0,0.0,0.0,0.0,0.0,0.0,0.0,0.0,0.0,0.0,0.0,0.0,0.0,0.0,0.0,0.0,0.0,0.0,0.0,0.6445,0.6055,0.5567,0.0,0.0,0.0,0.0,0.0,0.0,0.0,0.0,0.0,0.0,1.0625,1.1358,1.3205,1.3171,1.341,1.4578,1.4075,1.3675,1.4019,1.3773,1.3223,0.0,0.0,0.0,0.0,0.0,0.0,0.0,0.0,0.0,0.0,0.0,0.0,0.0,0.0,0.0,0.0,0.0,0.0,0.0,0.0,0.0,0.0,0.0,0.0,0.0,0.0,0.0,0.259,0.2478,0.0,0.0,0.0,0.0,0.0,0.0,0.0,0.0,0.0,0.0,0.0,0.3701,0.427,0.0,0.0,0.0,0.0,0.0,0.0,0.0,0.0,0.0,0.0,0.0,0.0,0.3398,0.3727,0.4225,0.4491,0.4491,0.4491,0.4491,0.4491,0.4311,0.4136,0.4012,0.0,0.0,0.0,0.0,0.0,0.0,0.0,0.0,0.0,0.0,0.0,0.0,0.0,0.0,0.0,0.0,0.0,0.0,0.0,0.0,0.0,0.0,0.0,0.0,0.0,0.7271,0.0,0.0,0.0,0.0,0.0,0.0,0.0,0.0,0.0,0.0,0.0,0.9648,1.0248,1.1446,1.2311,1.2434,1.3215,1.3731,0.0,0.0,0.0,0.0,0.0,0.0,0.0,0.0,0.0,0.0,0.0,0.0,0.0,0.0,1.2305,1.0596,1.0156,1.0195,1.0615,0.0,0.0,0.0,0.0,0.0,0.0,0.0,0.0,0.0,0.0,0.0,0.0,0.0,0.0,0.3056,0.0,0.294,0.0,0.0,0.0,0.0,0.0,0.0,0.0,0.0,0.3596,0.3741,0.3819,0.4239,0.4362,0.0,0.4191,0.4051,0.0,0.0,0.0,0.0,0.0,0.0,0.0,0.0,0.3488,0.3858,0.4286,0.4491,0.4491,0.4491,0.4491,0.4487,0.4311,0.4102,0.3884,0.4215,0.4126,0.0,0.0,0.0,0.0,0.0,0.0,0.0,0.0,0.0,0.0,0.0,0.0,0.0,0.0,0.0,0.0,0.0,0.0,0.0,0.0,0.0,0.0,0.0,0.7351,0.0,0.0,0.0,0.0,0.0,0.0,0.0,0.0,0.0,0.8715,0.9227,0.9744,1.0307,1.135,1.2058,1.2078,0.0,0.0,0.0,0.0,0.0,0.0,0.0,1.3596,1.3108,1.3227,1.3328,1.3105,1.3402,1.3732,1.3909,0.0,0.0,1.1994,1.1515,1.1544,1.1942,1.2476,1.2893,1.3074,1.3659,1.4092,0.0,0.0,0.0,0.0,0.0,0.0,0.0,0.0,0.3602,0.3503,0.0,0.3392,0.0,0.0,0.0,0.0,0.0,0.3712,0.0,0.0,0.4272,0.4402,0.4244,0.4423,0.4416,0.4247,0.4419,0.4265,0.3808,0.3242,0.0,0.0,0.0,0.0,0.0,0.0,0.3552,0.3994,0.4327,0.4491,0.4491,0.4491,0.4491,0.4487,0.4314,0.4143,0.4029,0.4272,0.4191,0.3664,0.4276,0.0,0.0,0.0,0.0,0.0,0.0,0.0,0.0,0.0,0.0,0.0,0.0,0.0,0.0,0.0,0.0,0.0,0.0,0.0,0.0,0.6519,0.0,0.0,0.0,0.0,0.0,0.0,0.0,0.0,0.0,0.0,0.9206,0.9485,0.9857,1.0555,0.0,0.0,0.0,0.0,1.2097,1.2821,1.2867,1.2722,1.2471,1.2869,1.2993,1.2315,0.0,0.0,1.3395,1.3723,1.4129,1.4667,1.5056,1.5128,1.426,1.3747,1.3659,1.4036,1.4147,1.4319,1.476,1.5117,1.542,0.1678,0.0,0.0,0.0,0.0,0.2883,0.321,0.3412,0.3856,0.3959,0.3805,0.3829,0.0,0.0,0.0,0.0,0.0,0.0,0.4002,0.4296,0.4433,0.4586,0.4713,0.4754,0.4693,0.4554,0.4609,0.445,0.4095,0.3923,0.3535,0.3012,0.0,0.0,0.0,0.0,0.3908,0.4149,0.4382,0.4491,0.4491,0.4491,0.4491,0.4491,0.445,0.4331,0.415,0.4628,0.4666,0.4214,0.4852,0.0,0.0,0.0,0.0,0.0,0.0,0.0,0.0,0.0,0.0,0.0,0.0,0.0,0.0,0.0,0.0,0.0,0.0,0.0,0.6867,0.6674,0.6589,0.0,0.0,0.0,0.0,0.0,0.0,0.0,0.0,0.0,0.9771,0.9747,0.9741,0.0,0.0,1.0985,1.1123,1.1654,1.2021,1.1893,1.2341,0.0,1.2638,1.2948,1.3236,1.3364,1.3567,1.3697,1.3757,1.3838,1.3984,1.416,1.4782,1.5228,1.5038,1.4905,1.5006,1.54,1.5522,1.5654,1.6059,1.6264,1.6326,0.0772,0.1008,0.1589,0.1877,0.1995,0.2433,0.2713,0.2894,0.3241,0.3356,0.3319,0.3675,0.3724,0.3552,0.3882,0.0,0.0,0.0,0.4399,0.4672,0.4657,0.4741,0.4896,0.4918,0.4855,0.4785,0.4767,0.4673,0.4469,0.4486,0.4209,0.3678,0.0,0.0,0.3664,0.3878,0.4111,0.4314,0.4447,0.4491,0.4491,0.4491,0.4491,0.4491,0.4491,0.4447,0.4338,0.4685,0.4836,0.4759,0.5184,0.5248,0.0,0.0,0.0,0.0,0.0,0.0,0.0,0.0,0.0,0.0,0.0,0.4369,0.0,0.0,0.0,0.0,0.518,0.613,0.7152,0.6951,0.0,0.0,0.0,0.0,0.0,0.0,0.0,0.8893,0.9267,0.9597,1.0052,1.0178,1.0222,1.0222,1.0773,1.1099,1.0936,0.0,1.1771,1.1447,1.1954,1.2332,1.2211,1.2548,1.295,1.3213,1.3261,1.3441,1.3785,1.3819,1.4085,1.4816,1.5421,1.5921,1.6294,1.6402,1.6377,1.6348,1.6496,1.6695,1.6937,1.7103,1.723,-0.0047,0.0124,0.1455,0.202,0.2027,0.2089,0.2119,0.2119,0.2181,0.2197,0.2274,0.3103,0.3415,0.335,0.4133,0.0,0.4507,0.464,0.4674,0.4702,0.4706,0.4712,0.4734,0.471,0.4761,0.4797,0.4813,0.4852,0.4899,0.4899,0.4775,0.4522,0.4099,0.4005,0.4177,0.4105,0.4189,0.4484,0.4487,0.4491,0.4491,0.4491,0.4491,0.4491,0.4491,0.4491,0.4487,0.4491,0.4721,0.5193,0.5301,0.534,0.533,0.0,0.0,0.0,0.0,0.0,0.0,0.0,0.0,0.0,0.0,0.0,0.0,0.0,0.0,0.0,0.5742,0.0,0.703,0.7306,0.0,0.0,0.0,0.7401,0.8275,0.8418,0.8871,0.9945,0.0,0.0,1.0105,1.0628,1.1025,1.1039,1.1029,1.1136,1.1406,1.1456,1.1435,1.1506,1.173,1.1821,1.1686,1.202,1.2364,1.2391,1.2305,1.265,1.3357,1.3538,1.4327,1.5651,1.628,1.6532,1.7457,1.7398,1.7552,1.677,1.7084,1.7438,1.7468,1.7744,1.7991,-0.0593,0.0017,0.038,0.0514,0.057,0.1123,0.1353,0.1399,0.1967,0.2197,0.2213,0.2426,0.2524,0.249,0.2702,0.2792,0.2794,0.2829,0.2925,0.3066,0.3068,0.3135,0.3213,0.3232,0.3517,0.4032,0.4061,0.4363,0.4891,0.4918,0.4869,0.4794,0.4686,0.4486,0.422,0.4321,0.4419,0.4491,0.4491,0.4491,0.4491,0.4491,0.4491,0.4491,0.4491,0.4491,0.4491,0.4491,0.457,0.4701,0.5317,0.5683,0.5691,0.5556,0.0,0.0,0.0,0.0,0.0,0.0,0.0,0.0,0.0,0.5439,0.4469,0.0,0.5954,0.0,0.6433,0.705,0.7614,0.735,0.0,0.0,0.7837,0.8027,0.8888,0.9005,0.922,0.9732,0.9967,1.0105,1.0105,1.0628,1.1076,1.1272,1.1306,1.1412,1.171,1.1781,1.1868,1.2037,1.2138,1.2171,1.2098,1.2198,1.2305,1.2305,1.2305,1.2397,1.2618,1.2629,1.2806,1.3284,1.3929,1.4432,1.4798,1.5322,1.607,1.653,1.7275,1.7861,1.7871,1.8176,1.8461,-0.1827,-0.1342,-0.0889,-0.0719,-0.0631,0.0227,0.061,0.0642,0.1041,0.1216,0.1249,0.163,0.2028,0.2423,0.2425,0.2431,0.2417,0.2424,0.2466,0.2583,0.2586,0.2622,0.2678,0.2678,0.2918,0.3317,0.3315,0.3517,0.3916,0.4313,0.4476,0.4417,0.4808,0.4842,0.4519,0.464,0.4681,0.4681,0.4613,0.4559,0.4505,0.4491,0.4491,0.4491,0.4491,0.4491,0.4491,0.4491,0.473,0.5223,0.5612,0.6035,0.6503,0.6284,0.6041,0.0,0.0,0.0,0.0,0.0,0.0,0.0,0.0,0.0,0.0,0.0,0.663,0.6767,0.7172,0.7634,0.8258,0.8105,0.8238,0.8904,0.8811,0.8945,0.9537,0.9589,0.9732,1.0055,1.0236,1.0367,1.0479,1.0879,1.1279,1.1566,1.1737,1.1877,1.2042,1.2082,1.2136,1.2278,1.2305,1.2305,1.2305,1.2305,1.2305,1.2305,1.2305,1.2305,1.2305,1.2305,1.2427,1.2861,1.3364,1.3872,1.4296,1.4772,1.5393,1.5869,1.6475,1.7207,1.8083,1.8598,1.8926,-0.3212,-0.3014,-0.2016,-0.1581,-0.1522,-0.0451,0.0,0.0,0.0,0.0,0.0,0.0814,0.1596,0.2327,0.236,0.2362,0.2351,0.2354,0.2347,0.2362,0.2353,0.2356,0.2357,0.2348,0.2426,0.2511,0.2509,0.2594,0.2711,0.3463,0.383,0.3854,0.4577,0.4971,0.4967,0.4957,0.4928,0.4903,0.4804,0.4675,0.4536,0.4518,0.4511,0.4505,0.4491,0.4491,0.4491,0.4491,0.4965,0.5899,0.5885,0.6315,0.7296,0.6963,0.672,0.0,0.6412,0.0,0.0,0.0,0.0,0.0,0.0,0.0,0.0,0.71,0.7332,0.7643,0.7904,0.8298,0.8871,0.9131,0.9371,0.9667,0.9727,0.984,1.0087,1.0132,1.0289,1.0559,1.0626,1.0731,1.0958,1.1276,1.159,1.1841,1.2084,1.2251,1.2298,1.2273,1.2285,1.2305,1.2305,1.2305,1.2305,1.2305,1.2305,1.2305,1.2305,1.2305,1.2305,1.2305,1.2574,1.3255,1.3426,1.3738,1.4683,1.4786,1.4864,1.4984,1.5344,1.6231,1.7863,1.8707,1.9199,-0.379,-0.3014,-0.2016,-0.1581,-0.1507,-0.0433,0.0,0.0,0.0,0.0,0.0,0.0179,0.036,0.0506,0.0503,0.0487,0.0509,0.0522,0.0521,0.0523,0.0511,0.0505,0.0521,0.051,0.089,0.1524,0.1558,0.1959,0.2694,0.2861,0.3303,0.3952,0.4133,0.4572,0.5261,0.0,0.0,0.0,0.4887,0.4802,0.4668,0.4661,0.4617,0.4494,0.4491,0.0,0.4491,0.4491,0.4601,0.4821,0.5649,0.0,0.0,0.0,0.0,0.0,0.0,0.0,0.0,0.0,0.0,0.0,0.7319,0.7108,0.7026,0.7695,0.8256,0.853,0.8791,0.9104,0.9486,0.958,0.9634,0.9701,0.9908,1.006,1.0105,1.0327,1.0533,1.0586,1.0794,1.0945,1.1022,1.1484,1.1815,1.1902,1.2136,1.2291,1.2305,1.2305,1.2305,1.2305,1.2305,1.2305,1.2305,1.2305,1.2305,1.2305,1.2305,1.2305,1.2305,1.2305,1.2305,1.2606,1.2574,1.2636,1.2874,1.3075,1.3516,1.3888,1.471,1.5793,1.717,1.8017,1.8749,-0.5121,0.0,-0.3561,-0.3127,0.0,-0.1453,-0.0793,-0.0755,-0.0221,0.0,0.0,0.0,0.0,0.0,0.0,0.0,0.0,0.0,0.0,0.0,0.0,0.0,0.0,0.0,0.0209,0.0652,0.0652,0.0903,0.136,0.1809,0.2242,0.2678,0.3547,0.4234,0.4705,0.5176,0.5263,0.4995,0.4995,0.4899,0.4719,0.4708,0.4644,0.4512,0.4491,0.0,0.0,0.0,0.0,0.0,0.0,0.0,0.0,0.0,0.0,0.7603,0.7654,0.7677,0.7707,0.7816,0.8065,0.8505,0.8583,0.8389,0.7931,0.8603,0.9092,0.9225,0.9365,0.9579,0.9853,0.9915,0.996,1.0109,1.0263,1.035,1.0361,1.061,1.0747,1.066,1.0942,1.1186,1.1209,1.1577,1.1942,1.2064,1.2204,1.2305,1.2305,1.2305,1.2305,1.2305,1.2305,1.2305,1.2305,1.2305,1.2305,1.2305,1.2305,1.2305,1.2305,1.2305,1.2345,1.2497,1.2537,1.2577,1.2732,1.2898,1.3093,1.342,1.3995,1.4841,1.6051,1.7525,1.8776,-0.628,-0.6199,-0.514,-0.4708,-0.455,-0.266,-0.1763,-0.1524,0.0,0.0,0.0,0.0,0.0,0.0,0.0,0.0,0.0,0.0,0.0,0.0,0.0,0.0,0.0,0.0,0.0,0.0,0.0,0.0,0.0,0.0724,0.1157,0.1424,0.2794,0.3697,0.4048,0.4938,0.5317,0.5163,0.5153,0.5024,0.4779,0.4745,0.4671,0.4535,0.4515,0.4491,0.4491,0.4491,0.4661,0.4976,0.5104,0.5444,0.6064,0.6778,0.7279,0.7519,0.8196,0.8639,0.8691,0.9023,0.9237,0.927,0.9586,0.9547,0.8985,0.9406,0.9721,0.9768,0.976,0.9873,1.0167,1.0194,1.0287,1.0566,1.0586,1.0622,1.0682,1.0858,1.0941,1.0818,1.1189,1.1503,1.1493,1.1764,1.2031,1.2238,1.228,1.2305,1.2305,1.2305,1.2305,1.2305,1.2305,1.2305,1.2305,1.2305,1.2305,1.2305,1.2351,1.2378,1.2385,1.2378,1.2517,1.2798,1.285,1.2904,1.3133,1.324,1.3247,1.3227,1.3467,1.394,1.4948,1.695,1.8643,-0.628,-0.6219,-0.5137,-0.4708,-0.4611,-0.3398,-0.2405,-0.1508,-0.0467,0.0,0.0,0.0,0.0,0.0,0.0,0.0,0.0,0.0,0.0,0.0,0.0,0.0,0.0,0.0,0.0,0.0,0.0,0.0,0.0,0.0,0.0554,0.1257,0.1558,0.2459,0.3949,0.4941,0.5382,0.5365,0.5348,0.526,0.5042,0.4936,0.4801,0.4692,0.4559,0.4491,0.4491,0.4491,0.4522,0.4607,0.5128,0.5486,0.5608,0.6291,0.672,0.6786,0.7436,0.7966,0.829,0.8838,0.9317,0.9592,0.9886,0.9898,0.9599,0.9647,0.9793,1.002,1.0045,1.0174,1.0486,1.0533,1.0566,1.0609,1.06,1.0687,1.0912,1.1005,1.1089,1.1232,1.159,1.1815,1.1828,1.2062,1.2231,1.2291,1.2305,1.2305,1.2305,1.2305,1.2305,1.2305,1.2305,1.2305,1.2305,1.2305,1.2305,1.2305,1.2517,1.2656,1.2683,1.2683,1.2791,1.3086,1.2979,1.2978,1.3193,1.34,1.3447,1.334,1.3667,1.4012,1.4111,1.5901,1.7799,-0.628,-0.6238,-0.5767,-0.557,-0.5489,-0.4433,-0.3359,-0.2384,-0.1897,-0.1018,0.0,0.0,0.0,0.0,0.0,0.0,0.0,0.0,0.0,0.0,0.0,0.0,0.0,0.0,0.0,0.0,0.0,0.0,0.0,0.0,0.0222,0.0622,0.104,0.1976,0.3263,0.4201,0.4636,0.4655,0.5143,0.5304,0.5103,0.5036,0.4931,0.4801,0.4681,0.464,0.4707,0.4644,0.4614,0.4614,0.4893,0.5032,0.4983,0.5727,0.6165,0.6197,0.693,0.7662,0.827,0.9186,0.9825,1.0157,1.0296,1.0316,1.0189,1.0184,1.0244,1.0363,1.0494,1.0597,1.0613,1.0874,1.0992,1.0825,1.0952,1.1082,1.1216,1.14,1.148,1.1459,1.1806,1.2037,1.1902,1.2136,1.2305,1.2305,1.2305,1.2305,1.2305,1.2305,1.2305,1.2305,1.2305,1.2305,1.2305,1.2305,1.2305,1.2305,1.243,1.2584,1.273,1.279,1.2985,1.332,1.3293,1.3373,1.36,1.3767,1.3801,1.3774,1.3861,1.3995,1.4143,1.5299,1.7106,-0.628,-0.628,-0.628,-0.628,-0.6219,-0.5412,-0.4453,-0.3493,-0.3456,-0.2423,-0.0804,-0.0471,-0.0235,0.0,0.0,0.0,0.0,0.0,0.0,0.0,0.0,0.0,0.0,0.0,0.0,0.0,0.0,0.0,0.0,0.0,0.0,0.0,0.0873,0.1658,0.2409,0.3463,0.3996,0.4065,0.4921,0.5337,0.517,0.5136,0.5061,0.4938,0.4804,0.4784,0.4877,0.4806,0.4741,0.4759,0.4745,0.4705,0.4639,0.5232,0.5592,0.5662,0.6384,0.7335,0.8426,0.9425,1.0211,1.0667,1.0754,1.0787,1.0787,1.0787,1.0754,1.0734,1.0915,1.1012,1.0885,1.1142,1.1319,1.1119,1.1272,1.1412,1.1536,1.1737,1.1841,1.1679,1.2013,1.2223,1.2089,1.2176,1.2298,1.2305,1.2305,1.2305,1.2305,1.2305,1.2305,1.2305,1.2305,1.2305,1.2305,1.2305,1.2305,1.2305,1.2458,1.2652,1.2852,1.2945,1.3179,1.3587,1.3626,1.37,1.3988,1.4096,1.4062,1.4049,1.4083,1.4153,1.4531,1.5143,1.6511,-0.6303,-0.628,-0.6284,-0.628,-0.6284,-0.6167,-0.5518,-0.4638,-0.4552,-0.3923,-0.2743,-0.186,-0.0942,0.0,0.0,0.0,0.0,0.0,0.0,0.0,0.0,0.0,0.0,0.0,0.0,0.0,0.0,0.0,0.0,0.0,0.0,0.0,0.0873,0.1325,0.1625,0.3111,0.3982,0.4013,0.4921,0.5405,0.5348,0.519,0.5093,0.5092,0.4941,0.487,0.4938,0.4877,0.4882,0.4882,0.4882,0.4891,0.4874,0.4948,0.5003,0.5015,0.5706,0.6853,0.8562,0.9361,1.0075,1.088,1.1159,1.1275,1.1272,1.1278,1.1212,1.1049,1.1189,1.1339,1.1326,1.1399,1.1439,1.1386,1.1409,1.1513,1.1795,1.1886,1.1975,1.2211,1.2233,1.2285,1.2251,1.2278,1.2305,1.2305,1.2305,1.2305,1.2305,1.2305,1.2325,1.2318,1.2305,1.2311,1.2325,1.2305,1.2358,1.2378,1.2772,1.302,1.3147,1.3347,1.3647,1.3821,1.3807,1.3787,1.3975,1.4109,1.4109,1.4109,1.4166,1.4342,1.5213,1.5496,1.6245,-0.6426,-0.6406,-0.6426,-0.6426,-0.6426,-0.6426,-0.6215,-0.5904,-0.5883,-0.5292,-0.4302,-0.3774,-0.2598,-0.0941,-0.0294,0.0,0.0,0.0,0.0,0.0,0.0,0.0,0.0,0.0,0.0,0.0,0.0,0.0,0.0,0.0,0.0,0.0,0.0362,0.053,0.0673,0.2328,0.3228,0.3295,0.4672,0.5395,0.5388,0.5334,0.5283,0.527,0.5121,0.5091,0.5175,0.5078,0.5012,0.5028,0.5012,0.4972,0.4909,0.4968,0.5015,0.5081,0.5892,0.6782,0.7638,0.8931,0.9882,1.0331,1.1009,1.1159,1.0591,1.0693,1.0771,1.0755,1.1279,1.1623,1.1455,1.173,1.1859,1.1757,1.1819,1.1973,1.2104,1.2142,1.2196,1.2291,1.2305,1.2305,1.2305,1.2305,1.2305,1.2305,1.2305,1.2305,1.2305,1.2305,1.2403,1.2517,1.2444,1.2417,1.2531,1.2596,1.2651,1.2819,1.3033,1.3207,1.34,1.3514,1.372,1.4041,1.3961,1.3921,1.4069,1.4103,1.4109,1.4109,1.4109,1.4265,1.4692,1.4755,1.4998,-0.6835,-0.6576,-0.6556,-0.6552,-0.6552,-0.6556,-0.6617,-0.6692,-0.6722,-0.6256,-0.5549,-0.5111,-0.4034,-0.2452,-0.1062,-0.0294,0.0,0.0,0.0,0.0,0.0,0.0,0.0,0.0,0.0,0.0,0.0,0.0,0.0,0.0,0.0,0.0,0.0,0.0,0.0,0.1567,0.232,0.2487,0.4102,0.5007,0.5024,0.5259,0.5395,0.5385,0.527,0.5266,0.5382,0.5254,0.5176,0.518,0.5176,0.5132,0.5038,0.5122,0.5197,0.5296,0.5984,0.6599,0.694,0.8287,0.9254,0.9606,1.0378,1.052,0.9958,0.9956,1.0083,1.0119,1.0773,1.1138,1.1717,1.2051,1.2184,1.2067,1.2184,1.2305,1.2298,1.2305,1.2298,1.2305,1.2305,1.2305,1.2305,1.2305,1.2305,1.2305,1.2305,1.2305,1.2325,1.2378,1.2537,1.2763,1.2631,1.2672,1.2864,1.2823,1.2945,1.3126,1.324,1.338,1.3586,1.364,1.376,1.4068,1.4082,1.4109,1.4103,1.4103,1.4109,1.4109,1.4109,1.4109,1.4229,1.413,1.413,-0.768,-0.6733,-0.6692,-0.6692,-0.6692,-0.6692,-0.6695,-0.6732,-0.6715,-0.6667,-0.6408,-0.5453,-0.4859,-0.45,-0.2516,-0.1,0.0,0.0,0.0,0.0,0.0,0.0,0.0,0.0,0.0,0.0,0.0,0.0,0.0,0.0,0.0,0.0,0.0,0.0,0.0,0.097,0.1395,0.1652,0.3252,0.4111,0.4228,0.497,0.5416,0.5436,0.5385,0.5382,0.5419,0.5392,0.5388,0.5372,0.5392,0.5385,0.5375,0.5365,0.5423,0.5573,0.5744,0.6218,0.694,0.7474,0.8016,0.8747,0.9308,0.9415,0.9275,0.9287,0.9302,0.9346,0.942,1.0153,1.166,1.1864,1.207,1.2148,1.2223,1.2231,1.2305,1.2305,1.2305,1.2286,1.2206,1.2132,1.2212,1.2305,1.2243,1.2268,1.2305,1.2305,1.2357,1.2544,1.2737,1.2851,1.2979,1.3173,1.3173,1.3012,1.2998,1.324,1.3494,1.358,1.3707,1.382,1.3981,1.4075,1.4082,1.4109,1.4109,1.4109,1.4109,1.4109,1.4109,1.4109,1.4109,1.4109,1.4109,-0.7901,-0.6848,-0.6826,-0.6826,-0.6826,-0.6826,-0.6856,-0.6958,-0.6958,-0.6958,-0.687,-0.638,-0.5767,-0.4976,-0.4118,-0.2719,-0.106,-0.0334,0.0,0.0,0.0,0.0,0.0,0.0,0.0,0.0,0.0,0.0,0.0,0.0,0.0,0.0,0.0,0.0,0.0,0.0865,0.1308,0.1485,0.3152,0.4127,0.4172,0.513,0.5658,0.5651,0.5491,0.544,0.5522,0.5525,0.5566,0.5637,0.5661,0.5658,0.5658,0.564,0.5685,0.5722,0.5772,0.5988,0.6408,0.709,0.7661,0.813,0.8869,0.8955,0.848,0.8351,0.8337,0.8337,0.8332,0.9012,0.997,1.0383,1.0664,1.1205,1.136,1.1639,1.2132,1.2305,1.2305,1.2212,1.1786,1.1354,1.1341,1.1335,1.1595,1.2169,1.2286,1.2305,1.2351,1.2596,1.2857,1.3019,1.3146,1.3353,1.3768,1.336,1.3193,1.3541,1.3788,1.3787,1.386,1.3948,1.4075,1.4082,1.4109,1.4109,1.4109,1.4109,1.4109,1.4109,1.4109,1.4109,1.4109,1.4109,1.4109,-0.8061,-0.7058,-0.6953,-0.6975,-0.6957,-0.695,-0.7007,-0.7092,-0.7117,-0.7117,-0.7071,-0.695,-0.6439,-0.5668,-0.5147,-0.4159,-0.2592,-0.122,0.0,0.0,0.0,0.0,0.0,0.0,0.0,0.0,0.0,0.0,0.0,0.0,0.0,0.0,0.0,0.0,0.0,0.0611,0.0883,0.1232,0.279,0.3774,0.3937,0.5096,0.58,0.5776,0.5624,0.5583,0.5654,0.5661,0.5698,0.5786,0.58,0.58,0.5803,0.5847,0.5856,0.5859,0.5925,0.6011,0.6141,0.6738,0.7161,0.7306,0.7893,0.8012,0.7384,0.7307,0.7331,0.7367,0.7386,0.7744,0.8232,0.8464,0.8971,1.0149,1.0755,1.1093,1.1423,1.1784,1.179,1.1347,1.0744,1.0419,1.0471,1.0683,1.1116,1.1827,1.2093,1.2293,1.2338,1.2652,1.2972,1.318,1.3407,1.3654,1.3868,1.3601,1.3487,1.3788,1.3881,1.3907,1.396,1.4055,1.4109,1.4109,1.4109,1.4109,1.4109,1.4109,1.4109,1.4109,1.4109,1.4109,1.4109,1.4109,1.4109,-0.8225,-0.7283,-0.7117,-0.7148,-0.71,-0.7075,-0.7114,-0.7117,-0.7117,-0.7117,-0.71,-0.6975,-0.685,-0.6564,-0.5626,-0.4912,-0.4299,-0.2527,-0.1085,0.0,0.0,0.0,0.0,0.0,0.0,0.0,0.0,0.0,0.0,0.0,0.0,0.0,0.0,0.0,0.0,0.0,0.0,0.0,0.198,0.2923,0.3143,0.4763,0.5735,0.5815,0.5813,0.5828,0.5835,0.581,0.5799,0.5848,0.583,0.5813,0.5857,0.5941,0.5993,0.6032,0.6182,0.6279,0.6267,0.634,0.6426,0.6474,0.6419,0.6604,0.6551,0.6502,0.6538,0.6639,0.6648,0.6703,0.6859,0.6956,0.763,0.9241,1.0376,1.0623,1.0295,1.0774,1.1006,1.0013,0.9502,0.9427,0.9736,1.0092,1.0589,1.1177,1.1759,1.2282,1.2442,1.2867,1.3153,1.3307,1.3601,1.3962,1.3928,1.3847,1.3894,1.396,1.3968,1.3981,1.4028,1.4109,1.4109,1.4109,1.4109,1.4109,1.4109,1.4109,1.4109,1.4109,1.4109,1.4109,1.4109,1.4109,1.4109,-0.9405,-0.8386,-0.8346,-0.7837,-0.7161,-0.7117,-0.7117,-0.7117,-0.7117,-0.7117,-0.711,-0.7073,-0.698,-0.6843,-0.6416,-0.582,-0.4948,-0.3453,-0.2159,-0.1125,-0.0356,0.0,0.0,0.0,0.0,0.0,0.0,0.0,0.0,0.0,0.0,0.0,0.0,0.0,0.0,0.0,0.0,0.0,0.1308,0.2315,0.3056,0.4332,0.5383,0.6058,0.6156,0.6156,0.6149,0.6017,0.6013,0.6139,0.6156,0.6156,0.6148,0.6182,0.619,0.6216,0.625,0.628,0.628,0.63,0.63,0.632,0.6388,0.6388,0.6344,0.6467,0.6539,0.6529,0.6583,0.6658,0.6705,0.6779,0.7387,0.8484,0.8982,0.9526,0.9663,0.9984,0.973,0.8907,0.8586,0.859,0.8668,0.9009,0.9706,1.0951,1.1529,1.1969,1.2713,1.3121,1.3474,1.3534,1.3888,1.4103,1.4015,1.3975,1.4008,1.4008,1.3981,1.4001,1.4055,1.4109,1.4109,1.4109,1.4109,1.4109,1.4109,1.4109,1.4109,1.4109,1.4109,1.4109,1.4109,1.4136,1.4155,-1.0567,-0.9536,-0.9065,-0.8478,-0.7709,-0.7334,-0.7117,-0.7117,-0.7117,-0.7117,-0.7117,-0.7117,-0.7048,-0.6985,-0.6931,-0.6488,-0.5654,-0.452,-0.3362,-0.2132,-0.0624,0.0,0.0,0.0,0.0,0.0,0.0,0.0,0.0,0.0,0.0,0.0,0.0,0.0,0.0,0.0,0.0,0.0,0.1058,0.1919,0.2696,0.3967,0.5021,0.5647,0.608,0.6277,0.6289,0.6185,0.6178,0.626,0.628,0.628,0.628,0.6273,0.628,0.628,0.6277,0.628,0.628,0.628,0.633,0.6381,0.6463,0.6488,0.6474,0.6644,0.6654,0.6671,0.6729,0.6786,0.685,0.69,0.725,0.7716,0.8295,0.8703,0.9259,0.8946,0.848,0.789,0.7715,0.7715,0.7764,0.8172,0.8704,1.0096,1.1033,1.1624,1.2529,1.3131,1.3411,1.3666,1.3908,1.4049,1.4103,1.4096,1.4103,1.4035,1.3975,1.4015,1.4068,1.4103,1.4109,1.4109,1.4109,1.4109,1.4109,1.4109,1.4109,1.4109,1.4109,1.4109,1.4129,1.4249,1.4315,-1.1729,-1.0589,-0.9492,-0.8973,-0.8649,-0.7599,-0.7117,-0.7117,-0.7117,-0.7117,-0.7117,-0.7117,-0.7092,-0.7058,-0.6989,-0.6845,-0.6659,-0.554,-0.4316,-0.2957,-0.131,0.0,0.0,0.0,0.0,0.0,0.0,0.0,0.0,0.0,0.0,0.0,0.0,0.0,0.0,0.0,0.0,0.0,0.0961,0.147,0.1763,0.3499,0.4647,0.4824,0.5767,0.628,0.6296,0.6282,0.6286,0.628,0.628,0.628,0.628,0.628,0.628,0.628,0.628,0.628,0.628,0.6327,0.6375,0.6477,0.6529,0.6566,0.6654,0.6725,0.6807,0.6847,0.6897,0.6965,0.7038,0.7071,0.7134,0.7239,0.7956,0.8548,0.8646,0.7739,0.7311,0.7186,0.6933,0.6842,0.7192,0.7727,0.8187,0.8884,1.0181,1.1002,1.1949,1.2683,1.3381,1.3718,1.3981,1.4042,1.4109,1.4109,1.4109,1.4089,1.4015,1.4035,1.4068,1.4103,1.4109,1.4109,1.4109,1.4109,1.4109,1.4109,1.4109,1.4109,1.4109,1.4109,1.4188,1.4355,1.4509,-1.2942,-1.1766,-1.0632,-0.9662,-0.8781,-0.7625,-0.7117,-0.7117,-0.7117,-0.7117,-0.7117,-0.7117,-0.7117,-0.7114,-0.708,-0.7041,-0.6752,-0.587,-0.466,-0.3462,-0.2081,-0.0822,0.0,0.0,0.0,0.0,0.0,0.0,0.0,0.0,0.0,0.0,0.0,0.0,0.0,0.0,0.0,0.0,0.0,0.0863,0.1665,0.2833,0.3904,0.4763,0.5728,0.6238,0.628,0.628,0.628,0.628,0.628,0.628,0.628,0.6303,0.6294,0.6313,0.631,0.6287,0.6327,0.6402,0.6474,0.6508,0.6671,0.6773,0.6705,0.688,0.6951,0.6962,0.6974,0.7051,0.711,0.7117,0.7117,0.7117,0.7492,0.7687,0.7592,0.7313,0.7061,0.7078,0.7036,0.7046,0.7122,0.7312,0.7764,0.8534,0.9322,1.0287,1.143,1.2254,1.2943,1.3732,1.4083,1.4096,1.4109,1.4109,1.4109,1.4109,1.4089,1.4083,1.4103,1.4103,1.4109,1.4109,1.4109,1.4109,1.4109,1.4109,1.4109,1.4109,1.4156,1.419,1.4335,1.4502,1.4676,-1.3688,-1.2921,-1.1279,-1.0221,-0.9405,-0.7841,-0.7117,-0.7117,-0.7117,-0.7117,-0.7117,-0.7117,-0.7117,-0.7117,-0.7095,-0.7117,-0.7007,-0.6403,-0.5497,-0.42,-0.2567,-0.1166,0.0,0.0,0.0,0.0,0.0,0.0,0.0,0.0,0.0,0.0,0.0,0.0,0.0,0.0,0.0,0.0,0.0,0.0334,0.0941,0.2384,0.3299,0.4275,0.5412,0.628,0.628,0.628,0.628,0.628,0.628,0.628,0.6306,0.6361,0.6369,0.6392,0.6426,0.6467,0.6477,0.6529,0.6617,0.6692,0.6833,0.688,0.6894,0.7033,0.707,0.7029,0.708,0.711,0.7117,0.7117,0.7117,0.7117,0.7117,0.7117,0.7117,0.7136,0.7117,0.7117,0.7117,0.7117,0.7117,0.7117,0.7448,0.8013,0.8611,0.9846,1.1096,1.1815,1.2681,1.3603,1.4109,1.4109,1.4109,1.4109,1.4109,1.4109,1.4109,1.4109,1.4109,1.4109,1.4109,1.4109,1.4109,1.4109,1.4109,1.4109,1.4109,1.4129,1.4196,1.4315,1.4489,1.4743,1.4926,-1.4109,-1.3906,-1.1569,-1.0589,-1.0178,-0.8119,-0.7117,-0.7117,-0.7117,-0.7117,-0.7117,-0.7117,-0.7117,-0.7117,-0.7117,-0.7117,-0.7117,-0.6962,-0.6135,-0.4652,-0.2846,-0.1163,0.0,0.0,0.0,0.0,0.0,0.0,0.0,0.0,0.0,0.0,0.0,0.0,0.0,0.0,0.0,0.0,0.0,0.0,0.0,0.2013,0.3143,0.3532,0.5315,0.6219,0.628,0.63,0.631,0.6323,0.6329,0.6313,0.6334,0.6433,0.6477,0.6505,0.6593,0.6682,0.6692,0.6692,0.6752,0.6857,0.6901,0.6957,0.7041,0.7107,0.711,0.7093,0.7117,0.7117,0.7117,0.7117,0.7117,0.7117,0.7117,0.7117,0.7117,0.7117,0.7117,0.7117,0.7117,0.7117,0.7117,0.7117,0.7139,0.747,0.8105,0.9144,1.0394,1.13,1.2489,1.3864,1.4109,1.4109,1.4109,1.4109,1.4109,1.4109,1.4109,1.4109,1.4109,1.4109,1.4109,1.4109,1.4109,1.4109,1.4109,1.4109,1.4123,1.4208,1.4329,1.4482,1.4641,1.4997,1.5247,-1.4109,-1.3913,-1.1563,-1.0589,-1.02,-0.8115,-0.7117,-0.7117,-0.7117,-0.7117,-0.7117,-0.7117,-0.7117,-0.7117,-0.7117,-0.7117,-0.7117,-0.7007,-0.6021,-0.3926,-0.2549,-0.1161,0.0,0.0,0.0,0.0,0.0,0.0,0.0,0.0,0.0,0.0,0.0,0.0,0.0,0.0,0.0,0.0,0.0,0.0,0.0,0.1981,0.3168,0.3437,0.5243,0.6206,0.63,0.628,0.6331,0.6409,0.6385,0.6378,0.644,0.6491,0.6525,0.6563,0.6634,0.6715,0.6725,0.682,0.687,0.6914,0.7006,0.7087,0.7085,0.7117,0.7117,0.7117,0.7117,0.7117,0.7117,0.7117,0.7117,0.7117,0.7117,0.7117,0.7117,0.7117,0.7117,0.7117,0.7117,0.7117,0.7117,0.7117,0.7117,0.7139,0.7727,0.8532,0.9657,1.0891,1.2147,1.3625,1.4082,1.4018,1.373,1.3864,1.4109,1.4109,1.4109,1.4109,1.4109,1.4109,1.4109,1.4109,1.4109,1.4123,1.4148,1.4148,1.4182,1.4329,1.4522,1.4743,1.499,1.5291,1.5478,-1.4109,-1.3849,-1.1585,-1.0589,-1.0221,-0.8137,-0.7117,-0.7117,-0.7117,-0.7117,-0.7117,-0.7117,-0.7117,-0.7117,-0.7117,-0.7117,-0.7117,-0.7073,-0.5841,-0.3948,-0.2836,-0.1701,0.0,0.0,0.0,0.0,0.0,0.0,0.0,0.0,0.0,0.0,0.0,0.0,0.0,0.0,0.0,0.0,0.0,0.0,0.0,0.1999,0.382,0.4477,0.5761,0.6399,0.6402,0.646,0.6563,0.661,0.6549,0.6495,0.658,0.6647,0.6681,0.6712,0.6803,0.688,0.6918,0.6955,0.7009,0.7002,0.7058,0.7104,0.7117,0.7117,0.7117,0.7117,0.7117,0.7117,0.7117,0.7117,0.7117,0.7117,0.7117,0.7117,0.7117,0.7117,0.7117,0.7117,0.7117,0.7117,0.7117,0.7117,0.7117,0.7117,0.8079,0.8903,1.0065,1.1187,1.1879,1.2991,1.373,1.3885,1.3464,1.3555,1.406,1.4109,1.4109,1.4109,1.4109,1.4109,1.4109,1.4109,1.4116,1.4222,1.4269,1.4262,1.4355,1.4629,1.4863,1.5106,1.5284,1.5484,1.5625,-1.4109,-1.3891,-1.159,-1.0589,-1.0221,-0.8115,-0.7117,-0.7117,-0.7117,-0.7117,-0.7117,-0.7117,-0.7117,-0.7117,-0.7117,-0.7117,-0.7117,-0.7007,-0.5888,-0.4239,-0.3594,-0.2281,0.0,0.0,0.0,0.0,0.0,0.0,0.0,0.0,0.0,0.0,0.0,0.0,0.0,0.0,0.0,0.0,0.0,0.0,0.0,0.2053,0.4074,0.5825,0.6324,0.6525,0.6549,0.661,0.6728,0.6884,0.6782,0.6763,0.6772,0.6823,0.6886,0.6901,0.7002,0.706,0.7063,0.7093,0.7104,0.7117,0.7117,0.7117,0.7117,0.7117,0.7117,0.7117,0.7117,0.7117,0.7117,0.7117,0.7117,0.7117,0.7117,0.7117,0.7117,0.7117,0.7117,0.7117,0.7117,0.7117,0.7117,0.7117,0.7117,0.7316,0.8299,0.9296,1.0438,1.1509,1.2227,1.2899,1.3752,1.406,1.3688,1.3576,1.4039,1.4116,1.4116,1.4136,1.4129,1.4109,1.4109,1.4109,1.4128,1.4249,1.4327,1.4369,1.4549,1.4926,1.5166,1.5297,1.5478,1.5665,1.5728,-1.4109,-1.3891,-1.1563,-1.0589,-1.0243,-0.8097,-0.7117,-0.7117,-0.7117,-0.7117,-0.7117,-0.7117,-0.7117,-0.7117,-0.7117,-0.7117,-0.7117,-0.7029,-0.6337,-0.4907,-0.4083,-0.2659,-0.1478,0.0,0.0,0.0,0.0,0.0,0.0,0.0,0.0,0.0,0.0,0.0,0.0,0.0,0.0,0.0,0.0,0.0,0.0,0.2157,0.4332,0.6301,0.663,0.6658,0.6664,0.6692,0.6749,0.6862,0.6859,0.691,0.6975,0.6933,0.6906,0.693,0.7043,0.7117,0.7117,0.7117,0.7117,0.7117,0.7117,0.7117,0.7117,0.7117,0.7117,0.7117,0.7117,0.7117,0.7117,0.7117,0.7117,0.7117,0.7117,0.7117,0.7117,0.7117,0.7117,0.7117,0.7117,0.7117,0.7117,0.7117,0.7117,0.7555,0.8558,0.9449,1.0438,1.1622,1.2681,1.3336,1.3997,1.4088,1.3997,1.3976,1.4109,1.4129,1.4143,1.419,1.4176,1.4123,1.4116,1.4263,1.4235,1.4242,1.4335,1.4496,1.475,1.5133,1.5304,1.5484,1.5625,1.5735,1.5748,-1.4109,-1.387,-1.1563,-1.0589,-1.0178,-0.8093,-0.7117,-0.7117,-0.7117,-0.7117,-0.7117,-0.7117,-0.7117,-0.7117,-0.7117,-0.7117,-0.7117,-0.7095,-0.6428,-0.5334,-0.4152,-0.297,-0.179,-0.0606,0.0,0.0,0.0,0.0,0.0,0.0,0.0,0.0,0.0,0.0,0.0,0.0,0.0,0.0,0.0,0.0,0.0,0.2213,0.4434,0.608,0.6762,0.6814,0.6813,0.6884,0.6935,0.7002,0.7016,0.7034,0.7051,0.7041,0.6991,0.7004,0.7058,0.7117,0.7117,0.7117,0.7117,0.7117,0.7117,0.7117,0.7117,0.7117,0.7117,0.7117,0.7117,0.7117,0.7117,0.7117,0.7117,0.7117,0.7117,0.7117,0.7117,0.7117,0.7117,0.7117,0.7117,0.7117,0.7117,0.7117,0.7117,0.7771,0.8777,0.9662,1.0486,1.1756,1.2984,1.3203,1.3709,1.3913,1.3976,1.4109,1.4142,1.4162,1.4208,1.4255,1.4377,1.4397,1.4497,1.4638,1.4536,1.4429,1.473,1.5023,1.5177,1.5297,1.5498,1.5648,1.5728,1.5801,1.5801,-1.4109,-1.3891,-1.1563,-1.0589,-1.0221,-0.8097,-0.7117,-0.7117,-0.7117,-0.7117,-0.7117,-0.7117,-0.7117,-0.7117,-0.7117,-0.7117,-0.7117,-0.7117,-0.6583,-0.5714,-0.4285,-0.3014,-0.2102,0.0,0.0,0.0,0.0,0.0,0.0,0.0,0.0,0.0,0.0,0.0,0.0,0.0,0.0,0.0,0.0,0.0,0.0826,0.2377,0.4366,0.6298,0.6759,0.6948,0.6958,0.7026,0.7077,0.7097,0.7107,0.7114,0.7117,0.7117,0.7117,0.7117,0.7117,0.7117,0.7117,0.7117,0.7117,0.7117,0.7117,0.7117,0.7117,0.7117,0.7117,0.7117,0.7117,0.7117,0.7117,0.7117,0.7117,0.7117,0.7117,0.7117,0.7117,0.7117,0.7117,0.7117,0.7117,0.7117,0.7117,0.7117,0.7117,0.7489,0.847,0.9645,1.0572,1.2062,1.3027,1.2984,1.3224,1.3582,1.38,1.4088,1.4175,1.4282,1.4369,1.4427,1.4609,1.4772,1.4879,1.4966,1.491,1.4883,1.5224,1.5391,1.5364,1.5444,1.5668,1.5795,1.5801,1.5801,1.5801,-1.4109,-1.3913,-1.1563,-1.0589,-1.0243,-0.8097,-0.7117,-0.7117,-0.7117,-0.7117,-0.7117,-0.7117,-0.7117,-0.7117,-0.7117,-0.7117,-0.7117,-0.7095,-0.6962,-0.6403,-0.4727,-0.3636,-0.2992,-0.0964,0.0,0.0,0.0,0.0,0.0,0.0,0.0,0.0,0.0,0.0,0.0,0.0,0.0,0.0,0.0,0.0,0.1611,0.2915,0.4253,0.5577,0.6511,0.7051,0.7045,0.7104,0.7117,0.7117,0.7117,0.7117,0.7117,0.7117,0.7117,0.7117,0.7117,0.7117,0.7117,0.7117,0.7117,0.7117,0.7117,0.7117,0.7117,0.7117,0.7117,0.7117,0.7127,0.7098,0.7102,0.7105,0.7121,0.7117,0.7117,0.7117,0.7117,0.7117,0.7117,0.7117,0.7117,0.7117,0.7117,0.7117,0.7161,0.7599,0.8233,0.9471,1.0788,1.2339,1.3336,1.3379,1.3379,1.3688,1.38,1.4039,1.4229,1.4347,1.4507,1.4641,1.4877,1.5079,1.5157,1.5217,1.5204,1.5177,1.5304,1.5391,1.5418,1.5545,1.5708,1.5775,1.5801,1.5801,1.5801,-1.4109,-1.387,-1.1585,-1.0589,-1.0286,-0.8097,-0.7117,-0.7117,-0.7117,-0.7117,-0.7117,-0.7117,-0.7117,-0.7117,-0.7117,-0.7117,-0.7117,-0.7117,-0.7117,-0.6871,-0.5398,-0.4241,-0.3304,-0.1857,-0.083,0.0,0.0,0.0,0.0,0.0,0.0,0.0,0.0,0.0,0.0,0.0,0.0,0.0,0.0,0.0,0.2436,0.3414,0.4461,0.6223,0.6808,0.7051,0.7117,0.7117,0.7117,0.7117,0.7117,0.7117,0.7117,0.7117,0.7117,0.7117,0.7117,0.7117,0.7117,0.7117,0.7117,0.7117,0.7117,0.7117,0.7117,0.7124,0.7124,0.7117,0.7205,0.7212,0.7152,0.7202,0.7178,0.7161,0.7164,0.7151,0.7151,0.7121,0.7117,0.7117,0.7124,0.7141,0.7151,0.7148,0.7403,0.8017,0.8886,1.0193,1.1483,1.2884,1.3603,1.3934,1.3934,1.4018,1.4018,1.4116,1.4289,1.4469,1.4758,1.4903,1.517,1.5337,1.5431,1.5531,1.5541,1.5524,1.5444,1.5498,1.5618,1.5661,1.5721,1.5761,1.5801,1.5801,1.5801,-1.4109,-1.3891,-1.1585,-1.0589,-1.0373,-0.8075,-0.7117,-0.7117,-0.7117,-0.7117,-0.7117,-0.7117,-0.7117,-0.7117,-0.7117,-0.7117,-0.7117,-0.7117,-0.7117,-0.6738,-0.5913,-0.4708,-0.3527,-0.2281,-0.1098,0.0,0.0,0.0,0.0,0.0,0.0,0.0,0.0,0.0,0.0,0.0,0.0,0.0,0.0,0.0,0.2236,0.3236,0.4483,0.5775,0.6713,0.7117,0.7117,0.7117,0.7117,0.7117,0.7117,0.7117,0.7117,0.7117,0.7117,0.7117,0.7117,0.7117,0.7117,0.7117,0.7117,0.7117,0.7117,0.7117,0.7105,0.7137,0.7178,0.7195,0.735,0.7327,0.7293,0.7377,0.737,0.731,0.7269,0.7242,0.7229,0.7252,0.7273,0.73,0.7312,0.7231,0.7231,0.7195,0.7609,0.8354,0.9497,1.0862,1.2162,1.3453,1.3884,1.4243,1.4262,1.4262,1.4262,1.4289,1.4436,1.4609,1.4905,1.518,1.5424,1.5585,1.5685,1.5755,1.5801,1.5748,1.5631,1.5708,1.5801,1.5781,1.5761,1.5781,1.5801,1.5801,1.5801,-1.4109,-1.3891,-1.1563,-1.0589,-1.0438,-0.8071,-0.7139,-0.7117,-0.7117,-0.7117,-0.7117,-0.7117,-0.7117,-0.7117,-0.7117,-0.7117,-0.7117,-0.7117,-0.7117,-0.6738,-0.5916,-0.4843,-0.366,-0.2458,0.0,0.0,0.0,0.0,0.0,0.0,0.0,0.0,0.0,0.0,0.0,0.0,0.0,0.0,0.0,0.0,0.1277,0.2413,0.3861,0.4483,0.5955,0.7117,0.7117,0.7117,0.7117,0.7117,0.7117,0.7117,0.7117,0.7117,0.7117,0.7117,0.7117,0.7117,0.7117,0.7117,0.7117,0.7117,0.7134,0.7151,0.7164,0.7299,0.7365,0.737,0.7495,0.755,0.7546,0.755,0.7553,0.7492,0.7448,0.7451,0.7428,0.7482,0.7502,0.7526,0.7458,0.7336,0.7302,0.7288,0.7655,0.8389,1.0023,1.1394,1.2665,1.3833,1.4158,1.4429,1.4489,1.4516,1.4536,1.4623,1.4763,1.493,1.5186,1.5424,1.5685,1.5788,1.5801,1.5801,1.5801,1.5801,1.5801,1.5801,1.5801,1.5801,1.5801,1.5801,1.5801,1.5801,1.5801,-1.3646,-1.2829,-1.1236,-1.0589,-1.0503,-0.8886,-0.7775,-0.7183,-0.7117,-0.7117,-0.7117,-0.7117,-0.7117,-0.7117,-0.7117,-0.7117,-0.7117,-0.7117,-0.7117,-0.7029,-0.647,-0.5309,-0.4059,-0.2882,0.0,0.0,0.0,0.0,0.0,0.0,0.0,0.0,0.0,0.0,0.0,0.0,0.0,0.0,0.0,0.0,0.1411,0.2592,0.395,0.4865,0.6068,0.7029,0.7117,0.7117,0.7117,0.7117,0.7117,0.7117,0.7117,0.7117,0.7117,0.7117,0.7117,0.7117,0.7121,0.7121,0.7117,0.7122,0.7198,0.7259,0.7292,0.745,0.7519,0.758,0.7641,0.7709,0.7614,0.7668,0.7699,0.7634,0.7614,0.7628,0.7641,0.7662,0.7631,0.7617,0.7499,0.7366,0.7356,0.7363,0.7843,0.848,1.0234,1.1936,1.329,1.4172,1.4502,1.4725,1.477,1.479,1.481,1.4959,1.5113,1.528,1.5454,1.5598,1.5761,1.5788,1.5801,1.5801,1.5801,1.5801,1.5801,1.5801,1.5801,1.5801,1.5801,1.5801,1.5801,1.5801,1.5801,-1.3406,-1.2242,-1.1423,-1.0697,-0.9988,-0.8864,-0.7885,-0.7205,-0.7117,-0.7117,-0.7117,-0.7117,-0.7117,-0.7117,-0.7117,-0.7117,-0.7117,-0.7117,-0.7117,-0.7073,-0.6827,-0.5642,-0.4334,-0.3212,0.0,0.0,0.0,0.0,0.0,0.0,0.0,0.0,0.0,0.0,0.0,0.0,0.0,0.0,0.0,0.0,0.1322,0.2793,0.3794,0.4932,0.6201,0.7029,0.7117,0.7117,0.7117,0.7117,0.7117,0.7117,0.7117,0.7117,0.7117,0.7117,0.7121,0.7121,0.7105,0.7168,0.7181,0.7222,0.734,0.7424,0.7475,0.7573,0.7655,0.7672,0.7784,0.781,0.7723,0.78,0.7837,0.7787,0.7776,0.7787,0.7804,0.7807,0.7743,0.7692,0.7587,0.7559,0.7866,0.8043,0.8947,0.9447,1.0439,1.2332,1.4201,1.4833,1.4876,1.5026,1.5106,1.5113,1.512,1.5294,1.5431,1.5491,1.5631,1.5658,1.5755,1.5781,1.5801,1.5801,1.5801,1.5801,1.5801,1.5801,1.5801,1.5801,1.5801,1.5801,1.5801,1.5801,1.5801,-1.3385,-1.2349,-1.2178,-1.0886,-0.8912,-0.7687,-0.7209,-0.7117,-0.7117,-0.7117,-0.7117,-0.7117,-0.7117,-0.7117,-0.7117,-0.7117,-0.7117,-0.7117,-0.7117,-0.7117,-0.7051,-0.5664,-0.4363,-0.3293,0.0,0.0,0.0,0.0,0.0,0.0,0.0,0.0,0.0,0.0,0.0,0.0,0.0,0.0,0.0,0.0,0.0673,0.2413,0.3592,0.4305,0.6021,0.7073,0.7117,0.7117,0.7117,0.7117,0.7117,0.7117,0.7117,0.7117,0.7117,0.7117,0.7131,0.7137,0.7122,0.7295,0.7389,0.739,0.7506,0.7587,0.7624,0.7716,0.7787,0.7797,0.7898,0.7973,0.7958,0.7961,0.7938,0.7949,0.7929,0.7922,0.7908,0.7902,0.7837,0.7767,0.7784,0.7866,0.8268,0.8841,0.9988,1.0687,1.1124,1.2602,1.4743,1.5354,1.53,1.5327,1.5391,1.5391,1.5424,1.5601,1.5735,1.5775,1.5768,1.5761,1.5761,1.5788,1.5801,1.5801,1.5801,1.5801,1.5801,1.5801,1.5801,1.5801,1.5801,1.5801,1.5801,1.5801,1.5801,-1.2948,-1.1187,-1.1187,-0.9831,-0.7925,-0.8171,-0.7881,-0.7183,-0.7117,-0.7117,-0.7117,-0.7117,-0.7117,-0.7117,-0.7117,-0.7117,-0.7117,-0.7117,-0.7117,-0.7102,-0.7137,-0.5586,-0.4276,-0.3428,-0.2348,0.0,0.0,0.0,0.0,0.0,0.0,0.0,0.0,0.0,0.0,0.0,0.0,0.0,0.0,0.0,0.0,0.2195,0.3578,0.3671,0.5863,0.6989,0.7125,0.7154,0.7137,0.7134,0.7134,0.7117,0.7121,0.7102,0.7131,0.7154,0.7214,0.735,0.7441,0.7567,0.7631,0.7611,0.7651,0.774,0.7753,0.7854,0.7891,0.7907,0.7948,0.7988,0.7982,0.7982,0.7968,0.7968,0.7961,0.7961,0.7983,0.7983,0.7942,0.7848,0.7814,0.7921,0.8239,0.9449,1.0681,1.1862,1.2389,1.3409,1.5311,1.5604,1.5638,1.5621,1.5661,1.5661,1.5708,1.5768,1.5795,1.5788,1.5788,1.5788,1.5795,1.5801,1.5801,1.5801,1.5801,1.5801,1.5801,1.5801,1.5801,1.5801,1.5801,1.5801,1.5801,1.5801,1.5801,-1.2735,-1.0675,-1.0589,-0.9248,-0.7401,-0.7947,-0.7797,-0.7161,-0.7117,-0.7117,-0.7117,-0.7117,-0.7117,-0.7117,-0.7117,-0.7117,-0.7124,-0.7181,-0.7221,-0.7205,-0.7266,-0.6096,-0.4898,-0.377,-0.2613,-0.1013,0.0,0.0,0.0,0.0,0.0,0.0,0.0,0.0,0.0,0.0,0.0,0.0,0.0,0.0,0.0,0.1743,0.3156,0.4002,0.5393,0.674,0.7105,0.7232,0.7195,0.7188,0.7158,0.7131,0.7109,0.7168,0.721,0.7261,0.7366,0.7539,0.7655,0.7699,0.7753,0.7784,0.7827,0.7861,0.7871,0.7924,0.7958,0.7978,0.7988,0.7988,0.7988,0.7988,0.7988,0.7988,0.7988,0.7988,0.7988,0.7985,0.7975,0.7888,0.7879,0.8,0.8483,0.9981,1.1361,1.2547,1.3717,1.4758,1.5611,1.573,1.5801,1.5795,1.5795,1.5761,1.5748,1.5781,1.5801,1.5801,1.5801,1.5801,1.5801,1.5801,1.5801,1.5801,1.5801,1.5801,1.5801,1.5801,1.5801,1.5801,1.5801,1.5801,1.5801,1.5801,1.5801,-1.2757,-1.0778,-1.0627,-0.9309,-0.7426,-0.7294,-0.7165,-0.7117,-0.7117,-0.7117,-0.7117,-0.7117,-0.7117,-0.7117,-0.7117,-0.7117,-0.7148,-0.7288,-0.7352,-0.7413,-0.7455,-0.6523,-0.5526,-0.4312,-0.2961,-0.1818,0.0,0.0,0.0,0.0,0.0,0.0,0.0,0.0,0.0,0.0,0.0,0.0,0.0,0.0,0.0,0.1298,0.2656,0.3779,0.509,0.6406,0.7042,0.7441,0.7416,0.7362,0.7242,0.7181,0.7192,0.7325,0.7372,0.745,0.7546,0.7668,0.777,0.7824,0.7868,0.7915,0.7969,0.8006,0.8003,0.7971,0.7982,0.7988,0.7988,0.7988,0.7988,0.7988,0.7988,0.7988,0.7988,0.7988,0.7988,0.7988,0.7988,0.7983,0.7976,0.8266,0.9109,1.0431,1.175,1.2745,1.3884,1.5027,1.573,1.573,1.5801,1.5801,1.5801,1.5801,1.5801,1.5801,1.5801,1.5801,1.5801,1.5801,1.5801,1.5801,1.5801,1.5801,1.5801,1.5801,1.5801,1.5801,1.5801,1.5801,1.5801,1.5801,1.5801,1.5801,1.5801,-1.3188,-1.1772,-1.0956,-0.9722,-0.8364,-0.7448,-0.7117,-0.7117,-0.7117,-0.7117,-0.7117,-0.7117,-0.7117,-0.7117,-0.7117,-0.7117,-0.7181,-0.7282,-0.735,-0.7441,-0.7553,-0.6768,-0.5776,-0.4564,-0.3252,-0.1992,0.0,0.0,0.0,0.0,0.0,0.0,0.0,0.0,0.0,0.0,0.0,0.0,0.0,0.0,0.0,0.0,0.2364,0.3578,0.4651,0.5916,0.6897,0.7362,0.7369,0.7416,0.7442,0.7461,0.7478,0.7516,0.7556,0.7675,0.7722,0.779,0.7915,0.7949,0.7941,0.7971,0.7988,0.7988,0.7988,0.7988,0.7988,0.7988,0.7988,0.7988,0.7988,0.7988,0.7988,0.7988,0.7988,0.7988,0.7988,0.7988,0.7988,0.7988,0.7988,0.8382,0.9291,1.0754,1.2018,1.2915,1.3956,1.5146,1.5801,1.5801,1.5801,1.5801,1.5801,1.5801,1.5801,1.5801,1.5801,1.5801,1.5801,1.5801,1.5801,1.5801,1.5801,1.5801,1.5801,1.5801,1.5801,1.5801,1.5801,1.5801,1.5801,1.5801,1.5801,1.5801,1.5801,-1.3406,-1.2194,-1.108,-0.9679,-0.8211,-0.7423,-0.7117,-0.7117,-0.7117,-0.7117,-0.7117,-0.7117,-0.7117,-0.7117,-0.7121,-0.7154,-0.7258,-0.7404,-0.7506,-0.7611,-0.7661,-0.7345,-0.638,-0.5259,-0.4102,-0.2734,-0.1486,0.0,0.0,0.0,0.0,0.0,0.0,0.0,0.0,0.0,0.0,0.0,0.0,0.0,0.0,0.0,0.18,0.3007,0.4021,0.4964,0.6171,0.6538,0.6914,0.7065,0.7148,0.7597,0.7611,0.7641,0.7726,0.7834,0.7878,0.7915,0.7986,0.7975,0.7985,0.7988,0.7988,0.7988,0.7988,0.7988,0.7988,0.7988,0.7988,0.7988,0.7988,0.7988,0.7988,0.7988,0.7988,0.7988,0.7988,0.7988,0.7988,0.7988,0.8162,0.8407,0.941,1.0945,1.2334,1.3349,1.4298,1.5313,1.5801,1.5801,1.5801,1.5801,1.5801,1.5801,1.5801,1.5801,1.5801,1.5801,1.5801,1.5801,1.5801,1.5801,1.5801,1.5801,1.5801,1.5801,1.5801,1.5801,1.5801,1.5801,1.5801,1.5801,1.5801,1.5801,1.5801,-1.3449,-1.237,-1.1106,-0.9287,-0.7272,-0.7117,-0.7117,-0.7117,-0.7117,-0.7117,-0.7117,-0.7117,-0.7131,-0.7164,-0.7171,-0.7252,-0.7397,-0.7543,-0.7658,-0.7787,-0.7881,-0.774,-0.7397,-0.6578,-0.4908,-0.3787,-0.2564,0.0,0.0,0.0,0.0,0.0,0.0,0.0,0.0,0.0,0.0,0.0,0.0,0.0,0.0,0.0,0.0605,0.1832,0.238,0.2829,0.4113,0.5044,0.5847,0.6225,0.684,0.7597,0.7709,0.7767,0.7878,0.7939,0.7948,0.7965,0.8006,0.7988,0.7988,0.7988,0.7988,0.7988,0.7988,0.7988,0.7988,0.7988,0.7988,0.7988,0.7988,0.7988,0.7988,0.7988,0.7988,0.7988,0.7988,0.7988,0.7988,0.7988,0.8038,0.8432,0.9583,1.1116,1.2401,1.359,1.4735,1.5635,1.5801,1.5801,1.5801,1.5801,1.5801,1.5801,1.5801,1.5801,1.5801,1.5801,1.5801,1.5801,1.5801,1.5801,1.5801,1.5801,1.5801,1.5801,1.5801,1.5801,1.5801,1.5801,1.5801,1.5801,1.5801,1.5801,1.5801,-1.3934,-1.347,-1.1456,-0.9248,-0.7228,-0.7117,-0.7117,-0.7117,-0.7117,-0.7121,-0.7121,-0.7109,-0.7185,-0.7288,-0.7312,-0.7423,-0.755,-0.7665,-0.7763,-0.7831,-0.7952,-0.7985,-0.7786,-0.6808,-0.5397,-0.3967,-0.2638,0.0,0.0,0.0,0.0,0.0,0.0,0.0,0.0,0.0,0.0,0.0,0.0,0.0,0.0,0.0,0.0605,0.1511,0.2037,0.249,0.3734,0.5103,0.5683,0.6149,0.726,0.7792,0.7918,0.7942,0.7969,0.8006,0.7988,0.7988,0.7988,0.7988,0.7988,0.7988,0.7988,0.7988,0.7988,0.7988,0.7988,0.7988,0.7988,0.7988,0.7988,0.7988,0.7988,0.7988,0.7988,0.7988,0.7988,0.7988,0.7988,0.7988,0.7988,0.8775,0.9875,1.1116,1.2401,1.3686,1.4949,1.5754,1.5801,1.5801,1.5801,1.5801,1.5801,1.5801,1.5801,1.5801,1.5801,1.5801,1.5801,1.5801,1.5801,1.5801,1.5801,1.5801,1.5801,1.5801,1.5801,1.5801,1.5801,1.5801,1.5801,1.5801,1.5801,1.5801,1.5801,-1.4109,-1.38,-1.1563,-0.9248,-0.7356,-0.7117,-0.7117,-0.7117,-0.7117,-0.7136,-0.7238,-0.7248,-0.7318,-0.742,-0.7461,-0.757,-0.7682,-0.7767,-0.7831,-0.7908,-0.7928,-0.7971,-0.7587,-0.7135,-0.6229,-0.482,-0.284,0.0,0.0,0.0,0.0,0.0,0.0,0.0,0.0,0.0,0.0,0.0,0.0,0.0,0.0,0.0,0.0,0.1008,0.0,0.0,0.254,0.3894,0.4895,0.5724,0.6891,0.7794,0.7989,0.7971,0.7982,0.7988,0.7988,0.7988,0.7988,0.7988,0.7988,0.7988,0.7988,0.7988,0.7988,0.7988,0.7988,0.7988,0.7988,0.7988,0.7988,0.7988,0.7988,0.7988,0.7988,0.7988,0.7988,0.7988,0.7988,0.7988,0.8159,0.8651,0.9825,1.1097,1.2401,1.3704,1.4997,1.573,1.5801,1.5801,1.5801,1.5801,1.5801,1.5801,1.5801,1.5801,1.5801,1.5801,1.5801,1.5801,1.5801,1.5801,1.5801,1.5801,1.5801,1.5801,1.5801,1.5801,1.5801,1.5801,1.5801,1.5801,1.5801,1.5801,1.5801,-1.3891,-1.337,-1.1434,-0.9244,-0.7268,-0.7117,-0.7117,-0.7121,-0.7122,-0.7244,-0.7389,-0.7433,-0.7444,-0.7478,-0.756,-0.7668,-0.777,-0.7834,-0.7915,-0.7969,-0.7978,-0.7988,-0.7988,-0.7811,-0.6628,-0.5022,-0.3067,0.0,0.0,0.0,0.0,0.0,0.0,0.0,0.0,0.0,0.0,0.0,0.0,0.0,0.0,0.0,0.0,0.0,0.0,0.0,0.0,0.2213,0.3715,0.507,0.6526,0.7584,0.7988,0.7988,0.7988,0.7988,0.7988,0.7988,0.7988,0.7988,0.7988,0.7988,0.7988,0.7988,0.7988,0.7988,0.7988,0.7988,0.7988,0.7988,0.7988,0.7988,0.7988,0.7988,0.7988,0.7988,0.7988,0.7988,0.7988,0.7988,0.8283,0.8701,0.9875,1.1146,1.2431,1.3734,1.4728,1.5361,1.5801,1.5801,1.5801,1.5801,1.5801,1.5801,1.5801,1.5801,1.5801,1.5801,1.5801,1.5801,1.5801,1.5801,1.5801,1.5801,1.5801,1.5801,1.5801,1.5801,1.5801,1.5801,1.5801,1.5801,1.5801,1.5801,1.5801,-1.2975,-1.1214,-1.074,-0.9248,-0.7312,-0.7117,-0.7117,-0.7137,-0.7268,-0.7369,-0.745,-0.7617,-0.7675,-0.7567,-0.7685,-0.7787,-0.7824,-0.7898,-0.7956,-0.7985,-0.7988,-0.7988,-0.7889,-0.7637,-0.6401,-0.467,-0.284,0.0,0.0,0.0,0.0,0.0,0.0,0.0,0.0,0.0,0.0,0.0,0.0,0.0,0.0,0.0,0.0,0.0,0.0,0.0,0.0,0.0,0.3615,0.4793,0.6376,0.7609,0.7988,0.7988,0.7988,0.7988,0.7988,0.7988,0.7988,0.7988,0.7988,0.7988,0.7988,0.7988,0.7988,0.7988,0.7988,0.7988,0.7988,0.7988,0.7988,0.7988,0.7988,0.7988,0.7988,0.7988,0.7988,0.7988,0.7988,0.7988,0.8088,0.892,1.0071,1.1312,1.2503,1.3806,1.5045,1.5635,1.5801,1.5801,1.5801,1.5801,1.5801,1.5801,1.5801,1.5801,1.5801,1.5801,1.5801,1.5801,1.5801,1.5801,1.5801,1.5801,1.5801,1.5801,1.5801,1.5801,1.5801,1.5801,1.5801,1.5801,1.5801,1.5801,1.5801]},{"header":{"parameterUnit":"m.s-1","parameterCategory":1,"la1":31.0,"la2":29.5877,"lo1":-88.7671,"lo2":-86.6584,"dy":0.0162,"dx":0.0185,"nx":115,"ny":88,"refTime":"2025-04-13T12:00:00:Z","depth":0,"parameterNumber":3,"parameterNumberName":"V-component_of_WINDS"},"data":[0.0,0.0,0.0,0.0,0.0,0.0,0.0,0.0,0.0,0.0,0.0,0.0,0.0,0.0,0.0,0.0,0.0,0.0,0.0,0.0,0.0,0.0,0.0,0.0,0.0,0.0,0.0,0.0,0.0,0.0,0.0,0.0,0.0,0.0,0.0,0.0,0.0,0.0,0.0,0.0,0.0,0.0,0.0,0.0,0.0,0.0,0.0,0.0,0.0,0.0,0.0,0.0,0.0,0.0,0.0,0.0,0.0,0.0,0.0,0.0,0.0,0.0,0.0,0.0,0.0,0.0,0.0,0.0,0.0,0.0,0.0,0.0,0.0,0.0,0.0,0.0,0.0,0.0,0.0,0.0,0.0,0.0,0.0,0.0,0.0,0.0,0.0,0.0,0.0,0.0,0.0,0.0,0.0,0.0,0.0,0.0,0.0,0.0,0.0,0.0,0.0,0.0,0.0,0.0,0.0,0.0,0.0,0.0,0.0,0.0,0.0,0.0,0.0,0.0,0.0,0.0,0.0,0.0,0.0,0.0,0.0,0.0,0.0,0.0,0.0,0.0,0.0,0.0,0.0,0.0,0.0,0.0,0.0,0.0,0.0,0.0,0.0,0.0,0.0,0.0,0.0,0.0,0.0,0.0,0.0,0.0,0.0,0.0,0.0,0.0,0.0,0.0,0.0,0.0,0.0,0.0,0.0,0.0,0.0,0.0,0.0,0.0,0.0,0.0,0.0,0.0,0.0,0.0,0.0,0.0,0.0,0.0,0.0,0.0,0.0,0.0,0.0,0.0,0.0,0.0,0.0,0.0,0.0,0.0,0.0,0.0,0.0,0.0,0.0,0.0,0.0,0.0,0.0,0.0,0.0,0.0,0.0,0.0,0.0,0.0,0.0,0.0,0.0,0.0,0.0,0.0,0.0,0.0,0.0,0.0,0.0,0.0,0.0,0.0,0.0,0.0,0.0,0.0,0.0,0.0,0.0,0.0,0.0,0.0,0.0,0.0,0.0,0.0,0.0,0.0,0.0,0.0,0.0,0.0,0.0,0.0,0.0,0.0,0.0,0.0,0.0,0.0,0.0,0.0,0.0,0.0,0.0,0.0,0.0,0.0,0.0,0.0,0.0,0.0,0.0,0.0,0.0,0.0,0.0,0.0,0.0,0.0,0.0,0.0,0.0,0.0,0.0,0.0,0.0,0.0,0.0,0.0,0.0,0.0,0.0,0.0,0.0,0.0,0.0,0.0,0.0,0.0,0.0,0.0,0.0,0.0,0.0,0.0,0.0,0.0,0.0,0.0,0.0,0.0,0.0,0.0,0.0,0.0,0.0,0.0,0.0,0.0,0.0,0.0,0.0,0.0,0.0,0.0,0.0,0.0,0.0,0.0,0.0,0.0,0.0,0.0,0.0,0.0,0.0,0.0,0.0,0.0,0.0,0.0,0.0,0.0,0.0,0.0,0.0,0.0,0.0,0.0,0.0,0.0,0.0,0.0,0.0,0.0,0.0,0.0,0.0,0.0,0.0,0.0,0.0,0.0,0.0,0.0,0.0,0.0,0.0,0.0,0.0,0.0,0.0,0.0,0.0,0.0,0.0,0.0,0.0,0.0,0.0,0.0,0.0,0.0,0.0,0.0,0.0,0.0,0.0,0.0,0.0,0.0,0.0,0.0,0.0,0.0,0.0,0.0,0.0,0.0,0.0,0.0,0.0,0.0,0.0,0.0,0.0,0.0,0.0,0.0,0.0,0.0,0.0,0.0,0.0,0.0,0.0,0.0,0.0,0.0,0.0,0.0,0.0,0.0,0.0,0.0,0.0,0.0,0.0,0.0,0.0,0.0,0.0,0.0,0.0,0.0,0.0,0.0,0.0,0.0,0.0,0.0,0.0,0.0,0.0,0.0,0.0,0.0,0.0,0.0,0.0,0.0,0.0,0.0,0.0,0.0,0.0,0.0,0.0,0.0,0.0,0.0,0.0,0.0,0.0,0.0,0.0,0.0,0.0,0.0,0.0,0.0,0.0,0.0,0.0,0.0,0.0,0.0,0.0,0.0,0.0,0.0,0.0,0.0,0.0,0.0,0.0,0.0,0.0,0.0,0.0,0.0,0.0,0.0,0.0,0.0,0.0,0.0,0.0,0.0,0.0,0.0,0.0,0.0,0.0,0.0,0.0,0.0,0.0,0.0,0.0,0.0,0.0,0.0,0.0,0.0,0.0,0.0,0.0,0.0,0.0,0.0,0.0,0.0,0.0,0.0,0.0,0.0,0.0,0.0,0.0,0.0,0.0,0.0,0.0,0.0,0.0,0.0,0.0,0.0,0.0,0.0,0.0,0.0,0.0,0.0,0.0,0.0,0.0,0.0,0.0,0.0,0.0,0.0,0.0,0.0,0.0,0.0,0.0,0.0,0.0,0.0,0.0,0.0,0.0,0.0,0.0,0.0,0.0,0.0,0.0,0.0,0.0,0.0,0.0,0.0,0.0,0.0,0.0,0.0,0.0,0.0,0.0,0.0,0.0,0.0,0.0,0.0,0.0,0.0,0.0,0.0,0.0,0.0,0.0,0.0,0.0,0.0,0.0,0.0,0.0,0.0,0.0,0.0,0.0,0.0,0.0,0.0,0.0,0.0,0.0,0.0,0.0,0.0,0.0,0.0,0.0,0.0,0.0,0.0,0.0,0.0,0.0,0.0,0.0,0.0,0.0,0.0,0.0,0.0,0.0,0.0,0.0,0.0,0.0,0.0,0.0,0.0,0.0,0.0,0.0,0.0,0.0,0.0,0.0,0.0,0.0,0.0,0.0,0.0,0.0,0.0,0.0,0.0,0.0,0.0,0.0,0.0,0.0,0.0,0.0,0.0,0.0,0.0,0.0,0.0,0.0,0.0,0.0,0.0,0.0,0.0,0.0,0.0,0.0,0.0,0.0,0.0,0.0,0.0,0.0,0.0,0.0,0.0,0.0,0.0,0.0,0.0,0.0,0.0,0.0,0.0,0.0,0.0,0.0,0.0,0.0,0.0,0.0,0.0,0.0,0.0,0.0,0.0,0.0,0.0,0.0,0.0,0.0,0.0,0.0,0.0,0.0,0.0,0.0,0.0,0.0,0.0,0.0,0.0,0.0,0.0,0.0,0.0,0.0,0.0,0.0,0.0,0.0,0.0,0.0,0.0,0.0,0.0,0.0,0.0,0.0,0.0,0.0,0.0,0.0,0.0,0.0,0.0,0.0,0.0,0.0,0.0,0.0,0.0,0.0,0.0,0.0,0.0,0.0,0.0,0.0,0.0,0.0,0.0,0.0,0.0,0.0,0.0,0.0,0.0,0.0,0.0,0.0,0.0,0.0,0.0,0.0,0.0,0.0,0.0,0.0,0.0,0.0,0.0,0.0,0.0,0.0,0.0,0.0,0.0,0.0,0.0,0.0,0.0,0.0,0.0,0.0,0.0,0.0,0.0,0.0,0.0,0.0,0.0,0.0,0.0,0.0,0.0,0.0,0.0,0.0,0.0,0.0,0.0,0.0,0.0,0.0,0.0,0.0,0.0,0.0,0.0,0.0,0.0,0.0,0.0,0.0,0.0,0.0,0.0,0.0,0.0,0.0,0.0,0.0,0.0,0.0,0.0,0.0,0.0,0.0,0.0,0.0,0.0,0.0,0.0,0.0,0.0,0.0,0.0,0.0,0.0,0.0,0.0,0.0,0.0,0.0,0.0,0.0,0.0,0.0,0.0,0.0,0.0,0.0,0.0,0.0,0.0,0.0,0.0,0.0,0.0,0.0,0.0,0.0,0.0,0.0,0.0,0.0,0.0,0.0,0.0,0.0,0.0,0.0,0.0,0.0,0.0,0.0,0.0,0.0,0.0,0.0,0.0,0.0,0.0,0.0,0.0,0.0,0.0,0.0,0.0,0.0,0.0,0.0,0.0,0.0,0.0,0.0,0.0,0.0,0.0,0.0,0.0,0.0,0.0,0.0,0.0,0.0,0.0,0.0,0.0,0.0,0.0,0.0,0.0,0.0,0.0,0.0,0.0,0.0,0.0,0.0,0.0,0.0,0.0,0.0,0.0,0.0,0.0,0.0,0.0,0.0,0.0,0.0,0.0,0.0,0.0,0.0,0.0,0.0,0.0,0.0,0.0,0.0,0.0,0.0,0.0,0.0,0.0,0.0,0.0,0.0,0.0,0.0,0.0,0.0,0.0,0.0,0.0,0.0,0.0,0.0,0.0,0.0,0.0,0.0,0.0,0.0,0.0,0.0,0.0,0.0,0.0,0.0,0.0,0.0,0.0,0.9698,0.0,0.0,0.0,0.0,0.0,0.0,0.0,0.0,0.0,0.0,0.0,0.0,0.0,0.0,0.0,0.0,0.0,0.0,0.0,0.0,0.0,0.0,0.0,0.0,0.0,0.0,0.0,0.0,0.0,0.0,0.0,0.0,0.0,0.0,0.0,0.0,0.0,0.0,0.0,0.0,0.0,0.0,0.0,0.0,0.0,0.0,0.0,0.0,0.0,0.0,0.0,0.0,0.0,0.0,0.0,0.0,0.0,0.0,0.0,0.0,0.0,0.0,0.0,0.0,0.0,0.0,0.0,0.0,0.0,0.0,0.0,0.0,0.0,0.0,0.0,0.0,0.0,0.0,0.0,0.0,0.0,0.0,0.0,0.0,0.0,0.0,0.0,0.0,0.0,0.0,0.0,0.0,0.0,0.0,0.0,0.0,0.0,0.0,0.0,0.0,0.0,0.0,0.0,0.0,0.0,0.0,0.0,0.0,0.0,0.0,0.9698,0.9698,0.9698,0.9698,0.9698,0.0,0.0,0.0,0.0,0.0,0.0,0.0,0.0,0.0,0.0,0.0,0.0,0.0,0.0,0.0,0.0,0.0,0.0,0.0,0.0,0.0,0.0,0.0,0.0,0.0,0.0,0.0,0.0,0.0,0.0,0.0,0.0,0.0,0.0,0.0,0.0,0.0,0.0,0.0,0.0,0.0,0.0,0.0,0.0,0.0,0.0,0.0,0.0,0.0,0.0,0.0,0.0,0.0,0.0,0.0,0.0,0.0,0.0,0.0,0.0,0.0,0.0,0.0,0.0,0.0,0.0,0.0,0.0,0.0,0.0,0.0,0.0,0.0,0.0,0.0,0.0,0.0,0.0,0.0,0.0,0.0,0.0,0.0,0.0,0.0,0.0,0.0,0.0,0.0,0.0,0.0,0.0,0.0,0.0,0.0,0.0,0.0,0.0,0.0,0.0,0.0,0.0,0.0,0.0,0.0,0.0,0.0,0.0,0.0,0.0,0.0,0.0,0.9976,0.9974,0.997,0.0,0.0,0.0,0.0,0.0,0.0,0.0,0.0,0.0,0.0,0.0,0.0,0.0,0.0,0.0,0.0,0.0,0.0,0.0,0.0,0.0,0.0,0.0,0.0,0.0,0.0,0.0,0.0,0.0,0.0,0.0,0.0,0.0,0.0,0.0,0.0,0.0,0.0,0.0,0.0,0.0,0.0,0.0,0.0,0.0,0.0,0.0,0.0,0.0,0.0,0.0,0.0,0.0,0.0,0.0,0.0,0.0,0.0,0.0,0.0,0.0,0.0,0.0,0.0,0.0,0.0,0.0,0.0,0.0,0.0,0.0,0.0,0.0,0.0,0.0,0.0,0.0,0.0,0.0,0.0,0.0,0.0,0.0,0.0,0.0,0.0,0.0,0.0,0.0,0.0,0.0,0.0,0.0,0.0,0.0,0.0,0.0,0.0,0.0,0.0,0.0,0.0,0.0,0.0,0.0,0.0,0.0,0.0,0.0,0.0,1.0062,1.0769,1.0785,0.0,1.0785,0.0,0.0,0.0,0.0,0.0,0.0,0.0,0.0,0.0,0.0,0.0,0.0,0.0,0.0,0.0,0.0,0.0,0.0,0.0,0.0,0.0,0.0,0.0,0.0,0.0,0.0,0.0,0.0,0.0,0.0,0.0,0.0,0.0,0.0,0.0,0.0,0.0,0.0,0.0,0.0,0.0,0.0,0.0,0.0,0.0,0.0,0.0,0.0,0.0,0.0,0.0,0.0,0.0,0.0,0.0,0.0,0.0,0.0,0.0,0.0,0.0,0.0,0.0,0.0,0.0,0.0,0.0,0.0,0.0,0.0,0.0,0.0,0.0,0.0,0.0,0.0,0.0,0.0,0.0,0.0,0.0,0.0,0.0,0.0,0.0,0.0,0.0,0.0,0.0,0.0,0.0,0.0,0.0,0.0,0.0,0.0,0.0,0.0,0.0,0.0,0.0,0.0,0.0,0.0,0.0,0.0,0.0,0.0,0.0,0.0,0.0,1.0891,1.0891,1.0891,0.0,0.0,0.0,0.0,0.0,0.0,0.0,0.0,0.0,0.0,0.0,0.0,0.0,0.0,0.0,0.0,0.0,0.0,0.0,0.0,0.0,0.0,0.0,0.0,0.0,0.0,0.0,0.0,0.0,0.0,0.0,0.0,0.0,0.0,0.0,0.0,0.0,0.0,0.0,0.0,0.0,0.0,0.0,0.0,0.0,0.0,0.0,0.0,0.0,0.0,0.0,0.0,0.0,0.0,0.0,0.0,0.0,0.0,0.0,0.0,0.0,0.0,0.0,0.0,0.0,0.0,0.0,0.0,0.0,0.0,0.0,0.0,0.0,0.0,0.0,0.0,0.0,0.0,0.0,0.0,0.0,0.0,0.0,0.0,0.0,0.0,0.0,0.0,0.0,0.0,0.0,0.0,0.0,0.0,0.0,0.0,0.0,0.0,0.0,0.0,0.0,0.0,0.0,0.0,0.0,0.0,0.0,0.0,0.0,0.0,1.0716,0.0,1.1207,1.1228,1.1132,1.0909,0.0,0.0,0.0,0.0,0.0,0.0,0.0,0.0,0.0,0.0,0.0,0.0,0.0,0.0,0.0,0.0,0.0,0.0,0.0,0.0,0.0,0.0,0.0,0.0,0.0,0.0,0.0,0.0,0.0,0.0,0.0,0.0,0.0,0.0,0.0,0.0,0.0,0.0,0.0,0.0,0.0,0.0,0.0,0.0,0.0,0.0,0.0,0.0,0.0,0.0,0.0,0.0,0.0,0.0,0.0,0.0,0.0,0.0,0.0,0.0,0.0,0.0,0.0,0.0,0.0,0.0,0.0,0.0,0.0,0.0,0.0,0.0,0.0,0.0,0.0,0.0,0.0,0.0,0.0,0.0,0.0,0.0,0.0,0.0,0.0,0.0,0.0,0.0,0.0,0.0,0.0,0.0,0.0,0.0,0.0,0.0,0.0,0.0,0.0,0.0,0.0,0.0,0.0,0.0,0.0,0.0,0.0,0.0,0.0,1.1262,1.1264,1.2003,1.2056,1.1686,0.0,0.0,0.0,0.0,0.0,0.0,0.0,0.0,0.0,0.0,0.0,0.0,0.0,0.0,0.0,0.0,0.0,0.0,0.0,0.0,0.0,0.0,0.0,0.0,0.0,0.0,0.0,0.0,0.0,0.0,0.0,0.0,0.0,0.0,0.0,0.0,0.0,0.0,0.0,0.0,0.0,0.0,0.0,0.0,0.0,0.0,0.0,0.0,0.0,0.0,0.0,0.0,0.0,0.0,0.0,0.0,0.0,0.0,0.0,0.0,0.0,0.0,0.0,0.0,0.0,0.0,0.0,0.0,0.0,0.0,0.0,0.0,0.0,0.0,0.0,0.0,0.0,0.0,0.0,0.0,0.0,0.0,0.0,0.0,0.0,0.0,0.0,0.0,0.0,0.0,0.0,0.0,0.0,0.0,0.0,0.0,0.0,0.0,0.0,0.0,0.0,0.0,0.0,0.0,0.0,0.0,0.0,0.0,0.0,1.0519,1.0765,1.1524,1.2782,1.187,1.145,0.0,0.0,0.0,0.0,0.0,0.0,0.0,0.0,0.0,0.0,0.0,0.0,0.0,0.0,0.0,0.0,0.0,0.0,0.0,0.0,0.0,0.0,0.0,0.0,0.0,0.0,0.0,0.0,0.0,0.0,0.0,0.0,0.0,0.0,0.0,0.0,0.0,0.0,0.0,0.0,0.0,0.0,0.0,0.0,0.0,0.0,0.0,0.0,0.0,0.0,0.0,0.0,0.0,0.0,0.0,0.0,0.0,0.0,0.0,0.0,0.0,0.0,0.0,0.0,0.0,0.0,0.0,0.0,0.0,0.0,0.0,0.0,0.0,0.0,0.0,0.0,0.0,0.0,0.0,0.0,0.0,0.0,0.0,0.0,0.0,0.0,0.0,0.0,0.0,0.0,0.0,0.0,0.0,0.0,0.0,0.0,0.0,0.0,0.0,0.0,0.0,0.0,0.0,0.0,0.0,0.0,0.0,0.0,0.0,1.049,0.0,1.2097,0.0,1.1856,1.1285,0.0,0.0,0.0,0.0,0.0,0.0,0.0,0.0,0.0,0.0,0.0,0.0,0.0,0.0,0.0,0.0,0.0,0.0,0.0,0.0,0.0,0.0,0.0,0.0,0.0,0.0,0.0,0.0,0.0,0.0,0.0,0.0,0.0,0.0,0.0,0.0,0.0,0.0,0.0,0.0,0.0,0.0,0.0,0.0,0.0,0.0,0.0,0.0,0.0,0.0,0.0,0.0,0.0,0.0,0.0,0.0,0.0,0.0,0.0,0.0,0.0,0.0,0.0,0.0,0.0,0.0,0.0,0.0,0.0,0.0,0.0,0.0,0.0,0.0,0.0,0.0,0.0,0.0,0.0,0.0,0.0,0.0,0.0,0.0,0.0,0.0,0.0,0.0,0.0,0.0,0.0,0.0,0.0,0.0,0.0,0.0,0.0,0.0,0.0,0.0,0.0,0.0,0.0,0.0,0.0,0.0,0.0,0.0,1.0488,1.1989,1.2837,1.2892,1.2173,1.2097,1.1328,0.0,0.0,0.0,0.0,0.0,0.0,0.0,0.0,0.0,0.0,0.0,0.0,0.0,0.0,0.0,0.0,0.0,0.0,0.0,0.0,0.0,0.0,0.0,0.0,0.0,0.0,0.0,0.0,0.0,0.0,0.0,0.0,0.0,0.0,0.0,0.0,0.0,0.0,0.0,0.0,0.0,0.0,0.0,0.0,0.0,0.0,0.0,0.0,0.0,0.0,0.0,0.0,0.0,0.0,0.0,0.0,0.0,0.0,0.0,0.0,0.0,0.0,0.0,0.0,0.0,0.0,0.0,0.0,0.0,0.0,0.0,0.0,0.0,0.0,0.0,0.0,0.0,0.0,0.0,0.0,0.0,0.0,0.0,0.0,0.0,0.0,0.0,0.0,0.0,0.0,0.0,0.0,0.0,0.0,0.0,0.0,0.0,0.0,0.0,0.0,0.0,0.0,0.0,0.0,0.0,0.0,0.0,0.0,0.0,1.1281,1.2593,1.344,1.3686,1.2145,1.1565,0.0,0.0,0.0,0.0,0.0,0.0,0.0,0.0,0.0,0.0,0.0,0.0,0.0,0.0,0.0,0.0,0.0,0.0,0.0,0.0,0.0,0.0,0.0,0.0,0.0,0.0,0.0,0.0,0.0,0.0,0.0,0.0,0.0,0.0,0.0,0.0,0.0,0.0,0.0,0.0,0.0,0.0,0.0,0.0,0.0,0.0,0.0,0.0,0.0,0.0,0.0,0.0,0.0,0.0,0.0,0.0,0.0,0.0,0.0,0.0,0.0,0.0,0.0,0.0,0.0,0.0,0.0,0.0,0.0,0.0,0.0,0.0,0.0,0.0,0.0,0.0,0.0,0.0,0.0,0.0,0.0,0.0,0.0,0.0,0.0,0.0,0.0,0.0,0.0,0.0,0.0,0.0,0.0,0.0,0.0,0.0,0.0,0.0,0.0,0.0,0.0,0.0,0.0,0.0,0.0,0.0,0.0,0.0,0.0,1.2735,1.3679,1.4285,1.4488,1.2748,1.1982,1.2341,0.0,0.0,0.0,0.0,0.0,0.0,0.0,0.0,0.0,0.0,0.0,0.0,0.0,0.0,0.0,0.0,0.0,0.0,0.0,0.0,0.0,0.0,0.0,0.0,0.0,0.0,0.0,0.0,0.0,0.0,0.0,0.0,0.0,0.0,0.0,0.0,0.0,0.0,0.0,0.0,0.0,0.0,0.0,0.0,0.0,0.0,0.0,0.0,0.0,0.0,0.0,0.0,0.0,0.0,0.0,0.0,0.0,0.0,0.0,0.0,0.0,0.0,0.0,0.0,0.0,0.0,0.0,0.0,0.0,0.0,0.0,0.0,0.0,0.0,0.0,0.0,0.0,0.0,0.0,0.0,0.0,0.0,0.0,0.0,0.0,0.0,0.0,0.0,0.0,0.0,0.0,0.0,0.0,0.0,0.0,0.0,0.0,0.0,0.0,0.0,0.0,0.0,0.0,0.0,0.0,0.0,0.0,0.0,1.5808,1.5915,1.5622,1.4824,1.3883,1.2648,0.0,0.0,0.0,0.0,0.0,0.0,0.0,0.0,0.0,0.0,0.0,0.0,0.0,0.0,0.0,0.0,0.0,0.0,0.0,0.0,0.0,0.0,0.0,0.0,0.0,0.0,0.0,0.0,0.0,0.0,0.0,0.0,0.0,0.0,0.0,0.0,0.0,0.0,0.0,0.0,0.0,0.0,0.0,0.0,0.0,0.0,0.0,0.0,0.0,0.0,0.0,0.0,0.0,0.0,0.0,0.0,0.0,0.0,0.0,0.0,0.0,0.0,0.0,0.0,0.0,0.0,0.0,0.0,0.0,0.0,0.0,0.0,0.0,0.0,0.0,0.0,0.0,0.0,0.0,0.0,0.0,0.0,0.0,0.0,0.0,0.0,0.0,0.0,0.0,0.0,0.0,0.0,0.0,0.0,0.0,0.0,0.0,0.0,0.0,0.0,0.0,0.0,0.0,0.0,0.0,0.0,0.0,0.0,0.0,1.7417,1.8621,1.886,1.8027,1.5548,1.3995,0.0,0.0,0.0,0.0,0.0,0.0,0.0,0.0,0.0,0.0,0.0,0.0,0.0,0.0,0.0,0.0,0.0,0.0,0.0,0.0,0.0,0.0,0.0,0.0,0.0,0.0,0.0,0.0,0.0,0.0,0.0,0.0,0.0,0.0,0.0,0.0,0.0,0.0,0.0,0.0,0.0,0.0,0.0,0.0,0.0,0.0,0.0,0.0,0.0,0.0,0.0,0.0,0.0,0.0,0.0,0.0,0.0,0.0,0.0,0.0,0.0,0.0,0.0,0.0,0.0,0.0,0.0,0.0,0.0,0.0,0.0,0.0,0.0,0.0,0.0,0.0,0.0,0.0,0.0,0.0,0.0,0.0,0.0,0.0,0.0,0.0,0.0,0.0,0.0,0.0,0.0,0.0,0.0,0.0,0.0,0.0,0.0,0.0,0.0,0.0,0.0,0.0,0.0,0.0,0.0,0.0,0.0,0.0,1.6692,1.9058,2.0364,2.0992,2.0849,1.8038,1.5869,0.0,0.0,0.0,0.0,0.0,0.0,0.0,0.0,0.0,0.0,0.0,0.0,0.0,0.0,0.0,0.0,0.0,0.0,0.0,0.0,0.0,0.0,0.0,0.0,0.0,0.0,0.0,0.0,0.0,0.0,0.0,0.0,0.0,0.0,0.0,0.0,0.0,0.0,0.0,0.0,0.0,0.0,0.0,0.0,0.0,0.0,0.0,0.0,0.0,0.0,0.0,0.0,0.0,0.0,0.0,0.0,0.0,0.0,0.0,0.0,0.0,0.0,0.0,0.0,0.0,0.0,0.0,0.0,0.0,0.0,0.0,0.0,0.0,0.0,0.0,0.0,0.0,0.0,0.0,0.0,0.0,0.0,0.0,0.0,0.0,0.0,0.0,0.0,0.0,0.0,0.0,0.0,0.0,0.0,0.0,0.0,0.0,0.0,0.0,0.0,0.0,0.0,0.0,0.0,0.0,0.0,0.0,0.0,1.8284,2.058,2.1551,2.2359,2.2896,2.0592,1.7883,0.0,0.0,0.0,0.0,0.0,0.0,0.0,0.0,0.0,0.0,0.0,0.0,0.0,0.0,0.0,0.0,0.0,0.0,0.0,0.0,0.0,0.0,0.0,0.0,0.0,0.0,0.0,0.0,0.0,0.0,0.0,0.0,0.0,0.0,0.0,0.0,0.0,0.0,0.0,0.0,0.0,0.0,0.0,0.0,0.0,0.0,0.0,0.0,0.0,0.0,0.0,0.0,0.0,0.0,0.0,0.0,0.0,0.0,0.0,0.0,0.0,0.0,0.0,0.0,0.0,0.0,0.0,0.0,0.0,0.0,0.0,0.0,0.0,0.0,0.0,0.0,0.0,0.0,0.0,0.0,0.0,0.0,0.0,0.0,0.0,0.0,0.0,0.0,0.0,0.0,0.0,0.0,0.0,0.0,0.0,0.0,0.0,0.0,0.0,0.0,0.0,0.0,0.0,0.0,0.0,0.0,0.0,0.0,1.9675,2.15,2.2951,2.3456,2.3006,2.0597,1.8372,0.0,0.0,0.0,0.0,0.0,0.0,0.0,0.0,0.0,0.0,0.0,0.0,0.0,0.0,0.0,0.0,0.0,0.0,0.0,0.0,0.0,0.0,0.0,0.0,0.0,0.0,0.0,0.0,0.0,0.0,0.0,0.0,0.0,0.0,0.0,0.0,0.0,0.0,0.0,0.0,0.0,0.0,0.0,0.0,0.0,0.0,0.0,0.0,1.2342,0.0,0.0,0.0,0.0,0.0,0.0,0.0,0.0,0.0,0.0,0.0,0.0,0.0,0.0,0.0,0.0,0.0,0.0,0.0,0.0,0.0,0.0,0.0,0.0,0.0,0.0,0.0,0.0,0.0,0.0,0.0,0.0,0.0,0.0,0.0,0.0,0.0,0.0,0.0,0.0,0.0,0.0,0.0,0.0,0.0,0.0,0.0,0.0,0.0,0.0,0.0,0.0,0.0,0.0,0.0,0.0,0.0,0.0,0.0,2.0666,2.2336,2.357,2.3988,2.3506,2.1555,1.9513,0.0,0.0,0.0,0.0,0.0,0.0,0.0,0.0,0.0,0.0,0.0,0.0,0.0,0.0,0.0,0.0,0.0,0.0,0.0,0.0,0.0,0.0,0.0,0.0,0.0,0.0,0.0,0.0,0.0,0.0,0.0,0.0,0.0,0.0,0.0,0.0,0.0,0.0,0.0,0.0,0.0,0.0,0.0,0.0,0.0,0.0,0.0,0.0,0.0,0.0,0.0,0.0,0.0,0.0,0.0,0.0,0.0,0.0,0.0,0.0,0.0,0.0,0.0,0.0,0.0,0.0,0.0,0.0,0.0,0.0,0.0,0.0,0.0,0.0,0.0,0.0,0.0,0.0,0.0,0.0,0.0,0.0,0.0,0.0,0.0,0.0,0.0,0.0,0.0,0.0,0.0,0.0,0.0,0.0,0.0,0.0,0.0,0.0,0.0,0.0,0.0,0.0,0.0,0.0,0.0,0.0,0.0,1.912,2.1373,2.3116,2.3841,2.4194,2.4176,2.2763,2.0817,1.8368,0.0,0.0,0.0,0.0,0.0,0.0,0.0,0.0,0.0,0.0,0.0,0.0,0.0,0.0,0.0,0.0,0.0,0.0,0.0,0.0,0.0,0.0,0.0,0.0,0.0,0.0,0.0,0.0,0.0,0.0,0.0,0.0,0.0,0.0,0.0,0.0,0.0,0.0,1.1661,1.373,0.0,0.0,0.0,0.0,0.0,0.0,0.0,0.0,1.3121,0.0,0.0,0.0,0.0,0.0,0.0,0.0,0.0,0.0,0.0,0.0,0.0,0.0,0.0,0.0,0.0,0.0,0.0,0.0,0.0,0.0,0.0,0.0,0.0,0.0,0.0,0.0,0.0,0.0,0.0,0.0,0.0,0.0,0.0,0.0,0.0,0.0,0.0,0.0,0.0,0.0,0.0,0.0,0.0,0.0,0.0,0.0,0.0,0.0,0.0,0.0,0.0,0.0,0.0,0.0,0.0,1.9645,2.025,2.1626,2.3933,2.4139,2.4194,2.4176,2.329,2.1639,1.9168,0.0,0.0,0.0,0.0,0.0,0.0,0.0,0.0,0.0,0.0,0.0,0.0,0.0,0.0,0.0,0.0,0.0,0.0,0.0,0.0,0.0,0.0,0.0,0.0,0.0,0.0,0.0,0.0,0.0,0.0,0.0,0.0,0.0,0.0,0.0,0.0,0.0,0.0,0.0,1.6762,1.7974,0.0,0.0,0.0,0.0,0.0,0.0,0.0,0.0,1.3117,0.0,0.0,0.0,0.0,0.0,0.0,0.0,0.0,0.0,0.0,0.0,0.0,0.0,0.0,0.0,0.0,0.0,0.0,0.0,0.0,0.0,0.0,0.0,0.0,0.0,0.0,0.0,0.0,0.0,0.0,0.0,0.0,0.0,0.0,0.0,0.0,0.0,0.0,0.0,0.0,0.0,0.0,0.0,0.0,0.0,0.0,0.0,0.0,0.0,0.0,0.0,0.0,0.0,0.0,0.0,1.9124,2.0515,2.2152,2.4121,2.4194,2.4194,2.4158,2.2588,2.096,0.0,0.0,0.0,0.0,0.0,0.0,0.0,0.0,0.0,0.0,0.0,0.0,0.0,0.0,0.0,0.0,0.0,0.0,0.0,0.0,0.0,0.0,0.0,0.0,0.0,0.0,0.0,0.0,0.0,0.0,0.0,0.0,0.0,0.0,0.0,0.0,0.0,0.0,0.0,0.0,1.7411,1.8341,1.8369,0.0,0.0,0.0,0.0,0.0,0.0,1.5204,1.4377,0.0,0.0,0.0,0.0,0.0,0.0,0.0,0.0,0.0,0.0,0.0,0.0,0.0,0.0,0.0,0.0,0.0,0.0,0.0,0.0,0.0,0.0,0.0,0.0,0.0,0.0,0.0,0.0,0.0,0.0,0.0,0.0,0.0,0.0,0.0,0.0,0.0,0.0,0.0,0.0,0.0,0.0,0.0,0.0,0.0,0.0,0.0,0.0,0.0,0.0,0.0,0.0,0.0,0.0,0.0,1.8317,2.0619,2.2584,2.4121,2.4224,2.4252,2.4215,2.2379,2.0735,0.0,0.0,0.0,0.0,0.0,0.0,0.0,0.0,0.0,0.0,0.0,0.0,0.0,0.0,0.0,0.0,0.0,0.0,0.0,0.0,0.0,0.0,0.0,0.0,0.0,0.0,0.0,0.0,0.0,0.0,0.0,0.0,0.0,0.0,0.0,0.0,0.0,0.0,0.0,0.0,0.0,1.8797,1.9074,1.8611,0.0,0.0,0.0,0.0,1.7326,1.6751,0.0,0.0,0.0,0.0,0.0,0.0,0.0,0.0,0.0,0.0,0.0,0.0,0.0,0.0,0.0,0.0,0.0,0.0,0.0,0.0,0.0,0.0,0.0,0.0,0.0,0.0,0.0,0.0,0.0,0.0,0.0,0.0,0.0,0.0,0.0,0.0,0.0,0.0,0.0,0.0,0.0,0.0,0.0,0.0,0.0,0.0,0.0,0.0,0.0,0.0,0.0,0.0,0.0,0.0,0.0,0.0,1.9073,2.0898,2.2602,2.4107,2.4356,2.4465,2.4465,2.4343,2.2796,0.0,0.0,0.0,0.0,0.0,0.0,0.0,0.0,0.0,0.0,0.0,0.0,0.0,0.0,0.0,0.0,0.0,0.0,0.0,0.0,0.0,0.0,0.0,0.0,0.0,0.0,0.0,0.0,0.0,0.0,0.0,0.0,0.0,0.0,0.0,0.0,0.0,0.0,0.0,0.0,0.0,2.1316,2.0042,1.9788,1.9484,0.0,0.0,1.8877,1.9524,1.9006,0.0,0.0,0.0,0.0,0.0,0.0,0.0,0.0,0.0,0.0,0.0,0.0,0.0,0.0,0.0,0.0,0.0,0.0,0.0,0.0,0.0,0.0,0.0,0.0,0.0,0.0,0.0,0.0,0.0,0.0,0.0,0.0,0.0,0.0,0.0,0.0,0.0,0.0,0.0,0.0,0.0,0.0,0.0,0.0,0.0,0.0,0.0,0.0,0.0,0.0,0.0,0.0,0.0,0.0,0.0,1.6583,1.9432,2.1549,2.3271,2.4489,2.4623,2.467,2.4674,2.3407,2.171,0.0,0.0,0.0,0.0,0.0,0.0,0.0,0.0,0.0,0.0,0.0,0.0,0.0,0.0,0.0,0.0,0.0,0.0,0.0,0.0,0.0,0.0,0.0,0.0,0.0,0.0,0.0,0.0,0.0,0.0,0.0,0.0,0.0,0.0,0.0,0.0,0.0,0.0,0.0,0.0,0.0,0.0,2.1275,2.095,0.0,0.0,0.0,2.0629,2.0075,0.0,0.0,0.0,0.0,0.0,0.0,0.0,0.0,0.0,0.0,0.0,0.0,0.0,0.0,0.0,0.0,0.0,0.0,0.0,0.0,0.0,0.0,0.0,0.0,0.0,0.0,0.0,0.0,0.0,0.0,0.0,0.0,0.0,0.0,0.0,0.0,0.0,0.0,0.0,0.0,0.0,0.0,0.0,0.0,0.0,0.0,0.0,0.0,0.0,0.0,0.0,0.0,0.0,0.0,0.0,0.0,0.0,1.9619,2.2301,2.4035,2.4759,2.4847,2.4833,2.4818,2.2905,0.0,0.0,0.0,0.0,0.0,0.0,0.0,0.0,0.0,0.0,0.0,0.0,0.0,0.0,0.0,0.0,0.0,0.0,0.0,0.0,0.0,0.0,0.0,0.0,0.0,0.0,0.0,0.0,0.0,0.0,0.0,0.0,0.0,0.0,0.0,0.0,0.0,0.0,0.0,0.0,0.0,0.0,2.0714,2.187,2.1718,2.1546,0.0,0.0,2.1958,2.1011,2.1671,2.1333,0.0,0.0,0.0,0.0,0.0,0.0,0.0,0.0,0.0,0.0,0.0,0.0,0.0,0.0,0.0,0.0,0.0,0.0,0.0,0.0,0.0,0.0,0.0,0.0,0.0,0.0,0.0,0.0,0.0,0.0,0.0,0.0,0.0,0.0,0.0,0.0,0.0,0.0,0.0,0.0,0.0,0.0,0.0,0.0,0.0,0.0,0.0,0.0,0.0,0.0,0.0,0.0,0.0,0.0,0.0,1.9816,2.3025,2.4733,2.4811,2.4914,2.4989,2.4973,2.4286,2.2602,0.0,0.0,0.0,0.0,0.0,0.0,0.0,0.0,0.0,0.0,0.0,0.0,0.0,0.0,0.0,0.0,0.0,0.0,0.0,0.0,0.0,0.0,0.0,0.0,0.0,0.0,0.0,0.0,0.0,0.0,0.0,0.0,0.0,0.0,0.0,0.0,0.0,0.0,0.0,0.0,0.0,2.1156,2.1265,2.182,2.2472,0.0,0.0,2.2506,2.3088,2.2675,2.1525,1.9198,0.0,0.0,0.0,0.0,0.0,0.0,0.0,0.0,0.0,0.0,0.0,0.0,0.0,0.0,0.0,0.0,0.0,0.0,0.0,0.0,0.0,0.0,0.0,0.0,0.0,0.0,0.0,0.0,0.0,0.0,0.0,0.0,0.0,0.0,0.0,0.0,0.0,0.0,0.0,0.0,0.0,0.0,0.0,0.0,0.0,0.0,0.0,0.0,0.0,0.0,0.0,0.0,0.0,1.8194,1.9977,2.3229,2.4997,2.5109,2.5165,2.5173,2.5195,2.3962,2.2285,0.0,0.0,0.0,0.0,0.0,0.0,0.0,0.0,0.0,0.0,0.0,0.0,0.0,0.0,0.0,0.0,0.0,0.0,0.0,0.0,0.0,0.0,0.0,0.0,0.0,0.0,0.0,0.0,1.07,1.0615,0.9692,0.0,0.0,0.0,0.0,0.0,0.0,0.0,0.0,0.0,0.0,2.203,2.2486,2.3197,0.0,0.0,2.4222,2.412,2.3477,2.3552,2.2723,2.002,1.975,0.0,0.0,0.0,0.0,0.0,0.0,0.0,0.0,0.0,0.0,0.0,0.0,0.0,0.0,0.0,0.0,0.0,0.0,0.0,0.0,0.0,0.0,0.0,0.0,0.0,0.0,0.0,0.0,0.0,0.0,0.0,0.0,0.0,0.0,0.0,0.0,0.0,0.0,0.0,0.0,0.0,0.0,0.0,0.0,0.0,0.0,0.0,0.0,0.0,0.0,0.0,0.0,1.8316,2.015,2.3418,2.5157,2.5303,2.5308,2.5308,2.525,2.3928,2.2339,0.0,0.0,0.0,0.0,0.0,0.0,0.0,0.0,0.0,0.0,0.0,0.0,0.0,0.0,0.0,0.0,0.0,0.0,0.0,0.0,0.0,0.0,0.0,0.0,0.0,0.0,0.0,0.0,1.1393,1.1127,0.9863,0.0,0.0,0.0,0.0,0.0,0.0,0.0,0.0,0.0,0.0,2.2785,2.3328,2.4129,2.4711,2.4811,2.4881,2.4661,2.384,2.3975,2.3306,2.0781,0.0,0.0,0.0,0.0,0.0,0.0,0.0,0.0,0.0,0.0,0.0,0.0,0.0,0.0,0.0,0.0,0.0,0.0,0.0,0.0,0.0,0.0,0.0,0.0,0.0,0.0,0.0,0.0,0.0,0.0,1.0066,0.0,0.0,0.0,0.0,0.0,0.0,0.0,0.0,0.0,0.0,0.0,0.0,0.0,0.0,0.0,0.0,0.0,0.0,0.0,0.0,0.0,0.0,1.8554,2.0325,2.3606,2.5284,2.5308,2.5308,2.5308,2.5288,2.4488,2.3208,2.1352,0.0,0.0,0.0,0.0,0.0,0.0,0.0,0.0,0.0,0.0,0.0,0.0,0.0,0.0,0.0,0.0,0.0,0.0,0.0,0.0,0.0,0.0,0.0,0.0,0.0,0.0,1.1164,1.0487,0.9866,0.0,0.0,0.0,0.0,0.0,0.0,0.0,0.0,0.0,0.0,2.2089,2.3319,2.3429,2.4385,2.5254,2.557,2.444,2.3746,2.4404,2.3915,2.2902,0.0,0.0,0.0,0.0,0.0,0.0,0.0,0.0,0.0,0.0,0.0,0.0,0.0,0.0,0.0,0.0,0.0,0.0,0.0,0.0,0.0,0.0,0.0,0.0,0.0,0.0,0.0,1.4735,1.3962,0.0,0.0,0.0,0.0,0.0,0.0,0.0,0.0,0.0,0.0,0.0,1.9436,2.0418,0.0,0.0,0.0,0.0,0.0,0.0,0.0,0.0,0.0,0.0,0.0,0.0,1.9392,2.1139,2.3887,2.5308,2.5308,2.5308,2.5308,2.5308,2.4526,2.2732,1.9833,0.0,0.0,0.0,0.0,0.0,0.0,0.0,0.0,0.0,0.0,0.0,0.0,0.0,0.0,0.0,0.0,0.0,0.0,0.0,0.0,0.0,0.0,0.0,0.0,0.0,1.2626,0.0,0.0,0.0,0.0,0.0,0.0,0.0,0.0,0.0,0.0,0.0,2.0456,2.1425,2.321,2.4525,2.4769,2.5796,2.6695,0.0,0.0,0.0,0.0,0.0,0.0,0.0,0.0,0.0,0.0,0.0,0.0,0.0,0.0,2.1312,1.8352,1.7591,1.7659,1.8386,0.0,0.0,0.0,0.0,0.0,0.0,0.0,0.0,0.0,0.0,0.0,0.0,0.0,0.0,1.733,0.0,1.6518,0.0,0.0,0.0,0.0,0.0,0.0,0.0,0.0,2.0527,2.1354,2.1658,2.2395,2.2312,0.0,2.1191,1.9745,0.0,0.0,0.0,0.0,0.0,0.0,0.0,0.0,1.9971,2.1949,2.4154,2.5308,2.5308,2.5308,2.5308,2.5288,2.4526,2.2897,2.0336,1.9311,1.7609,0.0,0.0,0.0,0.0,0.0,0.0,0.0,0.0,0.0,0.0,0.0,0.0,0.0,0.0,0.0,0.0,0.0,0.0,0.0,0.0,0.0,0.0,0.0,1.3898,0.0,0.0,0.0,0.0,0.0,0.0,0.0,0.0,0.0,1.9402,2.097,2.2343,2.3354,2.4941,2.597,2.5939,0.0,0.0,0.0,0.0,0.0,0.0,0.0,2.5774,2.4751,2.5041,2.5033,2.3887,2.4303,2.4679,2.4243,0.0,0.0,2.0748,1.9919,1.997,2.071,2.1664,2.2416,2.2673,2.3688,2.4408,0.0,0.0,0.0,0.0,0.0,0.0,0.0,0.0,2.0427,1.9929,0.0,1.9115,0.0,0.0,0.0,0.0,0.0,2.1121,0.0,0.0,2.4077,2.4887,2.43,2.5002,2.4964,2.424,2.4904,2.3959,2.1462,1.8329,0.0,0.0,0.0,0.0,0.0,0.0,2.0337,2.2797,2.4464,2.5308,2.5308,2.5308,2.5308,2.5288,2.4546,2.3723,2.2851,2.1912,2.0314,1.7811,1.6647,0.0,0.0,0.0,0.0,0.0,0.0,0.0,0.0,0.0,0.0,0.0,0.0,0.0,0.0,0.0,0.0,0.0,0.0,0.0,0.0,1.4243,0.0,0.0,0.0,0.0,0.0,0.0,0.0,0.0,0.0,0.0,2.1299,2.2793,2.4434,2.588,0.0,0.0,0.0,0.0,2.8326,2.8092,2.8071,2.7836,2.7091,2.8198,2.8635,2.7141,0.0,0.0,2.6756,2.7006,2.7105,2.5991,2.6376,2.6335,2.4919,2.393,2.3688,2.4372,2.4534,2.4863,2.5533,2.6184,2.6708,2.4376,0.0,0.0,0.0,0.0,2.2177,2.2842,2.3898,2.3276,2.2526,2.172,2.1716,0.0,0.0,0.0,0.0,0.0,0.0,2.2697,2.4212,2.4981,2.5846,2.6815,2.7046,2.67,2.5911,2.614,2.5236,2.3374,2.2393,2.024,1.708,0.0,0.0,0.0,0.0,2.2376,2.3682,2.4772,2.5308,2.5308,2.5308,2.5308,2.5308,2.5077,2.4562,2.3761,2.3334,2.225,2.0369,1.8636,0.0,0.0,0.0,0.0,0.0,0.0,0.0,0.0,0.0,0.0,0.0,0.0,0.0,0.0,0.0,0.0,0.0,0.0,0.0,1.5179,1.535,1.5429,0.0,0.0,0.0,0.0,0.0,0.0,0.0,0.0,0.0,2.3773,2.4982,2.5967,0.0,0.0,2.7622,2.8282,2.889,2.9521,3.0288,3.0213,0.0,2.9773,2.9426,2.9212,2.9282,2.9683,2.9796,2.9251,2.9342,2.9359,2.8992,2.8856,2.8601,2.8171,2.682,2.609,2.6674,2.6852,2.7114,2.785,2.8205,2.835,2.6688,2.4295,2.4245,2.4538,2.4999,2.4979,2.554,2.6424,2.5931,2.5385,2.4897,2.4867,2.4109,2.2831,2.2817,0.0,0.0,0.0,2.4868,2.6327,2.6329,2.689,2.7854,2.789,2.7623,2.714,2.7123,2.6585,2.5589,2.5606,2.3949,2.079,0.0,0.0,2.1051,2.2203,2.3391,2.4546,2.5058,2.5308,2.5308,2.5308,2.5308,2.5308,2.5308,2.5058,2.4601,2.4458,2.3771,2.239,2.0507,1.8569,0.0,0.0,0.0,0.0,0.0,0.0,0.0,0.0,0.0,0.0,0.0,1.2045,0.0,0.0,0.0,0.0,1.3493,1.5365,1.7374,1.7477,0.0,0.0,0.0,0.0,0.0,0.0,0.0,2.1874,2.3639,2.5082,2.6016,2.7222,2.8038,2.8038,2.825,2.8773,2.9794,0.0,3.0566,3.1292,3.1499,3.1458,3.1149,3.1057,3.1167,3.1607,3.1672,3.1617,3.1468,3.1453,3.1314,3.0975,3.0678,3.0422,3.0246,2.925,2.8366,2.8315,2.85,2.8881,2.9373,2.966,2.988,2.8496,2.8496,2.8361,2.8229,2.8111,2.8106,2.8104,2.8104,2.8099,2.8117,2.8111,2.8051,2.7563,2.6803,2.6753,0.0,2.6752,2.7542,2.7932,2.8006,2.8026,2.8064,2.81,2.8144,2.8076,2.801,2.8007,2.7961,2.7873,2.7873,2.7082,2.5481,2.3175,2.2716,2.3995,2.3353,2.3755,2.5269,2.5288,2.5308,2.5308,2.5308,2.5308,2.5308,2.5308,2.5308,2.5288,2.5308,2.4868,2.3915,2.2188,2.0104,1.7711,0.0,0.0,0.0,0.0,0.0,0.0,0.0,0.0,0.0,0.0,0.0,0.0,0.0,0.0,0.0,1.5723,0.0,1.9348,2.0038,0.0,0.0,0.0,1.9794,2.0545,2.2145,2.3686,2.4967,0.0,0.0,2.7811,2.92,3.024,3.0277,3.0301,3.0595,3.139,3.1476,3.1525,3.1666,3.2228,3.2424,3.1891,3.2746,3.3515,3.3588,3.3807,3.3554,3.3216,3.3142,3.2852,3.2133,3.1951,3.1799,3.1413,3.1266,3.0866,2.9491,2.9739,3.0166,3.0217,3.0734,3.12,3.0189,3.0273,3.0251,2.9468,2.8256,2.82,2.8171,2.8168,2.8134,2.8117,2.8116,2.8079,2.7972,2.776,2.774,2.7731,2.775,2.7943,2.8424,2.9018,2.9038,2.9364,2.9945,2.9963,2.9577,2.8919,2.8896,2.8555,2.7915,2.789,2.77,2.7277,2.6662,2.5606,2.4165,2.4505,2.4904,2.5308,2.5308,2.5308,2.5308,2.5308,2.5308,2.5308,2.5308,2.5308,2.5308,2.5308,2.5194,2.4912,2.3087,2.173,2.1101,1.7293,0.0,0.0,0.0,0.0,0.0,0.0,0.0,0.0,0.0,1.4918,1.2299,0.0,1.6248,0.0,1.7674,1.9403,2.1027,2.0229,0.0,0.0,2.1569,2.1979,2.393,2.4574,2.5202,2.6117,2.7154,2.7811,2.7811,2.92,3.043,3.1023,3.1115,3.1409,3.2173,3.2314,3.2552,3.3073,3.3348,3.344,3.3238,3.3513,3.3807,3.3807,3.3807,3.3773,3.3691,3.3666,3.3578,3.335,3.3065,3.2848,3.2707,3.2442,3.1969,3.1293,3.1045,3.0937,3.0954,3.1522,3.2056,3.1862,3.1925,3.196,3.1398,3.0462,2.9726,2.9408,2.9407,2.9356,2.933,2.9348,2.9271,2.9461,2.9745,2.9373,2.9647,3.0294,2.9569,2.9683,3.0477,3.0124,3.016,3.0606,3.0606,3.0309,2.9836,2.9816,2.9577,2.9132,2.9076,2.8874,2.8488,2.8444,2.7546,2.5878,2.6233,2.6464,2.6464,2.6079,2.5692,2.5305,2.5308,2.5308,2.5308,2.5308,2.5308,2.5308,2.5308,2.5065,2.4508,2.3098,2.204,2.1479,1.8513,1.657,0.0,0.0,0.0,0.0,0.0,0.0,0.0,0.0,0.0,0.0,0.0,1.8122,1.8467,1.9671,2.1082,2.2726,2.2345,2.2712,2.4423,2.4208,2.4617,2.6292,2.6481,2.6783,2.758,2.8075,2.8484,2.8839,2.994,3.1042,3.1831,3.2247,3.2632,3.3029,3.314,3.3286,3.3733,3.3807,3.3807,3.3807,3.3807,3.3807,3.3807,3.3807,3.3807,3.3807,3.3807,3.3741,3.3557,3.3339,3.3131,3.2929,3.2697,3.2409,3.2222,3.2246,3.215,3.18,3.2293,3.278,3.3165,3.3203,3.3259,3.3302,3.3188,3.1813,3.123,3.1211,3.123,3.123,3.1211,3.1083,3.1444,3.2025,3.1298,3.1787,3.31,3.167,3.1357,3.2022,3.12,3.0789,3.0808,3.0691,3.0607,3.062,3.06,3.0613,3.0603,3.0546,3.0109,2.9397,2.9313,2.8931,2.8258,2.82,2.8126,2.7893,2.7156,2.6346,2.5478,2.5462,2.5423,2.5305,2.5308,2.5308,2.5308,2.5308,2.4821,2.3771,2.2909,2.2023,2.1078,1.9393,1.8401,0.0,1.7557,0.0,0.0,0.0,0.0,0.0,0.0,0.0,0.0,1.9572,2.0111,2.0892,2.1753,2.2877,2.4373,2.5131,2.5833,2.6515,2.668,2.7034,2.7714,2.7884,2.8222,2.8913,2.9097,2.9433,3.0057,3.098,3.1843,3.2479,3.3201,3.366,3.3788,3.3777,3.3752,3.3807,3.3807,3.3807,3.3807,3.3807,3.3807,3.3807,3.3807,3.3807,3.3807,3.3807,3.3687,3.3383,3.3335,3.3166,3.2737,3.2776,3.2805,3.2643,3.338,3.3697,3.2772,3.3107,3.3592,3.3104,3.3203,3.3259,3.3302,3.3267,3.3044,3.293,3.293,3.293,3.293,3.293,3.289,3.2967,3.3102,3.2945,3.3043,3.3336,3.3023,3.2965,3.3082,3.2281,3.191,3.1851,3.1168,3.0768,3.0685,3.0683,3.066,3.0604,3.0589,3.0466,3.027,3.0246,3.0143,2.9932,0.0,0.0,0.0,2.7717,2.7236,2.6387,2.6349,2.6019,2.5327,2.5308,0.0,2.5308,2.5308,2.5208,2.4949,2.3872,0.0,0.0,0.0,0.0,0.0,0.0,0.0,0.0,0.0,0.0,0.0,2.0075,1.9528,1.937,2.1143,2.2644,2.3437,2.4236,2.5099,2.6062,2.6277,2.6424,2.6607,2.7176,2.764,2.7811,2.8374,2.884,2.8987,2.9555,3.002,3.0283,3.1445,3.2406,3.2644,3.3286,3.377,3.3807,3.3807,3.3807,3.3807,3.3807,3.3807,3.3807,3.3807,3.3807,3.3807,3.3807,3.3807,3.3807,3.3807,3.3807,3.3716,3.3687,3.3684,3.3594,3.4061,3.4203,3.3272,3.4707,3.5471,3.3382,3.3975,3.4802,3.4268,0.0,3.4426,3.4448,0.0,3.4579,3.462,3.4582,3.3769,3.3379,3.3379,3.3379,3.3633,3.4023,3.3594,3.3867,3.4648,3.3809,3.3633,3.3984,3.3184,3.2793,3.2773,3.2344,3.1894,3.1438,3.1438,3.1217,3.0771,3.0669,3.0621,3.0606,3.0537,3.0489,3.0459,3.0422,2.9753,2.8511,2.8511,2.7873,2.6676,2.6618,2.6173,2.5344,2.5308,0.0,0.0,0.0,0.0,0.0,0.0,0.0,0.0,0.0,0.0,2.2438,2.1614,2.1129,2.1139,2.1473,2.2235,2.3446,2.3543,2.3011,2.1826,2.3598,2.4937,2.5346,2.5773,2.6319,2.7071,2.7194,2.7365,2.7726,2.8148,2.8387,2.8466,2.9103,2.9427,2.9189,3.0063,3.0785,3.0797,3.1806,3.2754,3.3146,3.3532,3.3807,3.3807,3.3807,3.3807,3.3807,3.3807,3.3807,3.3807,3.3807,3.3807,3.3807,3.3807,3.3807,3.3807,3.3807,3.3917,3.4277,3.4387,3.4497,3.4981,3.5378,3.5431,3.5017,3.5988,3.6618,3.5119,3.5391,3.5783,3.5503,3.5498,3.5588,3.5608,3.5609,3.58,3.5894,3.5807,0.0,0.0,0.0,3.3867,3.4258,3.4883,3.418,3.4648,3.5879,3.4531,3.4238,3.4883,3.4023,3.3633,3.3633,3.3476,3.3047,3.2422,3.2266,3.1816,3.1152,3.087,3.072,3.069,3.0595,3.0519,3.0494,3.0422,3.0061,2.9374,2.9316,2.8585,2.7101,2.6909,2.6406,2.5558,2.5363,2.5308,2.5308,2.5308,2.4919,2.4121,2.4014,2.3939,2.377,2.3637,2.3856,2.4497,2.4361,2.4311,2.4459,2.5045,2.5466,2.56,2.6337,2.6185,2.4727,2.5841,2.6662,2.6791,2.6814,2.7126,2.7934,2.8007,2.8264,2.8932,2.8987,2.9036,2.9201,2.9782,2.9959,2.9671,3.0742,3.1604,3.1629,3.232,3.3054,3.3623,3.3795,3.3807,3.3807,3.3807,3.3807,3.3807,3.3807,3.3807,3.3807,3.3807,3.3807,3.3807,3.3935,3.4009,3.4027,3.4009,3.4332,3.5103,3.5126,3.5334,3.6083,3.6376,3.6457,3.634,3.7063,3.7534,3.6997,3.6662,3.649,3.5503,3.5494,3.5568,3.5608,3.5621,3.5698,3.5798,3.5886,3.57,3.5644,3.5625,3.5625,3.5703,3.582,3.5703,3.5781,3.5976,3.5742,3.5723,3.5762,3.4922,3.4531,3.4473,3.375,3.334,3.3184,3.2539,3.2129,3.1953,3.123,3.0796,3.0716,3.0683,3.0604,3.0507,3.0441,3.0327,3.0231,3.0234,2.9734,2.878,2.8085,2.7316,2.6442,2.5692,2.5308,2.5308,2.5308,2.5243,2.5088,2.4927,2.4811,2.4784,2.4659,2.4647,2.473,2.4563,2.4746,2.5421,2.5442,2.5686,2.6397,2.7163,2.7242,2.6374,2.646,2.6906,2.753,2.7646,2.7952,2.8712,2.884,2.8932,2.8999,2.9023,2.9262,2.9928,3.0185,3.0467,3.0913,3.1843,3.2406,3.2442,3.3084,3.3605,3.377,3.3807,3.3807,3.3807,3.3807,3.3807,3.3807,3.3807,3.3807,3.3807,3.3807,3.3807,3.3807,3.4332,3.4656,3.4729,3.4729,3.5085,3.5954,3.5598,3.5536,3.6248,3.6879,3.7008,3.6714,3.7551,3.8174,3.7554,3.7235,3.6952,3.5503,3.5491,3.5531,3.5543,3.5535,3.5624,3.5702,3.578,3.5829,3.5884,3.5996,3.6016,3.6016,3.6016,3.6016,3.6016,3.6016,3.6016,3.6016,3.5976,3.5586,3.541,3.5371,3.5,3.457,3.4121,3.375,3.3086,3.2226,3.1797,3.1327,3.0833,3.0744,3.0659,3.0568,3.0493,3.045,3.0467,3.0428,2.9984,2.9127,2.8742,2.8145,2.7316,2.6464,2.6233,2.6697,2.6253,2.6,2.6,2.5929,2.5664,2.5195,2.5437,2.5616,2.5628,2.5865,2.6126,2.6329,2.6583,2.704,2.7813,2.824,2.8295,2.7947,2.7886,2.8051,2.8424,2.8833,2.9066,2.906,2.9776,3.0149,2.969,3.0038,3.0448,3.0815,3.1268,3.1488,3.1537,3.2492,3.3073,3.2644,3.3286,3.3807,3.3807,3.3807,3.3807,3.3807,3.3807,3.3807,3.3807,3.3807,3.3807,3.3807,3.3807,3.3807,3.3807,3.4094,3.4516,3.4857,3.5023,3.5555,3.6659,3.6585,3.6743,3.743,3.7889,3.7918,3.7845,3.8083,3.845,3.8208,3.7866,3.7213,3.5503,3.5503,3.5503,3.5503,3.5494,3.5547,3.5621,3.5669,3.5692,3.5777,3.5928,3.5954,3.5976,3.6016,3.6016,3.6016,3.6016,3.6016,3.6016,3.6016,3.6016,3.6016,3.6016,3.6016,3.5644,3.5019,3.4805,3.4023,3.2851,3.2402,3.1758,3.0976,3.0769,3.0678,3.0608,3.0546,3.0481,3.0492,3.0425,3.0077,2.9412,2.922,2.8797,2.8184,2.7335,2.7219,2.7838,2.7255,2.689,2.6906,2.6909,2.6599,2.5976,2.6381,2.6666,2.6711,2.711,2.7314,2.7242,2.7966,2.8686,2.9207,2.9445,2.9537,2.9537,2.9537,2.9445,2.939,2.9989,3.0204,2.9855,3.0613,3.1152,3.0601,3.1023,3.1409,3.1696,3.2247,3.2479,3.2143,3.3061,3.3525,3.3158,3.3396,3.3788,3.3807,3.3807,3.3807,3.3807,3.3807,3.3807,3.3807,3.3807,3.3807,3.3807,3.3807,3.3807,3.3807,3.4229,3.4761,3.525,3.5445,3.6087,3.7393,3.7566,3.7705,3.8432,3.8663,3.8634,3.8534,3.8626,3.8621,3.8418,3.8139,3.7524,3.5519,3.5503,3.5523,3.5503,3.5523,3.5543,3.559,3.5676,3.5628,3.5644,3.5852,3.587,3.5964,3.5996,3.6016,3.6016,3.6016,3.6016,3.6016,3.6016,3.6016,3.6016,3.6016,3.6016,3.5957,3.5762,3.5098,3.4629,3.4258,3.291,3.1777,3.0976,3.0769,3.0733,3.068,3.0565,3.0503,3.0479,3.0425,3.0362,3.0234,2.9528,2.9069,2.897,2.8203,2.7799,2.8005,2.7838,2.7777,2.7777,2.7777,2.7736,2.764,2.7706,2.7756,2.7734,2.766,2.768,2.8059,2.9467,3.022,3.0148,3.0711,3.1085,3.1127,3.1146,3.0858,3.046,3.0846,3.1207,3.117,3.1372,3.1482,3.1335,3.1452,3.1684,3.235,3.2546,3.2846,3.355,3.3667,3.3752,3.366,3.3733,3.3807,3.3807,3.3807,3.3807,3.3807,3.3807,3.3862,3.3844,3.3807,3.3825,3.3862,3.3807,3.3954,3.4009,3.5092,3.5833,3.6182,3.6732,3.7558,3.7973,3.7999,3.7944,3.8395,3.8699,3.8699,3.8699,3.8658,3.8551,3.8132,3.7997,3.764,3.6212,3.6215,3.6212,3.6212,3.6212,3.6212,3.6526,3.7013,3.7016,3.7065,3.7036,3.6681,3.6294,3.5945,3.5975,3.6016,3.6016,3.6016,3.6016,3.6016,3.6016,3.6016,3.6016,3.6016,3.6016,3.5996,3.5625,3.5195,3.457,3.3476,3.248,3.1738,3.1619,3.1343,3.0852,3.0654,3.0553,3.0545,3.0464,3.0404,3.0365,3.0058,2.9868,2.9791,2.9044,2.8871,2.9253,2.8893,2.8607,2.8604,2.8607,2.8376,2.7931,2.8357,2.8626,2.8635,2.8878,2.9303,2.9939,3.0395,3.0756,3.1102,3.1304,3.1458,3.1654,3.2073,3.2191,3.197,3.2017,3.1935,3.158,3.2228,3.2639,3.2302,3.2529,3.2951,3.3256,3.3305,3.3451,3.377,3.3807,3.3807,3.3807,3.3807,3.3807,3.3807,3.3807,3.3807,3.3807,3.3807,3.402,3.4332,3.413,3.4057,3.4369,3.4491,3.4699,3.522,3.5807,3.6347,3.6942,3.7191,3.776,3.8579,3.8358,3.8248,3.8589,3.8681,3.8699,3.8699,3.8699,3.8601,3.8399,3.8374,3.8259,3.6991,3.7058,3.7061,3.7042,3.7042,3.7061,3.7407,3.795,3.8004,3.8024,3.7976,3.7249,3.6654,3.6206,3.6039,3.5995,3.6016,3.6016,3.6016,3.6016,3.6016,3.6016,3.6016,3.6016,3.6016,3.6016,3.5996,3.5527,3.4726,3.4101,3.334,3.2637,3.2539,3.2207,3.1621,3.1211,3.0987,3.0955,3.0645,3.0431,3.0428,3.0408,3.0404,3.0346,2.9791,2.9772,3.0327,2.9794,2.9451,2.947,2.9451,2.9201,2.8662,2.9143,2.9566,2.9846,3.0433,3.1045,3.163,3.1547,3.1684,3.2171,3.2238,3.2377,3.2636,3.3146,3.3435,3.3424,3.328,3.2871,3.2358,3.3109,3.3476,3.3041,3.3476,3.3807,3.3788,3.3807,3.3788,3.3807,3.3807,3.3807,3.3807,3.3807,3.3807,3.3807,3.3807,3.3807,3.3862,3.4009,3.4387,3.4887,3.4644,3.4816,3.5224,3.5052,3.5445,3.6064,3.6439,3.6886,3.7456,3.7603,3.787,3.8652,3.8689,3.8699,3.8681,3.8681,3.8699,3.8699,3.8699,3.8699,3.8635,3.8692,3.8692,3.7642,3.7942,3.795,3.795,3.795,3.795,3.7969,3.818,3.8084,3.8053,3.8038,3.7319,3.6908,3.6816,3.626,3.5943,3.5996,3.5996,3.6016,3.6016,3.6016,3.6016,3.6016,3.6016,3.6016,3.6016,3.6016,3.5586,3.4785,3.4668,3.4199,3.3398,3.3359,3.3301,3.3047,3.2329,3.1942,3.1852,3.11,3.0584,3.0568,3.0516,3.0519,3.0536,3.0346,3.0327,3.0439,3.0385,3.0365,3.0368,3.0385,3.0346,3.0288,3.033,3.0756,3.1503,3.2266,3.2655,3.2649,3.3112,3.3467,3.3445,3.3922,3.446,3.4315,3.4434,3.449,3.4579,3.4478,3.4209,3.3683,3.3736,3.385,3.3718,3.3753,3.3834,3.3807,3.3807,3.3807,3.3814,3.3822,3.3848,3.384,3.3807,3.3809,3.382,3.3807,3.3807,3.3892,3.4406,3.4876,3.5188,3.5598,3.6193,3.6193,3.569,3.5591,3.6314,3.7136,3.7437,3.7724,3.8036,3.8414,3.867,3.8689,3.8699,3.8699,3.8699,3.8699,3.8699,3.8699,3.8699,3.8699,3.8699,3.8699,3.8514,3.8834,3.8838,3.8838,3.8838,3.8838,3.913,3.9588,3.9588,3.9588,3.9465,3.8775,3.816,3.7641,3.686,3.6324,3.598,3.5975,3.6016,3.6016,3.6016,3.6016,3.6016,3.6016,3.6016,3.6016,3.6016,3.584,3.5566,3.5527,3.5098,3.4375,3.4238,3.3965,3.3418,3.3035,3.2825,3.2779,3.2366,3.2158,3.2093,3.2053,3.1984,3.1945,3.0942,3.0654,3.1215,3.1234,3.1465,3.1968,3.2003,3.1984,3.1984,3.1987,3.2138,3.2449,3.2737,3.3115,3.3554,3.3716,3.4031,3.4444,3.4604,3.4784,3.4902,3.4954,3.4977,3.4977,3.4958,3.4769,3.4486,3.4364,3.4278,3.4105,3.4074,3.4042,3.3848,3.3807,3.3807,3.384,3.3929,3.4056,3.4142,3.4062,3.3974,3.3835,3.3814,3.3807,3.3935,3.4491,3.5206,3.5708,3.6119,3.6688,3.7826,3.6644,3.6186,3.714,3.7881,3.7944,3.8146,3.8322,3.867,3.8689,3.8699,3.8699,3.8699,3.8699,3.8699,3.8699,3.8699,3.8699,3.8699,3.8699,3.8699,3.9399,3.965,3.9688,3.9685,3.9708,3.9669,3.9996,4.0477,4.0492,4.0492,4.0362,3.9669,3.9003,3.8353,3.7362,3.6679,3.6216,3.6073,3.5976,3.6016,3.6016,3.6016,3.6016,3.6016,3.6016,3.6016,3.6016,3.6016,3.6016,3.6016,3.5703,3.5137,3.5117,3.4824,3.4297,3.394,3.3738,3.3688,3.336,3.3125,3.3107,3.2988,3.2891,3.2756,3.1792,3.1462,3.2064,3.2102,3.2314,3.2814,3.2891,3.2891,3.291,3.316,3.3317,3.3337,3.3603,3.3984,3.4497,3.4465,3.4619,3.5127,3.506,3.5053,3.5211,3.5227,3.5341,3.5513,3.5609,3.5573,3.5744,3.577,3.5485,3.4963,3.4904,3.4982,3.4897,3.4838,3.4857,3.4922,3.4601,3.4618,3.4929,3.4538,3.4339,3.4287,3.409,3.3832,3.3899,3.4761,3.558,3.6211,3.6835,3.7514,3.8102,3.7367,3.7055,3.7881,3.8138,3.8274,3.8421,3.8615,3.8699,3.8699,3.8699,3.8699,3.8699,3.8699,3.8699,3.8699,3.8699,3.8699,3.8699,3.8699,3.8699,4.0202,4.0403,4.0492,4.0408,4.0396,4.0381,4.0473,4.0492,4.0492,4.0492,4.0396,3.9685,3.935,3.8963,3.7786,3.6999,3.684,3.6416,3.6156,3.6133,3.6035,3.6055,3.6113,3.6035,3.6016,3.6016,3.6016,3.6016,3.6016,3.6016,3.5957,3.5957,3.5879,3.5801,3.5898,3.5059,3.4707,3.4551,3.3887,3.3407,3.3211,3.3235,3.316,3.3086,3.2968,3.2945,3.2984,3.2949,3.299,3.3061,3.3064,3.2968,3.3218,3.3798,3.4205,3.4318,3.4946,3.5385,3.5427,3.5394,3.5318,3.5469,3.5498,3.5524,3.5454,3.5622,3.5933,3.6372,3.6648,3.6955,3.7582,3.7763,3.7294,3.6222,3.6259,3.6595,3.681,3.6815,3.6787,3.6726,3.5852,3.5569,3.6255,3.5711,3.4975,3.5181,3.4764,3.4209,3.4359,3.5411,3.62,3.6622,3.7367,3.8296,3.8267,3.8109,3.8238,3.8421,3.8377,3.8414,3.8542,3.8699,3.8699,3.8699,3.8699,3.8699,3.8699,3.8699,3.8699,3.8699,3.8699,3.8699,3.8699,3.8699,3.8699,3.9943,4.0209,4.0237,4.0319,4.0485,4.0492,4.0492,4.0492,4.0492,4.0492,4.0454,4.0242,3.9842,3.9311,3.873,3.8231,3.7743,3.7576,3.7301,3.6819,3.6268,3.6328,3.666,3.6269,3.6016,3.6016,3.6016,3.6016,3.6016,3.6016,3.6016,3.6016,3.6016,3.6016,3.5996,3.5723,3.5605,3.5547,3.5249,3.5021,3.4925,3.481,3.4722,3.469,3.4692,3.4692,3.4654,3.4122,3.4103,3.4596,3.4692,3.4692,3.4753,3.4946,3.5103,3.5138,3.533,3.5503,3.5503,3.55,3.55,3.5615,3.6,3.6,3.575,3.6561,3.6965,3.6907,3.7215,3.7757,3.8027,3.8569,3.8338,3.7209,3.7233,3.7339,3.7364,3.7179,3.7206,3.7371,3.7005,3.7024,3.7267,3.6643,3.6384,3.6314,3.595,3.5642,3.5715,3.6295,3.7081,3.7246,3.8157,3.8681,3.8505,3.8395,3.8487,3.8487,3.8414,3.8469,3.8615,3.8699,3.8699,3.8699,3.8699,3.8699,3.8699,3.8699,3.8699,3.8699,3.8699,3.8699,3.8699,3.8773,3.8891,3.9611,3.9912,4.0061,4.021,4.0364,4.0434,4.0492,4.0492,4.0492,4.0492,4.0492,4.0492,4.0227,3.9742,3.9434,3.9035,3.8552,3.8367,3.8192,3.7909,3.6928,3.668,3.6797,3.6289,3.6016,3.6016,3.6016,3.6016,3.6016,3.6016,3.6016,3.6016,3.6016,3.6016,3.6016,3.6016,3.6016,3.5996,3.5922,3.5867,3.5758,3.5679,3.5585,3.553,3.5499,3.5484,3.5442,3.4965,3.4926,3.5388,3.5503,3.5503,3.5503,3.5465,3.5503,3.5503,3.5484,3.5503,3.5503,3.5503,3.5673,3.5962,3.6423,3.6677,3.66,3.7561,3.7738,3.7834,3.8161,3.8607,3.8973,3.9381,3.9357,3.8791,3.8611,3.8461,3.8291,3.8084,3.8251,3.8457,3.8134,3.8134,3.8482,3.7838,3.77,3.7432,3.7024,3.6658,3.6648,3.7017,3.7353,3.7676,3.8212,3.8534,3.8681,3.8663,3.8681,3.856,3.8395,3.8505,3.8652,3.8681,3.8699,3.8699,3.8699,3.8699,3.8699,3.8699,3.8699,3.8699,3.8699,3.8699,3.8755,3.9148,3.9331,3.9282,3.9605,3.9922,4.0062,4.0153,4.0385,4.0492,4.0492,4.0492,4.0492,4.0492,4.0492,4.0477,4.0285,3.9761,3.945,3.9264,3.8806,3.8823,3.8931,3.8122,3.7266,3.6621,3.6504,3.6484,3.6387,3.6348,3.6289,3.6445,3.6289,3.6094,3.6191,3.6094,3.6016,3.6016,3.6016,3.6016,3.5996,3.5944,3.5907,3.5894,3.5727,3.5596,3.5592,3.5531,3.5503,3.5481,3.5404,3.5423,3.5503,3.5503,3.5503,3.5503,3.5503,3.5503,3.5503,3.5503,3.5503,3.5503,3.5654,3.5923,3.65,3.6907,3.7119,3.7738,3.8142,3.8604,3.8954,3.9242,3.9627,4.0169,4.0362,4.0331,4.0411,3.9998,3.9895,4.0034,3.9583,3.9565,3.9865,3.9196,3.8677,4.0023,3.8848,3.8514,3.848,3.7914,3.744,3.719,3.7565,3.7592,3.7948,3.8414,3.8516,3.8699,3.8699,3.8699,3.8644,3.8505,3.856,3.8652,3.8681,3.8699,3.8699,3.8699,3.8699,3.8699,3.8699,3.8699,3.8699,3.8699,3.8699,3.8982,3.9441,3.9863,3.8961,3.9251,3.9593,3.9861,4.0125,4.04,4.0492,4.0492,4.0492,4.0492,4.0492,4.0492,4.0492,4.0473,4.0281,4.0189,4.008,4.0021,3.9747,3.9575,3.93,3.8644,3.8027,3.7891,3.7851,3.7832,3.7754,3.791,3.7851,3.7246,3.6953,3.6934,3.6348,3.6055,3.6016,3.6035,3.6016,3.6016,3.5996,3.5947,3.5899,3.5747,3.5646,3.5581,3.5537,3.5491,3.5503,3.5503,3.5503,3.5503,3.5503,3.5503,3.5503,3.5519,3.558,3.5577,3.5558,3.5542,3.5654,3.6077,3.6481,3.6792,3.7834,3.8411,3.8027,3.9146,3.955,3.9608,3.9804,4.0246,4.0454,4.0492,4.0492,4.0492,4.0425,4.0368,4.0347,4.0319,4.0304,4.04,4.0031,4.0089,4.0135,4.0061,3.9597,3.9619,3.93,3.8816,3.8434,3.8282,3.8405,3.8379,3.8626,3.8663,3.8699,3.8699,3.8699,3.8699,3.8644,3.8626,3.8681,3.8681,3.8699,3.8699,3.8699,3.8699,3.8699,3.8699,3.8699,3.8699,3.8828,3.892,3.9386,3.9845,4.0322,3.8788,3.8968,3.9414,3.9701,3.9943,4.0339,4.0492,4.0492,4.0492,4.0492,4.0492,4.0492,4.0492,4.0492,4.0496,4.0492,4.0512,4.0572,4.0389,4.0172,4.0172,3.9592,3.8828,3.8594,3.8613,3.8613,3.8613,3.8574,3.8476,3.8066,3.7871,3.7695,3.6973,3.6562,3.6562,3.6133,3.6016,3.6016,3.6016,3.5975,3.5945,3.578,3.5688,3.5623,3.5547,3.5503,3.5503,3.5503,3.5503,3.5503,3.5503,3.5503,3.5538,3.5846,3.6003,3.6019,3.633,3.6561,3.6619,3.7026,3.7407,3.7831,3.8877,3.9146,3.9223,4.0012,4.0223,3.9992,4.0281,4.0454,4.0492,4.0492,4.0492,4.0492,4.0492,4.0492,4.0492,4.0469,4.0492,4.0492,4.0492,4.0492,4.0492,4.0492,4.0433,4.0285,4.0081,3.9675,3.9344,3.9257,3.9027,3.8818,3.8699,3.8699,3.8699,3.8699,3.8699,3.8699,3.8699,3.8699,3.8699,3.8699,3.8699,3.8699,3.8699,3.8699,3.8699,3.8699,3.8699,3.8755,3.8938,3.9331,3.9808,4.0506,4.0938,3.8699,3.8732,3.9371,3.9605,3.9712,4.0244,4.0492,4.0492,4.0492,4.0492,4.0492,4.0492,4.0492,4.0492,4.0492,4.0492,4.0492,4.0519,4.0594,4.0633,4.0701,4.0237,3.9297,3.9219,3.918,3.9141,3.8906,3.9023,3.9082,3.8906,3.875,3.8535,3.7851,3.7461,3.7285,3.6641,3.6191,3.6191,3.6074,3.6016,3.5957,3.5803,3.5702,3.5665,3.5562,3.5494,3.5503,3.55,3.5558,3.5635,3.5554,3.5577,3.5692,3.6369,3.6619,3.6773,3.7273,3.7773,3.795,3.795,3.8415,3.9011,3.9261,3.9708,4.0189,4.0435,4.0454,4.0358,4.0492,4.0492,4.0492,4.0492,4.0492,4.0492,4.0492,4.0492,4.0492,4.0492,4.0492,4.0492,4.0492,4.0492,4.0492,4.0492,4.0489,4.0429,4.0286,4.0003,3.9656,3.9408,3.9088,3.8747,3.8699,3.8699,3.8699,3.8699,3.8699,3.8699,3.8699,3.8699,3.8699,3.8699,3.8699,3.8699,3.8699,3.8699,3.8699,3.8699,3.8736,3.9038,3.9368,3.979,4.0294,4.1203,4.1819,3.8699,3.875,3.9352,3.9605,3.9707,4.0225,4.0492,4.0492,4.0492,4.0492,4.0492,4.0492,4.0492,4.0492,4.0492,4.0492,4.0492,4.0512,4.0591,4.0768,4.0936,4.094,4.0566,4.0508,4.0566,4.0527,4.0605,4.0605,4.0469,3.9883,3.9609,3.9492,3.8809,3.832,3.8203,3.748,3.7012,3.6914,3.6406,3.6152,3.6133,3.5922,3.5758,3.5694,3.5612,3.5536,3.55,3.5503,3.5792,3.6115,3.5981,3.5942,3.6407,3.6696,3.6888,3.71,3.7623,3.8084,3.8142,3.8681,3.9088,3.9338,3.9858,4.0319,4.0439,4.0492,4.0492,4.0492,4.0492,4.0492,4.0492,4.0492,4.0492,4.0492,4.0492,4.0492,4.0492,4.0492,4.0492,4.0492,4.0492,4.0492,4.0492,4.0492,4.0492,4.0489,4.0341,4.0138,3.9842,3.9523,3.9196,3.8811,3.8689,3.8712,3.8773,3.8747,3.8699,3.8699,3.8699,3.8699,3.8699,3.8699,3.8699,3.8699,3.8699,3.8736,3.8872,3.8872,3.8964,3.9368,3.99,4.0506,4.1185,4.2011,4.2525,3.8699,3.8773,3.9346,3.9605,3.9701,4.022,4.0492,4.0492,4.0492,4.0492,4.0492,4.0492,4.0492,4.0492,4.0492,4.0492,4.0492,4.05,4.0597,4.0766,4.0878,4.1019,4.1172,4.1191,4.1191,4.1191,4.1172,4.1191,4.1035,4.0781,4.0508,4.043,3.9629,3.9258,3.9082,3.834,3.7949,3.7871,3.75,3.7226,3.7168,3.6606,3.5969,3.5815,3.5868,3.6058,3.6077,3.6523,3.71,3.7488,3.7142,3.6834,3.7315,3.77,3.7892,3.8065,3.8703,3.9146,3.9358,3.9569,3.9877,3.9838,4.0285,4.0416,4.0492,4.0492,4.0492,4.0492,4.0492,4.0492,4.0492,4.0492,4.0492,4.0492,4.0492,4.0492,4.0492,4.0492,4.0492,4.0492,4.0492,4.0492,4.0492,4.0492,4.0492,4.0492,4.0272,4.0058,3.9721,3.942,3.9237,3.8966,3.8773,3.8739,3.8826,3.8815,3.8696,3.8699,3.8699,3.8699,3.8699,3.8699,3.8699,3.8699,3.8718,3.9074,3.9203,3.9184,3.9441,4.0194,4.0836,4.1434,4.1992,4.2543,4.2928,3.8699,3.8757,3.9364,3.9605,3.9701,4.0225,4.0492,4.0492,4.0492,4.0492,4.0492,4.0492,4.0492,4.0492,4.0492,4.0492,4.0492,4.0512,4.061,4.0757,4.0819,4.0952,4.1113,4.1172,4.1191,4.1191,4.1191,4.1191,4.1191,4.1191,4.1035,4.1035,4.0508,4.0117,3.9902,3.9277,3.8789,3.8769,3.8476,3.8359,3.8281,3.76,3.6826,3.6392,3.6566,3.6888,3.7023,3.7488,3.828,3.9165,3.8588,3.8354,3.853,3.8819,3.9304,3.9261,3.9838,4.0165,4.0185,4.0358,4.0416,4.0492,4.0492,4.0492,4.0492,4.0492,4.0492,4.0492,4.0492,4.0492,4.0492,4.0492,4.0492,4.0492,4.0492,4.0492,4.0492,4.0492,4.0492,4.0492,4.0492,4.0492,4.0492,4.0492,4.0492,4.0457,4.0227,3.9968,3.9645,3.9327,3.9151,3.8975,3.8766,3.8696,3.8788,3.8807,3.8704,3.8718,3.8718,3.8773,3.8755,3.8699,3.8699,3.8699,3.8817,3.9148,3.9431,3.9478,3.9974,4.0938,4.1599,4.2029,4.2525,4.3039,4.3286,3.8699,3.8757,3.9352,3.9605,3.9696,4.0248,4.0492,4.0492,4.0492,4.0492,4.0492,4.0492,4.0492,4.0492,4.0492,4.0492,4.0492,4.0508,4.0582,4.0701,4.0773,4.091,4.1028,4.1152,4.1191,4.1191,4.1191,4.1191,4.1191,4.1191,4.1191,4.1152,4.0996,4.0898,4.0644,4.0176,3.9687,3.959,3.918,3.8906,3.875,3.8357,3.7839,3.7403,3.7603,3.7757,3.7796,3.795,3.8396,3.9169,3.915,3.9438,3.9685,3.9573,3.9419,3.9554,4.0069,4.0492,4.0492,4.0492,4.0492,4.0492,4.0492,4.0492,4.0492,4.0492,4.0492,4.0492,4.0492,4.0492,4.0492,4.0492,4.0492,4.0492,4.0492,4.0492,4.0492,4.0492,4.0492,4.0492,4.0492,4.0492,4.0492,4.0492,4.0492,4.0393,4.0153,3.9932,3.9645,3.9314,3.9027,3.8869,3.8719,3.8707,3.8719,3.8727,3.8699,3.8755,3.8791,3.892,3.8883,3.8736,3.8718,3.9122,3.9111,3.9129,3.9386,3.9827,4.0524,4.1507,4.2047,4.2543,4.2928,4.3304,4.3341,3.8699,3.8765,3.9352,3.9605,3.9712,4.0229,4.0492,4.0492,4.0492,4.0492,4.0492,4.0492,4.0492,4.0492,4.0492,4.0492,4.0492,4.0496,4.0588,4.0687,4.0785,4.0869,4.0996,4.1128,4.1191,4.1191,4.1191,4.1191,4.1191,4.1191,4.1191,4.1191,4.1191,4.1191,4.1133,4.0781,4.0566,4.043,4.0137,3.9883,3.9805,3.9352,3.8731,3.825,3.8473,3.8642,3.8761,3.9165,3.9454,3.9838,3.9915,4.015,4.0246,4.0189,3.99,3.9977,4.0285,4.0492,4.0492,4.0492,4.0492,4.0492,4.0492,4.0492,4.0492,4.0492,4.0492,4.0492,4.0492,4.0492,4.0492,4.0492,4.0492,4.0492,4.0492,4.0492,4.0492,4.0492,4.0492,4.0492,4.0492,4.0492,4.0492,4.0492,4.0492,4.0332,4.0106,3.9861,3.9652,3.9295,3.8947,3.8894,3.8781,3.875,3.8727,3.8699,3.8854,3.8909,3.9038,3.9166,3.9433,3.9489,3.9764,4.0149,3.9937,3.9643,4.0469,4.1277,4.1699,4.2029,4.258,4.3065,4.3286,4.3488,4.3488,3.8699,3.8757,3.9352,3.9605,3.9701,4.0248,4.0492,4.0492,4.0492,4.0492,4.0492,4.0492,4.0492,4.0492,4.0492,4.0492,4.0492,4.0492,4.0563,4.0655,4.0771,4.0865,4.0962,4.1113,4.1191,4.1191,4.1191,4.1191,4.1191,4.1191,4.1191,4.1191,4.1191,4.1191,4.1152,4.1094,4.1191,4.1191,4.1191,4.1191,4.0929,4.0301,3.9466,3.867,3.9207,3.9531,3.9588,3.9973,4.0262,4.0377,4.0435,4.0473,4.0492,4.0492,4.0492,4.0492,4.0492,4.0492,4.0492,4.0492,4.0492,4.0492,4.0492,4.0492,4.0492,4.0492,4.0492,4.0492,4.0492,4.0492,4.0492,4.0492,4.0492,4.0492,4.0492,4.0492,4.0492,4.0492,4.0492,4.0492,4.0492,4.0492,4.0492,4.0492,4.0492,4.0406,4.0171,3.9886,3.963,3.9222,3.8933,3.8947,3.8887,3.8826,3.8769,3.8707,3.8946,3.9239,3.9478,3.9706,4.0139,4.0516,4.081,4.1048,4.0965,4.0891,4.1827,4.2286,4.2213,4.2433,4.3121,4.3469,4.3488,4.3488,4.3488,3.8699,3.875,3.9352,3.9605,3.9696,4.0248,4.0492,4.0492,4.0492,4.0492,4.0492,4.0492,4.0492,4.0492,4.0492,4.0492,4.0492,4.0496,4.0519,4.0572,4.0703,4.0795,4.0867,4.1082,4.1172,4.1191,4.1191,4.1191,4.1191,4.1191,4.1191,4.1191,4.1191,4.1191,4.1191,4.1191,4.1191,4.1191,4.1191,4.1152,4.1003,4.0736,4.0461,4.0319,4.0258,4.0246,4.0208,4.0416,4.0492,4.0492,4.0492,4.0492,4.0492,4.0492,4.0492,4.0492,4.0492,4.0492,4.0492,4.0492,4.0492,4.0492,4.0492,4.0492,4.0492,4.0492,4.0492,4.0492,4.055,4.0516,4.0535,4.0554,4.0512,4.0492,4.0492,4.0492,4.0492,4.0492,4.0492,4.0492,4.0492,4.0492,4.0492,4.0492,4.0485,4.0385,4.0241,3.9927,3.9571,3.9136,3.8869,3.8855,3.8855,3.8788,3.8769,3.8704,3.9093,3.9486,3.9926,4.0294,4.0873,4.136,4.1644,4.1809,4.1772,4.1699,4.2047,4.2286,4.2359,4.2708,4.3231,4.3414,4.3488,4.3488,4.3488,3.8699,3.8765,3.9346,3.9605,3.9685,4.0248,4.0492,4.0492,4.0492,4.0492,4.0492,4.0492,4.0492,4.0492,4.0492,4.0492,4.0492,4.0492,4.0492,4.0515,4.0659,4.0776,4.0843,4.0993,4.1105,4.1191,4.1191,4.1191,4.1191,4.1191,4.1191,4.1191,4.1191,4.1191,4.1191,4.1191,4.1191,4.1191,4.1191,4.1094,4.0924,4.0814,4.0733,4.058,4.0546,4.0504,4.0492,4.0492,4.0492,4.0492,4.0492,4.0492,4.0492,4.0492,4.0492,4.0492,4.0492,4.0492,4.0492,4.0492,4.0492,4.0492,4.0492,4.0492,4.0492,4.0531,4.0531,4.0492,4.0993,4.1031,4.0823,4.0973,4.0839,4.0743,4.0762,4.0685,4.0685,4.0512,4.0492,4.0492,4.0531,4.0627,4.0685,4.0666,4.056,4.0304,4.0081,3.9769,3.9396,3.9001,3.8818,3.8742,3.8742,3.8712,3.8712,3.8718,3.9258,3.9753,4.0479,4.0946,4.168,4.2139,4.2396,4.2671,4.2772,4.2653,4.2433,4.258,4.291,4.3102,4.3267,4.3378,4.3488,4.3488,4.3488,3.8699,3.8757,3.9346,3.9605,3.9662,4.0253,4.0492,4.0492,4.0492,4.0492,4.0492,4.0492,4.0492,4.0492,4.0492,4.0492,4.0492,4.0492,4.0492,4.0537,4.0627,4.0725,4.0824,4.0952,4.1079,4.1211,4.1191,4.1191,4.1191,4.1191,4.1191,4.1191,4.1191,4.1191,4.1191,4.1191,4.1191,4.1191,4.1191,4.1113,4.0955,4.0829,4.073,4.0607,4.0522,4.0492,4.0492,4.0492,4.0492,4.0492,4.0492,4.0492,4.0492,4.0492,4.0492,4.0492,4.0492,4.0492,4.0492,4.0492,4.0492,4.0492,4.0492,4.0492,4.0554,4.0608,4.0839,4.0935,4.1681,4.1685,4.1493,4.1835,4.1797,4.1589,4.1358,4.1204,4.1127,4.1262,4.1377,4.1531,4.147,4.1008,4.1008,4.0935,4.0681,4.0275,3.9941,3.9672,3.9396,3.9139,3.9071,3.9066,3.9184,3.9184,3.9184,3.9258,3.9662,4.0139,4.0883,4.1635,4.2378,4.2818,4.3094,4.3359,4.3488,4.3341,4.2947,4.3231,4.3488,4.3433,4.3378,4.3433,4.3488,4.3488,4.3488,3.8699,3.8757,3.9352,3.9605,3.9645,4.0233,4.0489,4.0492,4.0492,4.0492,4.0492,4.0492,4.0492,4.0492,4.0492,4.0492,4.0492,4.0492,4.0492,4.0537,4.0646,4.0729,4.0813,4.0922,4.1055,4.1211,4.1348,4.1348,4.1308,4.1601,4.1406,4.1211,4.125,4.123,4.1191,4.1191,4.1191,4.1191,4.1191,4.1172,4.1054,4.0925,4.0794,4.073,4.0601,4.0492,4.0492,4.0492,4.0492,4.0492,4.0492,4.0492,4.0492,4.0492,4.0492,4.0492,4.0492,4.0492,4.0492,4.0492,4.0492,4.0492,4.0589,4.0685,4.0762,4.1393,4.1639,4.1797,4.2508,4.2816,4.2797,4.2955,4.2835,4.2489,4.2239,4.2258,4.2262,4.2431,4.2547,4.2681,4.2297,4.1604,4.1412,4.1335,4.105,4.0667,4.0577,4.0315,4.0016,3.9752,3.9637,3.9643,3.9808,3.9882,3.9937,4.0175,4.0561,4.102,4.1654,4.2378,4.3094,4.3451,4.3488,4.3488,4.3488,4.3488,4.3488,4.3488,4.3488,4.3488,4.3488,4.3488,4.3488,4.3488,4.3488,3.8803,3.8978,3.9426,3.9605,3.9628,4.0081,4.0351,4.0481,4.0492,4.0492,4.0492,4.0492,4.0492,4.0492,4.0492,4.0492,4.0492,4.0492,4.0492,4.0508,4.0561,4.067,4.0755,4.0895,4.0976,4.1308,4.1641,4.1933,4.1992,4.2305,4.2246,4.2051,4.1582,4.125,4.1191,4.1191,4.1191,4.1191,4.1191,4.1172,4.105,4.0914,4.0786,4.0726,4.0604,4.0508,4.0492,4.0492,4.0492,4.0492,4.0492,4.0492,4.0492,4.0492,4.0492,4.0492,4.0492,4.0492,4.0512,4.0512,4.0492,4.065,4.0954,4.13,4.1354,4.2119,4.2504,4.285,4.3335,4.372,4.3181,4.3489,4.3662,4.3297,4.3181,4.3258,4.3335,4.3451,4.3278,4.3201,4.2527,4.1777,4.172,4.1758,4.1432,4.1107,4.1048,4.0952,4.0677,4.044,4.0323,4.0388,4.0579,4.0634,4.0689,4.103,4.1452,4.1911,4.2388,4.2855,4.3378,4.3451,4.3488,4.3488,4.3488,4.3488,4.3488,4.3488,4.3488,4.3488,4.3488,4.3488,4.3488,4.3488,4.3488,3.8866,3.9125,3.9352,3.9576,3.9781,4.0086,4.033,4.0477,4.0492,4.0492,4.0492,4.0492,4.0492,4.0492,4.0492,4.0492,4.0492,4.0492,4.0492,4.05,4.0523,4.0626,4.0806,4.1105,4.1465,4.1719,4.2344,4.2793,4.2812,4.3418,4.3223,4.2754,4.2246,4.1894,4.1191,4.1211,4.1211,4.1191,4.1191,4.1172,4.1053,4.0901,4.08,4.0718,4.0584,4.0508,4.0492,4.0492,4.0492,4.0492,4.0492,4.0492,4.0492,4.0492,4.0492,4.0492,4.0512,4.0512,4.0554,4.0781,4.0858,4.1089,4.1762,4.2104,4.2393,4.2951,4.3412,4.3508,4.4143,4.4436,4.3797,4.4378,4.459,4.4301,4.4244,4.4301,4.4259,4.4278,4.3912,4.3624,4.3028,4.2735,4.2699,4.2746,4.2207,4.1857,4.1581,4.1548,4.1464,4.1242,4.1081,4.1213,4.1434,4.1452,4.147,4.1947,4.2396,4.2561,4.2947,4.302,4.3359,4.3433,4.3488,4.3488,4.3488,4.3488,4.3488,4.3488,4.3488,4.3488,4.3488,4.3488,4.3488,4.3488,4.3488,3.8873,3.9092,3.9145,3.9504,4.0096,4.0368,4.0496,4.0492,4.0492,4.0492,4.0492,4.0492,4.0492,4.0492,4.0492,4.0492,4.0492,4.0492,4.0492,4.0492,4.0504,4.0623,4.1077,4.1549,4.2031,4.2519,4.3183,4.3672,4.3672,4.4062,4.3906,4.3652,4.3301,4.2637,4.1367,4.1211,4.1211,4.1191,4.1191,4.1191,4.1127,4.0925,4.0799,4.075,4.0591,4.05,4.0492,4.0492,4.0492,4.0492,4.0492,4.0492,4.0492,4.0492,4.0492,4.0492,4.0569,4.0608,4.065,4.1373,4.1773,4.1912,4.2566,4.3028,4.3239,4.3758,4.4301,4.4359,4.4936,4.5359,4.5421,4.5441,4.5306,4.5225,4.5109,4.5071,4.4994,4.4955,4.459,4.4047,4.4143,4.4188,4.4075,4.3824,4.3156,4.2666,4.2252,4.212,4.2144,4.2113,4.1966,4.2039,4.2286,4.2286,4.2378,4.2937,4.3304,4.3414,4.3396,4.3378,4.3378,4.3451,4.3488,4.3488,4.3488,4.3488,4.3488,4.3488,4.3488,4.3488,4.3488,4.3488,4.3488,4.3488,4.3488,3.898,3.942,3.942,3.98,4.0302,4.0273,4.0311,4.0481,4.0492,4.0492,4.0492,4.0492,4.0492,4.0492,4.0492,4.0492,4.0492,4.0492,4.0492,4.0535,4.0608,4.1047,4.1558,4.2087,4.2572,4.332,4.4082,4.4551,4.4551,4.4922,4.4902,4.4687,4.4082,4.3086,4.2285,4.1933,4.1816,4.1308,4.1191,4.1191,4.1191,4.1035,4.0898,4.0929,4.0752,4.0673,4.0669,4.0704,4.0608,4.0589,4.0589,4.0492,4.0512,4.0535,4.0569,4.0704,4.0912,4.1681,4.22,4.2912,4.3139,4.3162,4.3393,4.3893,4.397,4.4686,4.5037,4.5133,4.5364,4.5594,4.5556,4.5556,4.5479,4.5479,4.5441,4.5441,4.5417,4.5417,4.5186,4.4509,4.4316,4.4357,4.4319,4.4336,4.3855,4.351,4.3119,4.2935,4.2938,4.3019,4.2965,4.2992,4.3102,4.3102,4.3231,4.3396,4.3469,4.3451,4.3451,4.3451,4.3469,4.3488,4.3488,4.3488,4.3488,4.3488,4.3488,4.3488,4.3488,4.3488,4.3488,4.3488,4.3488,4.3488,4.3488,3.905,3.9582,3.9605,3.9959,4.0422,4.0298,4.0347,4.0485,4.0492,4.0492,4.0492,4.0492,4.0492,4.0492,4.0492,4.0492,4.0531,4.0858,4.095,4.0993,4.1339,4.1883,4.2374,4.2823,4.3496,4.4207,4.4922,4.5449,4.5449,4.5996,4.5918,4.543,4.4863,4.4277,4.3555,4.3066,4.2676,4.2305,4.2285,4.2246,4.2168,4.2015,4.1854,4.1801,4.1664,4.1527,4.1347,4.1147,4.0935,4.0896,4.0723,4.0569,4.0573,4.0781,4.0893,4.1181,4.1777,4.262,4.3412,4.3801,4.397,4.4143,4.4532,4.4724,4.4782,4.5229,4.5421,4.5537,4.5594,4.5594,4.5594,4.5594,4.5594,4.5594,4.5594,4.5594,4.5594,4.5575,4.5518,4.4878,4.4682,4.466,4.4551,4.456,4.443,4.4211,4.4005,4.3791,4.3556,4.3513,4.3488,4.3469,4.3469,4.3378,4.3341,4.3433,4.3488,4.3488,4.3488,4.3488,4.3488,4.3488,4.3488,4.3488,4.3488,4.3488,4.3488,4.3488,4.3488,4.3488,4.3488,4.3488,4.3488,4.3488,4.3488,3.9043,3.9534,3.9574,3.9925,4.0437,4.0461,4.0504,4.0492,4.0492,4.0492,4.0492,4.0492,4.0492,4.0492,4.0492,4.0492,4.0666,4.1335,4.1562,4.1908,4.2277,4.2846,4.3439,4.4028,4.4433,4.5022,4.5605,4.6016,4.625,4.6269,4.623,4.6211,4.5918,4.5391,4.4785,4.4316,4.3769,4.3379,4.3183,4.3164,4.3105,4.3262,4.3043,4.292,4.2804,4.2706,4.2507,4.22,4.1927,4.1619,4.1204,4.0858,4.0916,4.1408,4.1677,4.2119,4.2797,4.3489,4.4205,4.4513,4.4763,4.5032,4.534,4.5552,4.5532,4.5498,4.5556,4.5594,4.5594,4.5594,4.5594,4.5594,4.5594,4.5594,4.5594,4.5594,4.5594,4.5594,4.5594,4.5417,4.5379,4.5287,4.5025,4.4958,4.4631,4.4357,4.4035,4.372,4.3513,4.3513,4.3488,4.3488,4.3488,4.3488,4.3488,4.3488,4.3488,4.3488,4.3488,4.3488,4.3488,4.3488,4.3488,4.3488,4.3488,4.3488,4.3488,4.3488,4.3488,4.3488,4.3488,4.3488,4.3488,4.3488,4.3488,3.892,3.9269,3.9505,3.9826,4.0213,4.0433,4.0492,4.0492,4.0492,4.0492,4.0492,4.0492,4.0492,4.0492,4.0492,4.0492,4.0858,4.1296,4.1681,4.22,4.2974,4.35,4.4057,4.4591,4.5098,4.562,4.6055,4.6289,4.6289,4.6289,4.6289,4.6289,4.6289,4.6035,4.5859,4.5644,4.4805,4.418,4.3965,4.3965,4.3887,4.3867,4.3745,4.3642,4.3561,4.3466,4.3242,4.2987,4.2748,4.2601,4.2478,4.2316,4.2412,4.2624,4.2854,4.3528,4.3936,4.4321,4.5032,4.5225,4.5325,4.5498,4.5594,4.5594,4.5594,4.5594,4.5594,4.5594,4.5594,4.5594,4.5594,4.5594,4.5594,4.5594,4.5594,4.5594,4.5594,4.5594,4.5594,4.5594,4.5594,4.5504,4.5287,4.4902,4.456,4.4308,4.4012,4.3679,4.3488,4.3488,4.3488,4.3488,4.3488,4.3488,4.3488,4.3488,4.3488,4.3488,4.3488,4.3488,4.3488,4.3488,4.3488,4.3488,4.3488,4.3488,4.3488,4.3488,4.3488,4.3488,4.3488,4.3488,4.3488,4.3488,4.3488,3.8866,3.912,3.945,3.9837,4.0245,4.0418,4.0492,4.0492,4.0492,4.0492,4.0492,4.0492,4.0492,4.0492,4.0512,4.0704,4.1162,4.1989,4.2566,4.3162,4.359,4.4337,4.4861,4.5065,4.546,4.5934,4.6148,4.625,4.6289,4.6289,4.6289,4.6289,4.6289,4.6289,4.623,4.6074,4.5723,4.5156,4.4824,4.4726,4.4648,4.4609,4.4573,4.439,4.429,4.4214,4.4082,4.391,4.3655,4.3532,4.3439,4.3085,4.3162,4.3335,4.3955,4.4571,4.4821,4.5032,4.5436,4.5518,4.5575,4.5594,4.5594,4.5594,4.5594,4.5594,4.5594,4.5594,4.5594,4.5594,4.5594,4.5594,4.5594,4.5594,4.5594,4.5594,4.5594,4.5594,4.5594,4.5594,4.5564,4.5499,4.5243,4.4836,4.4474,4.418,4.3923,4.3621,4.3488,4.3488,4.3488,4.3488,4.3488,4.3488,4.3488,4.3488,4.3488,4.3488,4.3488,4.3488,4.3488,4.3488,4.3488,4.3488,4.3488,4.3488,4.3488,4.3488,4.3488,4.3488,4.3488,4.3488,4.3488,4.3488,4.3488,3.8851,3.9085,3.9463,3.993,4.0465,4.0492,4.0492,4.0492,4.0492,4.0492,4.0492,4.0492,4.0569,4.0762,4.08,4.1262,4.195,4.2777,4.3431,4.4301,4.484,4.534,4.5417,4.572,4.5733,4.5879,4.6042,4.6191,4.6269,4.6289,4.6289,4.6289,4.6289,4.6289,4.6289,4.6289,4.6074,4.5937,4.584,4.5859,4.5996,4.6152,4.6246,4.5999,4.5895,4.585,4.5576,4.5149,4.4599,4.4291,4.3963,4.3502,4.372,4.4047,4.4821,4.5167,4.5364,4.546,4.5552,4.5594,4.5594,4.5594,4.5594,4.5594,4.5594,4.5594,4.5594,4.5594,4.5594,4.5594,4.5594,4.5594,4.5594,4.5594,4.5594,4.5594,4.5594,4.5594,4.5594,4.5594,4.5586,4.5495,4.5206,4.4793,4.4435,4.4106,4.3799,4.3548,4.3488,4.3488,4.3488,4.3488,4.3488,4.3488,4.3488,4.3488,4.3488,4.3488,4.3488,4.3488,4.3488,4.3488,4.3488,4.3488,4.3488,4.3488,4.3488,4.3488,4.3488,4.3488,4.3488,4.3488,4.3488,4.3488,4.3488,3.8742,3.8844,3.9383,3.9959,4.0473,4.0492,4.0492,4.0492,4.0492,4.0512,4.0512,4.0573,4.0877,4.1335,4.147,4.1966,4.2816,4.347,4.4028,4.4551,4.5244,4.5575,4.561,4.5726,4.5816,4.5923,4.6018,4.6152,4.6269,4.6289,4.6289,4.6289,4.6289,4.6289,4.6289,4.6289,4.6289,4.6289,4.6289,4.6289,4.6289,4.6289,4.6246,4.6147,4.6088,4.6065,4.5844,4.5673,4.5466,4.5366,4.5202,4.5054,4.5051,4.5186,4.534,4.5552,4.5594,4.5594,4.5594,4.5594,4.5594,4.5594,4.5594,4.5594,4.5594,4.5594,4.5594,4.5594,4.5594,4.5594,4.5594,4.5594,4.5594,4.5594,4.5594,4.5594,4.5594,4.5594,4.5594,4.5594,4.5594,4.541,4.5123,4.4793,4.4435,4.4076,4.3726,4.3505,4.3488,4.3488,4.3488,4.3488,4.3488,4.3488,4.3488,4.3488,4.3488,4.3488,4.3488,4.3488,4.3488,4.3488,4.3488,4.3488,4.3488,4.3488,4.3488,4.3488,4.3488,4.3488,4.3488,4.3488,4.3488,4.3488,4.3488,3.8699,3.8769,3.9352,3.9959,4.043,4.0492,4.0492,4.0492,4.0492,4.0727,4.1046,4.1104,4.1369,4.1946,4.2177,4.2793,4.3566,4.4047,4.4551,4.4994,4.5248,4.5498,4.5643,4.5696,4.5769,4.5861,4.6026,4.6152,4.6269,4.6289,4.6289,4.6289,4.6289,4.6289,4.6289,4.6289,4.6289,4.6289,4.6289,4.6289,4.6289,4.6289,4.6289,4.62,4.6172,4.6133,4.6063,4.5948,4.5853,4.5796,4.5595,4.5509,4.5455,4.5498,4.5556,4.5594,4.5594,4.5594,4.5594,4.5594,4.5594,4.5594,4.5594,4.5594,4.5594,4.5594,4.5594,4.5594,4.5594,4.5594,4.5594,4.5594,4.5594,4.5594,4.5594,4.5594,4.5594,4.5594,4.5594,4.5594,4.5544,4.5434,4.5134,4.4818,4.4435,4.405,4.371,4.3513,4.3488,4.3488,4.3488,4.3488,4.3488,4.3488,4.3488,4.3488,4.3488,4.3488,4.3488,4.3488,4.3488,4.3488,4.3488,4.3488,4.3488,4.3488,4.3488,4.3488,4.3488,4.3488,4.3488,4.3488,4.3488,4.3488,4.3488,3.8757,3.8899,3.9389,3.994,4.0446,4.0492,4.0492,4.0512,4.065,4.1085,4.1773,4.2023,4.2081,4.2273,4.2874,4.3628,4.4205,4.4571,4.5032,4.534,4.5537,4.5594,4.5594,4.5605,4.5713,4.5859,4.6031,4.6172,4.6289,4.6289,4.6289,4.6289,4.6289,4.6289,4.6289,4.6289,4.6289,4.6289,4.6289,4.6289,4.6289,4.6289,4.6289,4.6289,4.6289,4.6289,4.6211,4.608,4.5924,4.5834,4.5708,4.5624,4.5594,4.5594,4.5594,4.5594,4.5594,4.5594,4.5594,4.5594,4.5594,4.5594,4.5594,4.5594,4.5594,4.5594,4.5594,4.5594,4.5594,4.5594,4.5594,4.5594,4.5594,4.5594,4.5594,4.5594,4.5594,4.5594,4.5594,4.5594,4.5522,4.5424,4.5123,4.4806,4.4447,4.4061,4.378,4.3604,4.3488,4.3488,4.3488,4.3488,4.3488,4.3488,4.3488,4.3488,4.3488,4.3488,4.3488,4.3488,4.3488,4.3488,4.3488,4.3488,4.3488,4.3488,4.3488,4.3488,4.3488,4.3488,4.3488,4.3488,4.3488,4.3488,4.3488,3.8991,3.9432,3.9564,3.9959,4.0438,4.0492,4.0492,4.0608,4.1219,4.1658,4.2119,4.3201,4.3528,4.2912,4.3724,4.4301,4.4513,4.4936,4.5263,4.5575,4.5594,4.5594,4.5612,4.5635,4.5726,4.5876,4.6026,4.6152,4.6269,4.6289,4.6289,4.6289,4.6289,4.6289,4.6289,4.6289,4.6289,4.6289,4.6289,4.6289,4.6289,4.6289,4.6289,4.6289,4.6289,4.6289,4.623,4.6016,4.5932,4.5844,4.5729,4.562,4.5594,4.5594,4.5594,4.5594,4.5594,4.5594,4.5594,4.5594,4.5594,4.5594,4.5594,4.5594,4.5594,4.5594,4.5594,4.5594,4.5594,4.5594,4.5594,4.5594,4.5594,4.5594,4.5594,4.5594,4.5594,4.5594,4.5594,4.5594,4.5577,4.5362,4.508,4.4745,4.4426,4.4039,4.3693,4.3548,4.3488,4.3488,4.3488,4.3488,4.3488,4.3488,4.3488,4.3488,4.3488,4.3488,4.3488,4.3488,4.3488,4.3488,4.3488,4.3488,4.3488,4.3488,4.3488,4.3488,4.3488,4.3488,4.3488,4.3488,4.3488,4.3488,4.3488]}]]